[[{"header":{"parameterUnit":"m.s-1","parameterCategory":1,"la1":31.0,"la2":29.5877,"lo1":-88.7671,"lo2":-86.6584,"dx":0.0162,"dy":0.0185,"nx":115,"ny":88,"refTime":"2023-01-02T18:00:00:Z","depth":0,"parameterNumber":2,"parameterNumberName":"U-component_of_WINDS"},"data":[0.0,0.0,0.0,0.0,0.0,0.0,0.0,0.0,0.0,0.0,0.0,0.0,0.0,0.0,0.0,0.0,0.0,0.0,0.0,0.0,0.0,0.0,0.0,0.0,0.0,0.0,0.0,0.0,0.0,0.0,0.0,0.0,0.0,0.0,0.0,0.0,0.0,0.0,0.0,0.0,0.0,0.0,0.0,0.0,0.0,0.0,0.0,0.0,0.0,0.0,0.0,0.0,0.0,0.0,0.0,0.0,0.0,0.0,0.0,0.0,0.0,0.0,0.0,0.0,0.0,0.0,0.0,0.0,0.0,0.0,0.0,0.0,0.0,0.0,0.0,0.0,0.0,0.0,0.0,0.0,0.0,0.0,0.0,0.0,0.0,0.0,0.0,0.0,0.0,0.0,0.0,0.0,0.0,0.0,0.0,0.0,0.0,0.0,0.0,0.0,0.0,0.0,0.0,0.0,0.0,0.0,0.0,0.0,0.0,0.0,0.0,0.0,0.0,0.0,0.0,0.0,0.0,0.0,0.0,0.0,0.0,0.0,0.0,0.0,0.0,0.0,0.0,0.0,0.0,0.0,0.0,0.0,0.0,0.0,0.0,0.0,0.0,0.0,0.0,0.0,0.0,0.0,0.0,0.0,0.0,0.0,0.0,0.0,0.0,0.0,0.0,0.0,0.0,0.0,0.0,0.0,0.0,0.0,0.0,0.0,0.0,0.0,0.0,0.0,0.0,0.0,0.0,0.0,0.0,0.0,0.0,0.0,0.0,0.0,0.0,0.0,0.0,0.0,0.0,0.0,0.0,0.0,0.0,0.0,0.0,0.0,0.0,0.0,0.0,0.0,0.0,0.0,0.0,0.0,0.0,0.0,0.0,0.0,0.0,0.0,0.0,0.0,0.0,0.0,0.0,0.0,0.0,0.0,0.0,0.0,0.0,0.0,0.0,0.0,0.0,0.0,0.0,0.0,0.0,0.0,0.0,0.0,0.0,0.0,0.0,0.0,0.0,0.0,0.0,0.0,0.0,0.0,0.0,0.0,0.0,0.0,0.0,0.0,0.0,0.0,0.0,0.0,0.0,0.0,0.0,0.0,0.0,0.0,0.0,0.0,0.0,0.0,0.0,0.0,0.0,0.0,0.0,0.0,0.0,0.0,0.0,0.0,0.0,0.0,0.0,0.0,0.0,0.0,0.0,0.0,0.0,0.0,0.0,0.0,0.0,0.0,0.0,0.0,0.0,0.0,0.0,0.0,0.0,0.0,0.0,0.0,0.0,0.0,0.0,0.0,0.0,0.0,0.0,0.0,0.0,0.0,0.0,0.0,0.0,0.0,0.0,0.0,0.0,0.0,0.0,0.0,0.0,0.0,0.0,0.0,0.0,0.0,0.0,0.0,0.0,0.0,0.0,0.0,0.0,0.0,0.0,0.0,0.0,0.0,0.0,0.0,0.0,0.0,0.0,0.0,0.0,0.0,0.0,0.0,0.0,0.0,0.0,0.0,0.0,0.0,0.0,0.0,0.0,0.0,0.0,0.0,0.0,0.0,0.0,0.0,0.0,0.0,0.0,0.0,0.0,0.0,0.0,0.0,0.0,0.0,0.0,0.0,0.0,0.0,0.0,0.0,0.0,0.0,0.0,0.0,0.0,0.0,0.0,0.0,0.0,0.0,0.0,0.0,0.0,0.0,0.0,0.0,0.0,0.0,0.0,0.0,0.0,0.0,0.0,0.0,0.0,0.0,0.0,0.0,0.0,0.0,0.0,0.0,0.0,0.0,0.0,0.0,0.0,0.0,0.0,0.0,0.0,0.0,0.0,0.0,0.0,0.0,0.0,0.0,0.0,0.0,0.0,0.0,0.0,0.0,0.0,0.0,0.0,0.0,0.0,0.0,0.0,0.0,0.0,0.0,0.0,0.0,0.0,0.0,0.0,0.0,0.0,0.0,0.0,0.0,0.0,0.0,0.0,0.0,0.0,0.0,0.0,0.0,0.0,0.0,0.0,0.0,0.0,0.0,0.0,0.0,0.0,0.0,0.0,0.0,0.0,0.0,0.0,0.0,0.0,0.0,0.0,0.0,0.0,0.0,0.0,0.0,0.0,0.0,0.0,0.0,0.0,0.0,0.0,0.0,0.0,0.0,0.0,0.0,0.0,0.0,0.0,0.0,0.0,0.0,0.0,0.0,0.0,0.0,0.0,0.0,0.0,0.0,0.0,0.0,0.0,0.0,0.0,0.0,0.0,0.0,0.0,0.0,0.0,0.0,0.0,0.0,0.0,0.0,0.0,0.0,0.0,0.0,0.0,0.0,0.0,0.0,0.0,0.0,0.0,0.0,0.0,0.0,0.0,0.0,0.0,0.0,0.0,0.0,0.0,0.0,0.0,0.0,0.0,0.0,0.0,0.0,0.0,0.0,0.0,0.0,0.0,0.0,0.0,0.0,0.0,0.0,0.0,0.0,0.0,0.0,0.0,0.0,0.0,0.0,0.0,0.0,0.0,0.0,0.0,0.0,0.0,0.0,0.0,0.0,0.0,0.0,0.0,0.0,0.0,0.0,0.0,0.0,0.0,0.0,0.0,0.0,0.0,0.0,0.0,0.0,0.0,0.0,0.0,0.0,0.0,0.0,0.0,0.0,0.0,0.0,0.0,0.0,0.0,0.0,0.0,0.0,0.0,0.0,0.0,0.0,0.0,0.0,0.0,0.0,0.0,0.0,0.0,0.0,0.0,0.0,0.0,0.0,0.0,0.0,0.0,0.0,0.0,0.0,0.0,0.0,0.0,0.0,0.0,0.0,0.0,0.0,0.0,0.0,0.0,0.0,0.0,0.0,0.0,0.0,0.0,0.0,0.0,0.0,0.0,0.0,0.0,0.0,0.0,0.0,0.0,0.0,0.0,0.0,0.0,0.0,0.0,0.0,0.0,0.0,0.0,0.0,0.0,0.0,0.0,0.0,0.0,0.0,0.0,0.0,0.0,0.0,0.0,0.0,0.0,0.0,0.0,0.0,0.0,0.0,0.0,0.0,0.0,0.0,0.0,0.0,0.0,0.0,0.0,0.0,0.0,0.0,0.0,0.0,0.0,0.0,0.0,0.0,0.0,0.0,0.0,0.0,0.0,0.0,0.0,0.0,0.0,0.0,0.0,0.0,0.0,0.0,0.0,0.0,0.0,0.0,0.0,0.0,0.0,0.0,0.0,0.0,0.0,0.0,0.0,0.0,0.0,0.0,0.0,0.0,0.0,0.0,0.0,0.0,0.0,0.0,0.0,0.0,0.0,0.0,0.0,0.0,0.0,0.0,0.0,0.0,0.0,0.0,0.0,0.0,0.0,0.0,0.0,0.0,0.0,0.0,0.0,0.0,0.0,0.0,0.0,0.0,0.0,0.0,0.0,0.0,0.0,0.0,0.0,0.0,0.0,0.0,0.0,0.0,0.0,0.0,0.0,0.0,0.0,0.0,0.0,0.0,0.0,0.0,0.0,0.0,0.0,0.0,0.0,0.0,0.0,0.0,0.0,0.0,0.0,0.0,0.0,0.0,0.0,0.0,0.0,0.0,0.0,0.0,0.0,0.0,0.0,0.0,0.0,0.0,0.0,0.0,0.0,0.0,0.0,0.0,0.0,0.0,0.0,0.0,0.0,0.0,0.0,0.0,0.0,0.0,0.0,0.0,0.0,0.0,0.0,0.0,0.0,0.0,0.0,0.0,0.0,0.0,0.0,0.0,0.0,0.0,0.0,0.0,0.0,0.0,0.0,0.0,0.0,0.0,0.0,0.0,0.0,0.0,0.0,0.0,0.0,0.0,0.0,0.0,0.0,0.0,0.0,0.0,0.0,0.0,0.0,0.0,0.0,0.0,0.0,0.0,0.0,0.0,0.0,0.0,0.0,0.0,0.0,0.0,0.0,0.0,0.0,0.0,0.0,0.0,0.0,0.0,0.0,0.0,0.0,0.0,0.0,0.0,0.0,0.0,0.0,0.0,0.0,0.0,0.0,0.0,0.0,0.0,0.0,0.0,0.0,0.0,0.0,0.0,0.0,0.0,0.0,0.0,0.0,0.0,0.0,0.0,0.0,0.0,0.0,0.0,0.0,0.0,0.0,0.0,0.0,0.0,0.0,0.0,0.0,0.0,0.0,0.0,0.0,0.0,0.0,0.0,0.0,0.0,0.0,0.0,0.0,0.0,0.0,0.0,0.0,0.0,0.0,0.0,0.0,0.0,0.0,0.0,0.0,0.0,0.0,0.0,0.0,0.0,0.0,0.0,-4.2302,0.0,0.0,0.0,-3.9414,0.0,0.0,0.0,0.0,0.0,0.0,0.0,0.0,0.0,0.0,0.0,0.0,0.0,0.0,0.0,0.0,0.0,0.0,0.0,0.0,0.0,0.0,0.0,0.0,0.0,0.0,0.0,0.0,0.0,0.0,0.0,0.0,0.0,0.0,0.0,0.0,0.0,0.0,0.0,0.0,0.0,0.0,0.0,0.0,0.0,0.0,0.0,0.0,0.0,0.0,0.0,0.0,0.0,0.0,0.0,0.0,0.0,0.0,0.0,0.0,0.0,0.0,0.0,0.0,0.0,0.0,0.0,0.0,0.0,0.0,0.0,0.0,0.0,0.0,0.0,0.0,0.0,0.0,0.0,0.0,0.0,0.0,0.0,0.0,0.0,0.0,0.0,0.0,0.0,0.0,0.0,0.0,0.0,0.0,0.0,0.0,0.0,0.0,0.0,0.0,0.0,0.0,0.0,0.0,0.0,0.0,0.0,0.0,0.0,0.0,-4.1912,-4.2195,-4.0611,-3.9613,-3.9388,0.0,0.0,0.0,0.0,0.0,0.0,0.0,0.0,0.0,0.0,0.0,0.0,0.0,0.0,0.0,0.0,0.0,0.0,0.0,0.0,0.0,0.0,0.0,0.0,0.0,0.0,0.0,0.0,0.0,0.0,0.0,0.0,0.0,0.0,0.0,0.0,0.0,0.0,0.0,0.0,0.0,0.0,0.0,0.0,0.0,0.0,0.0,0.0,0.0,0.0,0.0,0.0,0.0,0.0,0.0,0.0,0.0,0.0,0.0,0.0,0.0,0.0,0.0,0.0,0.0,0.0,0.0,0.0,0.0,0.0,0.0,0.0,0.0,0.0,0.0,0.0,0.0,0.0,0.0,0.0,0.0,0.0,0.0,0.0,0.0,0.0,0.0,0.0,0.0,0.0,0.0,0.0,0.0,0.0,0.0,0.0,0.0,0.0,0.0,0.0,0.0,0.0,0.0,0.0,0.0,0.0,0.0,0.0,0.0,0.0,0.0,0.0,-4.0752,-3.9865,-3.9581,0.0,0.0,0.0,0.0,0.0,0.0,0.0,0.0,0.0,0.0,0.0,0.0,0.0,0.0,0.0,0.0,0.0,0.0,0.0,0.0,0.0,0.0,0.0,0.0,0.0,0.0,0.0,0.0,0.0,0.0,0.0,0.0,0.0,0.0,0.0,0.0,0.0,0.0,0.0,0.0,0.0,0.0,0.0,0.0,0.0,0.0,0.0,0.0,0.0,0.0,0.0,0.0,0.0,0.0,0.0,0.0,0.0,0.0,0.0,0.0,0.0,0.0,0.0,0.0,0.0,0.0,0.0,0.0,0.0,0.0,0.0,0.0,0.0,0.0,0.0,0.0,0.0,0.0,0.0,0.0,0.0,0.0,0.0,0.0,0.0,0.0,0.0,0.0,0.0,0.0,0.0,0.0,0.0,0.0,0.0,0.0,0.0,0.0,0.0,0.0,0.0,0.0,0.0,0.0,0.0,0.0,0.0,0.0,0.0,0.0,-4.1439,-4.2059,-4.1255,0.0,-4.0177,0.0,0.0,0.0,0.0,0.0,0.0,0.0,0.0,0.0,0.0,0.0,0.0,0.0,0.0,0.0,0.0,0.0,0.0,0.0,0.0,0.0,0.0,0.0,0.0,0.0,0.0,0.0,0.0,0.0,0.0,0.0,0.0,0.0,0.0,0.0,0.0,0.0,0.0,0.0,0.0,0.0,0.0,0.0,0.0,0.0,0.0,0.0,0.0,0.0,0.0,0.0,0.0,0.0,0.0,0.0,0.0,0.0,0.0,0.0,0.0,0.0,0.0,0.0,0.0,0.0,0.0,0.0,0.0,0.0,0.0,0.0,0.0,0.0,0.0,0.0,0.0,0.0,0.0,0.0,0.0,0.0,0.0,0.0,0.0,0.0,0.0,0.0,0.0,0.0,0.0,0.0,0.0,0.0,0.0,0.0,0.0,0.0,0.0,0.0,0.0,0.0,0.0,0.0,0.0,0.0,0.0,0.0,0.0,0.0,0.0,-4.1379,-4.2083,-4.1177,-4.0514,0.0,0.0,0.0,0.0,0.0,0.0,0.0,0.0,0.0,0.0,0.0,0.0,0.0,0.0,0.0,0.0,0.0,0.0,0.0,0.0,0.0,0.0,0.0,0.0,0.0,0.0,0.0,0.0,0.0,0.0,0.0,0.0,0.0,0.0,0.0,0.0,0.0,0.0,0.0,0.0,0.0,0.0,0.0,0.0,0.0,0.0,0.0,0.0,0.0,0.0,0.0,0.0,0.0,0.0,0.0,0.0,0.0,0.0,0.0,0.0,0.0,0.0,0.0,0.0,0.0,0.0,0.0,0.0,0.0,0.0,0.0,0.0,0.0,0.0,0.0,0.0,0.0,0.0,0.0,0.0,0.0,0.0,0.0,0.0,0.0,0.0,0.0,0.0,0.0,0.0,0.0,0.0,0.0,0.0,0.0,0.0,0.0,0.0,0.0,0.0,0.0,0.0,0.0,0.0,0.0,0.0,0.0,0.0,0.0,0.0,-4.1005,-4.1305,-4.1944,-4.1231,-4.0649,-4.0185,0.0,0.0,0.0,0.0,0.0,0.0,0.0,0.0,0.0,0.0,0.0,0.0,0.0,0.0,0.0,0.0,0.0,0.0,0.0,0.0,0.0,0.0,0.0,0.0,0.0,0.0,0.0,0.0,0.0,0.0,0.0,0.0,0.0,0.0,0.0,0.0,0.0,0.0,0.0,0.0,0.0,0.0,0.0,0.0,0.0,0.0,0.0,0.0,0.0,0.0,0.0,0.0,0.0,0.0,0.0,0.0,0.0,0.0,0.0,0.0,0.0,0.0,0.0,0.0,0.0,0.0,0.0,0.0,0.0,0.0,0.0,0.0,0.0,0.0,0.0,0.0,0.0,0.0,0.0,0.0,0.0,0.0,0.0,0.0,0.0,0.0,0.0,0.0,0.0,0.0,0.0,0.0,0.0,0.0,0.0,0.0,0.0,0.0,0.0,0.0,0.0,0.0,0.0,0.0,0.0,0.0,0.0,0.0,-4.1642,-4.1126,-4.1166,-4.1962,-4.1722,-4.1163,0.0,0.0,0.0,0.0,0.0,0.0,0.0,0.0,0.0,0.0,0.0,0.0,0.0,0.0,0.0,0.0,0.0,0.0,0.0,0.0,0.0,0.0,0.0,0.0,0.0,0.0,0.0,0.0,0.0,0.0,0.0,0.0,0.0,0.0,0.0,0.0,0.0,0.0,0.0,0.0,0.0,0.0,0.0,0.0,0.0,0.0,0.0,0.0,0.0,0.0,0.0,0.0,0.0,0.0,0.0,0.0,0.0,0.0,0.0,0.0,0.0,0.0,0.0,0.0,0.0,0.0,0.0,0.0,0.0,0.0,0.0,0.0,0.0,0.0,0.0,0.0,0.0,0.0,0.0,0.0,0.0,0.0,0.0,0.0,0.0,0.0,0.0,0.0,0.0,0.0,0.0,0.0,0.0,0.0,0.0,0.0,0.0,0.0,0.0,0.0,0.0,0.0,0.0,0.0,0.0,0.0,0.0,0.0,0.0,-4.0854,-4.1764,-4.2838,-4.3998,-4.2486,-4.1319,0.0,0.0,0.0,0.0,0.0,0.0,0.0,0.0,0.0,0.0,0.0,0.0,0.0,0.0,0.0,0.0,0.0,0.0,0.0,0.0,0.0,0.0,0.0,0.0,0.0,0.0,0.0,0.0,0.0,0.0,0.0,0.0,0.0,0.0,0.0,0.0,0.0,0.0,0.0,0.0,0.0,0.0,0.0,0.0,0.0,0.0,0.0,0.0,0.0,0.0,0.0,0.0,0.0,0.0,0.0,0.0,0.0,0.0,0.0,0.0,0.0,0.0,0.0,0.0,0.0,0.0,0.0,0.0,0.0,0.0,0.0,0.0,0.0,0.0,0.0,0.0,0.0,0.0,0.0,0.0,0.0,0.0,0.0,0.0,0.0,0.0,0.0,0.0,0.0,0.0,0.0,0.0,0.0,0.0,0.0,0.0,0.0,0.0,0.0,0.0,0.0,0.0,0.0,0.0,0.0,0.0,0.0,0.0,0.0,-4.1534,-4.2962,-4.4109,-4.4808,-4.2891,-4.1477,0.0,0.0,0.0,0.0,0.0,0.0,0.0,0.0,0.0,0.0,0.0,0.0,0.0,0.0,0.0,0.0,0.0,0.0,0.0,0.0,0.0,0.0,0.0,0.0,0.0,0.0,0.0,0.0,0.0,0.0,0.0,0.0,0.0,0.0,0.0,0.0,0.0,0.0,0.0,0.0,0.0,0.0,0.0,0.0,0.0,0.0,0.0,0.0,0.0,0.0,0.0,0.0,0.0,0.0,0.0,0.0,0.0,0.0,0.0,0.0,0.0,0.0,0.0,0.0,0.0,0.0,0.0,0.0,0.0,0.0,0.0,0.0,0.0,0.0,0.0,0.0,0.0,0.0,0.0,0.0,0.0,0.0,0.0,0.0,0.0,0.0,0.0,0.0,0.0,0.0,0.0,0.0,0.0,0.0,0.0,0.0,0.0,0.0,0.0,0.0,0.0,0.0,0.0,0.0,0.0,0.0,0.0,0.0,-4.1351,-4.3881,-4.4735,-4.4846,-4.4045,-4.3028,-4.165,0.0,0.0,0.0,0.0,0.0,0.0,0.0,0.0,0.0,0.0,0.0,0.0,0.0,0.0,0.0,0.0,0.0,0.0,0.0,0.0,0.0,0.0,0.0,0.0,0.0,0.0,0.0,0.0,0.0,0.0,0.0,0.0,0.0,0.0,0.0,0.0,0.0,0.0,0.0,0.0,0.0,0.0,0.0,0.0,0.0,0.0,0.0,0.0,0.0,0.0,0.0,0.0,0.0,0.0,0.0,0.0,0.0,0.0,0.0,0.0,0.0,0.0,0.0,0.0,0.0,0.0,0.0,0.0,0.0,0.0,0.0,0.0,0.0,0.0,0.0,0.0,0.0,0.0,0.0,0.0,0.0,0.0,0.0,0.0,0.0,0.0,0.0,0.0,0.0,0.0,0.0,0.0,0.0,0.0,0.0,0.0,0.0,0.0,0.0,0.0,0.0,0.0,0.0,0.0,0.0,0.0,0.0,0.0,0.0,-4.4392,-4.5237,-4.5843,-4.6064,-4.4102,-4.2497,0.0,0.0,0.0,0.0,0.0,0.0,0.0,0.0,0.0,0.0,0.0,0.0,0.0,0.0,0.0,0.0,0.0,0.0,0.0,0.0,0.0,0.0,0.0,0.0,0.0,0.0,0.0,0.0,0.0,0.0,0.0,0.0,0.0,0.0,0.0,0.0,0.0,0.0,0.0,0.0,0.0,0.0,0.0,0.0,0.0,0.0,0.0,0.0,0.0,0.0,0.0,0.0,0.0,0.0,0.0,0.0,0.0,0.0,0.0,0.0,0.0,0.0,0.0,0.0,0.0,0.0,0.0,0.0,0.0,0.0,0.0,0.0,0.0,0.0,0.0,0.0,0.0,0.0,0.0,0.0,0.0,0.0,0.0,0.0,0.0,0.0,0.0,0.0,0.0,0.0,0.0,0.0,0.0,0.0,0.0,0.0,0.0,0.0,0.0,0.0,0.0,0.0,0.0,0.0,0.0,0.0,0.0,0.0,0.0,-4.5668,-4.6883,-4.7694,-4.7858,-4.5367,-4.3596,-4.263,0.0,0.0,0.0,0.0,0.0,0.0,0.0,0.0,0.0,0.0,0.0,0.0,0.0,0.0,0.0,0.0,0.0,0.0,0.0,0.0,0.0,0.0,0.0,0.0,0.0,0.0,0.0,0.0,0.0,0.0,0.0,0.0,0.0,0.0,0.0,0.0,0.0,0.0,0.0,0.0,0.0,0.0,0.0,0.0,0.0,0.0,0.0,0.0,0.0,0.0,0.0,0.0,0.0,0.0,0.0,0.0,0.0,0.0,0.0,0.0,0.0,0.0,0.0,0.0,0.0,0.0,0.0,0.0,0.0,0.0,0.0,0.0,0.0,0.0,0.0,0.0,0.0,0.0,0.0,0.0,0.0,0.0,0.0,0.0,0.0,0.0,0.0,0.0,0.0,0.0,0.0,0.0,0.0,0.0,0.0,0.0,0.0,0.0,0.0,0.0,0.0,0.0,0.0,0.0,0.0,0.0,0.0,0.0,-4.7499,-4.943,-5.0022,-4.9112,-4.6767,-4.4975,0.0,0.0,0.0,0.0,0.0,0.0,0.0,0.0,0.0,0.0,0.0,0.0,0.0,0.0,0.0,0.0,0.0,0.0,0.0,0.0,0.0,0.0,0.0,0.0,0.0,0.0,0.0,0.0,0.0,0.0,0.0,0.0,0.0,0.0,0.0,0.0,0.0,0.0,0.0,0.0,0.0,0.0,0.0,0.0,0.0,0.0,0.0,0.0,0.0,0.0,0.0,0.0,0.0,0.0,0.0,0.0,0.0,0.0,0.0,0.0,0.0,0.0,0.0,0.0,0.0,0.0,0.0,0.0,0.0,0.0,0.0,0.0,0.0,0.0,0.0,0.0,0.0,0.0,0.0,0.0,0.0,0.0,0.0,0.0,0.0,0.0,0.0,0.0,0.0,0.0,0.0,0.0,0.0,0.0,0.0,0.0,0.0,0.0,0.0,0.0,0.0,0.0,0.0,0.0,0.0,0.0,0.0,0.0,0.0,-4.9944,-5.0975,-5.0878,-4.9564,-4.8307,-4.6672,0.0,0.0,0.0,0.0,0.0,0.0,0.0,0.0,0.0,0.0,0.0,0.0,0.0,0.0,0.0,0.0,0.0,0.0,0.0,0.0,0.0,0.0,0.0,0.0,0.0,0.0,0.0,0.0,0.0,0.0,0.0,0.0,0.0,0.0,0.0,0.0,0.0,0.0,0.0,0.0,0.0,0.0,0.0,0.0,0.0,0.0,0.0,0.0,0.0,0.0,0.0,0.0,0.0,0.0,0.0,0.0,0.0,0.0,0.0,0.0,0.0,0.0,0.0,0.0,0.0,0.0,0.0,0.0,0.0,0.0,0.0,0.0,0.0,0.0,0.0,0.0,0.0,0.0,0.0,0.0,0.0,0.0,0.0,0.0,0.0,0.0,0.0,0.0,0.0,0.0,0.0,0.0,0.0,0.0,0.0,0.0,0.0,0.0,0.0,0.0,0.0,0.0,0.0,0.0,0.0,0.0,0.0,0.0,-4.9614,-5.1117,-5.1779,-5.1668,-5.0766,-4.9436,-4.7745,0.0,0.0,0.0,0.0,0.0,0.0,0.0,0.0,0.0,0.0,0.0,0.0,0.0,0.0,0.0,0.0,0.0,0.0,0.0,0.0,0.0,0.0,0.0,0.0,0.0,0.0,0.0,0.0,0.0,0.0,0.0,0.0,0.0,0.0,0.0,0.0,0.0,0.0,0.0,0.0,0.0,0.0,0.0,0.0,0.0,0.0,0.0,0.0,0.0,0.0,0.0,0.0,0.0,0.0,0.0,0.0,0.0,0.0,0.0,0.0,0.0,0.0,0.0,0.0,0.0,0.0,0.0,0.0,0.0,0.0,0.0,0.0,0.0,0.0,0.0,0.0,0.0,0.0,0.0,0.0,0.0,0.0,0.0,0.0,0.0,0.0,0.0,0.0,0.0,0.0,0.0,0.0,0.0,0.0,0.0,0.0,0.0,0.0,0.0,0.0,0.0,0.0,0.0,0.0,0.0,0.0,0.0,0.0,-5.0097,-5.1641,-5.2157,-5.2376,-5.2197,-5.0413,-4.8564,0.0,0.0,0.0,0.0,0.0,0.0,0.0,0.0,0.0,0.0,0.0,0.0,0.0,0.0,0.0,0.0,0.0,0.0,0.0,0.0,0.0,0.0,0.0,0.0,0.0,0.0,0.0,0.0,0.0,0.0,0.0,0.0,0.0,0.0,0.0,0.0,0.0,0.0,0.0,0.0,0.0,0.0,0.0,0.0,0.0,0.0,0.0,0.0,0.0,0.0,0.0,0.0,0.0,0.0,0.0,0.0,0.0,0.0,0.0,0.0,0.0,0.0,0.0,0.0,0.0,0.0,0.0,0.0,0.0,0.0,0.0,0.0,0.0,0.0,0.0,0.0,0.0,0.0,0.0,0.0,0.0,0.0,0.0,0.0,0.0,0.0,0.0,0.0,0.0,0.0,0.0,0.0,0.0,0.0,0.0,0.0,0.0,0.0,0.0,0.0,0.0,0.0,0.0,0.0,0.0,0.0,0.0,0.0,-5.0761,-5.2705,-5.2776,-5.2739,-5.2596,-5.1903,-5.0162,0.0,0.0,0.0,0.0,0.0,0.0,0.0,0.0,0.0,0.0,0.0,0.0,0.0,0.0,0.0,0.0,0.0,0.0,0.0,0.0,0.0,0.0,0.0,0.0,0.0,0.0,0.0,0.0,0.0,0.0,0.0,0.0,0.0,0.0,0.0,0.0,0.0,0.0,0.0,0.0,0.0,0.0,0.0,0.0,0.0,0.0,0.0,0.0,-3.7933,0.0,0.0,0.0,0.0,0.0,0.0,0.0,0.0,0.0,0.0,0.0,0.0,0.0,0.0,0.0,0.0,0.0,0.0,0.0,0.0,0.0,0.0,0.0,0.0,0.0,0.0,0.0,0.0,0.0,0.0,0.0,0.0,0.0,0.0,0.0,0.0,0.0,0.0,0.0,0.0,0.0,0.0,0.0,0.0,0.0,0.0,0.0,0.0,0.0,0.0,0.0,0.0,0.0,0.0,0.0,0.0,0.0,0.0,0.0,-5.0997,-5.2828,-5.3356,-5.3355,-5.2922,-5.2711,-5.0843,0.0,0.0,0.0,0.0,0.0,0.0,0.0,0.0,0.0,0.0,0.0,0.0,0.0,0.0,0.0,0.0,0.0,0.0,0.0,0.0,0.0,0.0,0.0,0.0,0.0,0.0,0.0,0.0,0.0,0.0,0.0,0.0,0.0,0.0,0.0,0.0,0.0,0.0,0.0,0.0,0.0,0.0,0.0,0.0,0.0,0.0,0.0,0.0,0.0,0.0,0.0,0.0,0.0,0.0,0.0,0.0,0.0,0.0,0.0,0.0,0.0,0.0,0.0,0.0,0.0,0.0,0.0,0.0,0.0,0.0,0.0,0.0,0.0,0.0,0.0,0.0,0.0,0.0,0.0,0.0,0.0,0.0,0.0,0.0,0.0,0.0,0.0,0.0,0.0,0.0,0.0,0.0,0.0,0.0,0.0,0.0,0.0,0.0,0.0,0.0,0.0,0.0,0.0,0.0,0.0,0.0,0.0,-4.8978,-5.113,-5.2691,-5.3767,-5.3992,-5.3215,-5.2943,-5.0883,-4.6914,0.0,0.0,0.0,0.0,0.0,0.0,0.0,0.0,0.0,0.0,0.0,0.0,0.0,0.0,0.0,0.0,0.0,0.0,0.0,0.0,0.0,0.0,0.0,0.0,0.0,0.0,0.0,0.0,0.0,0.0,0.0,0.0,0.0,0.0,0.0,0.0,0.0,0.0,-3.7926,-3.8835,0.0,0.0,0.0,0.0,0.0,0.0,0.0,0.0,-3.9841,0.0,0.0,0.0,0.0,0.0,0.0,0.0,0.0,0.0,0.0,0.0,0.0,0.0,0.0,0.0,0.0,0.0,0.0,0.0,0.0,0.0,0.0,0.0,0.0,0.0,0.0,0.0,0.0,0.0,0.0,0.0,0.0,0.0,0.0,0.0,0.0,0.0,0.0,0.0,0.0,0.0,0.0,0.0,0.0,0.0,0.0,0.0,0.0,0.0,0.0,0.0,0.0,0.0,0.0,0.0,0.0,-4.6301,-4.9211,-5.139,-5.2806,-5.3665,-5.3912,-5.3578,-5.2257,-5.0326,-4.7781,0.0,0.0,0.0,0.0,0.0,0.0,0.0,0.0,0.0,0.0,0.0,0.0,0.0,0.0,0.0,0.0,0.0,0.0,0.0,0.0,0.0,0.0,0.0,0.0,0.0,0.0,0.0,0.0,0.0,0.0,0.0,0.0,0.0,0.0,0.0,0.0,0.0,0.0,0.0,-3.9329,-3.9809,0.0,0.0,0.0,0.0,0.0,0.0,0.0,0.0,-3.9576,0.0,0.0,0.0,0.0,0.0,0.0,0.0,0.0,0.0,0.0,0.0,0.0,0.0,0.0,0.0,0.0,0.0,0.0,0.0,0.0,0.0,0.0,0.0,0.0,0.0,0.0,0.0,0.0,0.0,0.0,0.0,0.0,0.0,0.0,0.0,0.0,0.0,0.0,0.0,0.0,0.0,0.0,0.0,0.0,0.0,0.0,0.0,0.0,0.0,0.0,0.0,0.0,0.0,0.0,0.0,-4.6567,-4.9277,-5.1216,-5.2267,-5.3281,-5.3617,-5.3145,-5.2068,-5.0518,0.0,0.0,0.0,0.0,0.0,0.0,0.0,0.0,0.0,0.0,0.0,0.0,0.0,0.0,0.0,0.0,0.0,0.0,0.0,0.0,0.0,0.0,0.0,0.0,0.0,0.0,0.0,0.0,0.0,0.0,0.0,0.0,0.0,0.0,0.0,0.0,0.0,0.0,0.0,0.0,-4.0464,-4.0969,-4.0944,0.0,0.0,0.0,0.0,0.0,0.0,-4.0957,-4.0531,0.0,0.0,0.0,0.0,0.0,0.0,0.0,0.0,0.0,0.0,0.0,0.0,0.0,0.0,0.0,0.0,0.0,0.0,0.0,0.0,0.0,0.0,0.0,0.0,0.0,0.0,0.0,0.0,0.0,0.0,0.0,0.0,0.0,0.0,0.0,0.0,0.0,0.0,0.0,0.0,0.0,0.0,0.0,0.0,0.0,0.0,0.0,0.0,0.0,0.0,0.0,0.0,0.0,0.0,0.0,-4.669,-4.9155,-5.0759,-5.1491,-5.272,-5.3083,-5.2485,-5.196,-5.0693,0.0,0.0,0.0,0.0,0.0,0.0,0.0,0.0,0.0,0.0,0.0,0.0,0.0,0.0,0.0,0.0,0.0,0.0,0.0,0.0,0.0,0.0,0.0,0.0,0.0,0.0,0.0,0.0,0.0,0.0,0.0,0.0,0.0,0.0,0.0,0.0,0.0,0.0,0.0,0.0,0.0,-4.1663,-4.1799,-4.115,0.0,0.0,0.0,0.0,-4.2268,-4.1931,0.0,0.0,0.0,0.0,0.0,0.0,0.0,0.0,0.0,0.0,0.0,0.0,0.0,0.0,0.0,0.0,0.0,0.0,0.0,0.0,0.0,0.0,0.0,0.0,0.0,0.0,0.0,0.0,0.0,0.0,0.0,0.0,0.0,0.0,0.0,0.0,0.0,0.0,0.0,0.0,0.0,0.0,0.0,0.0,0.0,0.0,0.0,0.0,0.0,0.0,0.0,0.0,0.0,0.0,0.0,0.0,-4.6517,-4.876,-5.0175,-5.0722,-5.1691,-5.2158,-5.2059,-5.1543,-5.0323,0.0,0.0,0.0,0.0,0.0,0.0,0.0,0.0,0.0,0.0,0.0,0.0,0.0,0.0,0.0,0.0,0.0,0.0,0.0,0.0,0.0,0.0,0.0,0.0,0.0,0.0,0.0,0.0,0.0,0.0,0.0,0.0,0.0,0.0,0.0,0.0,0.0,0.0,0.0,0.0,0.0,-4.0722,-4.0862,-4.0562,-4.0582,0.0,0.0,-4.0999,-4.2178,-4.1612,0.0,0.0,0.0,0.0,0.0,0.0,0.0,0.0,0.0,0.0,0.0,0.0,0.0,0.0,0.0,0.0,0.0,0.0,0.0,0.0,0.0,0.0,0.0,0.0,0.0,0.0,0.0,0.0,0.0,0.0,0.0,0.0,0.0,0.0,0.0,0.0,0.0,0.0,0.0,0.0,0.0,0.0,0.0,0.0,0.0,0.0,0.0,0.0,0.0,0.0,0.0,0.0,0.0,0.0,0.0,-4.4453,-4.6544,-4.8194,-4.9636,-5.0864,-5.148,-5.1756,-5.1685,-5.1336,-5.0255,0.0,0.0,0.0,0.0,0.0,0.0,0.0,0.0,0.0,0.0,0.0,0.0,0.0,0.0,0.0,0.0,0.0,0.0,0.0,0.0,0.0,0.0,0.0,0.0,0.0,0.0,0.0,0.0,0.0,0.0,0.0,0.0,0.0,0.0,0.0,0.0,0.0,0.0,0.0,0.0,0.0,0.0,-4.1421,-4.1813,0.0,0.0,0.0,-4.2441,-4.3044,0.0,0.0,0.0,0.0,0.0,0.0,0.0,0.0,0.0,0.0,0.0,0.0,0.0,0.0,0.0,0.0,0.0,0.0,0.0,0.0,0.0,0.0,0.0,0.0,0.0,0.0,0.0,0.0,0.0,0.0,0.0,0.0,0.0,0.0,0.0,0.0,0.0,0.0,0.0,0.0,0.0,0.0,0.0,0.0,0.0,0.0,0.0,0.0,0.0,0.0,0.0,0.0,0.0,0.0,0.0,0.0,0.0,-4.6163,-4.7489,-4.898,-5.0736,-5.1104,-5.1264,-5.1192,-5.1147,0.0,0.0,0.0,0.0,0.0,0.0,0.0,0.0,0.0,0.0,0.0,0.0,0.0,0.0,0.0,0.0,0.0,0.0,0.0,0.0,0.0,0.0,0.0,0.0,0.0,0.0,0.0,-3.2296,0.0,0.0,0.0,0.0,0.0,0.0,0.0,0.0,0.0,0.0,0.0,0.0,0.0,0.0,-4.1337,-4.2215,-4.2809,-4.3347,0.0,0.0,-4.3444,-4.3945,-4.2886,-4.1905,0.0,0.0,0.0,0.0,0.0,0.0,0.0,0.0,0.0,0.0,0.0,0.0,0.0,0.0,0.0,0.0,0.0,0.0,0.0,0.0,0.0,0.0,0.0,0.0,0.0,0.0,0.0,0.0,0.0,0.0,0.0,0.0,0.0,0.0,0.0,0.0,0.0,0.0,0.0,0.0,0.0,0.0,0.0,0.0,0.0,0.0,0.0,0.0,0.0,0.0,0.0,0.0,0.0,0.0,-4.3182,-4.5153,-4.6591,-4.8111,-4.9654,-5.0165,-5.0403,-5.0361,-5.0911,-5.0012,0.0,0.0,0.0,0.0,0.0,0.0,0.0,0.0,0.0,0.0,0.0,0.0,0.0,0.0,0.0,0.0,0.0,0.0,0.0,0.0,0.0,0.0,0.0,0.0,0.0,0.0,0.0,0.0,0.0,0.0,0.0,0.0,0.0,0.0,0.0,0.0,0.0,0.0,0.0,0.0,0.0,-4.1337,-4.2723,-4.2761,-4.303,0.0,-4.3487,-4.3288,-4.4407,-4.3118,-4.2007,-4.1957,0.0,0.0,0.0,0.0,0.0,0.0,0.0,0.0,0.0,0.0,0.0,0.0,0.0,0.0,0.0,0.0,0.0,0.0,0.0,0.0,0.0,0.0,0.0,0.0,0.0,0.0,0.0,0.0,0.0,0.0,0.0,0.0,0.0,0.0,0.0,0.0,0.0,0.0,0.0,0.0,0.0,0.0,0.0,0.0,0.0,0.0,0.0,0.0,0.0,0.0,0.0,0.0,0.0,-4.2535,-4.4548,-4.6177,-4.7915,-4.9774,-5.0363,-5.0752,-5.0913,-5.1036,-5.0254,0.0,0.0,0.0,0.0,0.0,0.0,0.0,0.0,0.0,0.0,0.0,0.0,0.0,0.0,0.0,0.0,0.0,0.0,0.0,0.0,0.0,0.0,0.0,0.0,0.0,0.0,0.0,0.0,-3.4122,-3.4159,-3.3723,0.0,0.0,0.0,0.0,0.0,0.0,0.0,0.0,0.0,0.0,-4.1153,-4.2238,-4.3198,0.0,0.0,-4.406,-4.4027,-4.4507,-4.368,-4.2938,-4.2535,-4.1342,0.0,0.0,0.0,0.0,0.0,0.0,0.0,0.0,0.0,0.0,0.0,0.0,0.0,0.0,0.0,0.0,0.0,0.0,0.0,0.0,0.0,0.0,0.0,0.0,0.0,0.0,0.0,0.0,0.0,0.0,0.0,0.0,0.0,0.0,0.0,0.0,0.0,0.0,0.0,0.0,0.0,0.0,0.0,0.0,0.0,0.0,0.0,0.0,0.0,0.0,0.0,0.0,-4.2176,-4.42,-4.5988,-4.7761,-4.9494,-5.0201,-5.0668,-5.0849,-5.0883,-5.0205,0.0,0.0,0.0,0.0,0.0,0.0,0.0,0.0,0.0,0.0,0.0,0.0,0.0,0.0,0.0,0.0,0.0,0.0,0.0,0.0,0.0,0.0,0.0,0.0,0.0,0.0,0.0,0.0,-3.4218,-3.4002,-3.3,0.0,0.0,0.0,0.0,0.0,0.0,0.0,0.0,0.0,0.0,-4.1639,-4.2848,-4.3968,-4.4888,-4.5208,-4.5135,-4.4939,-4.4732,-4.4123,-4.3527,-4.2791,0.0,0.0,0.0,0.0,0.0,0.0,0.0,0.0,0.0,0.0,0.0,0.0,0.0,0.0,0.0,0.0,0.0,0.0,0.0,0.0,0.0,0.0,0.0,0.0,0.0,0.0,0.0,-3.7613,0.0,0.0,-3.6394,0.0,0.0,0.0,0.0,0.0,0.0,0.0,0.0,0.0,0.0,0.0,0.0,0.0,0.0,0.0,0.0,0.0,0.0,0.0,0.0,0.0,0.0,-4.2145,-4.4276,-4.6007,-4.7422,-4.8542,-4.9377,-4.9842,-4.9842,-5.0349,-4.9777,-4.8025,0.0,0.0,0.0,0.0,0.0,0.0,0.0,0.0,0.0,0.0,0.0,0.0,0.0,0.0,0.0,0.0,0.0,0.0,0.0,0.0,0.0,0.0,0.0,0.0,0.0,0.0,-3.4881,-3.4659,-3.3986,0.0,0.0,0.0,0.0,0.0,0.0,0.0,0.0,0.0,-4.0016,-4.1292,-4.2765,-4.4852,-4.522,-4.5576,-4.662,-4.6475,-4.6051,-4.5164,-4.4323,-4.3488,0.0,0.0,0.0,0.0,0.0,0.0,0.0,0.0,0.0,0.0,0.0,0.0,0.0,0.0,0.0,0.0,0.0,0.0,0.0,0.0,0.0,0.0,0.0,0.0,0.0,0.0,0.0,-3.7994,-3.8027,0.0,0.0,0.0,0.0,0.0,0.0,0.0,0.0,0.0,0.0,0.0,-3.6339,-3.6589,0.0,0.0,0.0,0.0,0.0,0.0,0.0,0.0,0.0,0.0,0.0,0.0,-4.204,-4.4196,-4.5785,-4.7253,-4.8599,-4.9174,-4.9543,-4.9735,-4.9799,-4.9058,-4.7482,0.0,0.0,0.0,0.0,0.0,0.0,0.0,0.0,0.0,0.0,0.0,0.0,0.0,0.0,0.0,0.0,0.0,0.0,0.0,0.0,0.0,0.0,0.0,0.0,0.0,-3.4182,0.0,0.0,0.0,0.0,0.0,0.0,0.0,0.0,0.0,0.0,-3.6925,-3.8395,-3.9563,-4.1022,-4.2455,-4.3807,-4.4547,-4.5119,0.0,0.0,0.0,0.0,0.0,0.0,0.0,0.0,0.0,0.0,0.0,0.0,0.0,0.0,-3.9437,-3.8514,-3.8688,-3.9185,-3.9832,0.0,0.0,0.0,0.0,0.0,0.0,0.0,0.0,0.0,0.0,0.0,0.0,0.0,0.0,-3.9003,-3.9017,-3.8141,0.0,0.0,0.0,0.0,0.0,0.0,0.0,0.0,-3.6917,-3.6849,-3.6484,-3.6832,-3.7038,-3.7211,-3.7018,-3.6978,0.0,0.0,0.0,0.0,0.0,0.0,0.0,0.0,-4.2129,-4.4399,-4.5769,-4.6976,-4.8104,-4.8616,-4.9009,-4.9277,-4.9078,-4.8529,-4.7526,-4.638,-4.5012,0.0,0.0,0.0,0.0,0.0,0.0,0.0,0.0,0.0,0.0,0.0,0.0,0.0,0.0,0.0,0.0,0.0,0.0,0.0,0.0,0.0,0.0,0.0,-3.4758,0.0,0.0,0.0,0.0,0.0,0.0,0.0,0.0,0.0,-3.6415,-3.7594,-3.8864,-3.9954,-4.1237,-4.2448,-4.356,0.0,0.0,0.0,0.0,0.0,0.0,0.0,-4.3418,-4.2905,-4.237,-4.1925,-4.1607,-4.1135,-4.0966,-4.1512,0.0,0.0,-4.0619,-4.0841,-4.1403,-4.2248,-4.2658,-4.3077,-4.3532,-4.4468,-4.5221,0.0,0.0,0.0,0.0,-3.9844,0.0,0.0,0.0,-4.0383,-4.0431,0.0,-3.914,0.0,0.0,0.0,0.0,-3.7394,-3.7585,0.0,0.0,-3.837,-3.8184,-3.7454,-3.7268,-3.7311,-3.7454,-3.7751,-3.7977,-3.809,-3.7091,-3.6816,0.0,0.0,0.0,0.0,0.0,-4.2478,-4.4915,-4.6016,-4.6784,-4.7129,-4.7718,-4.8229,-4.8481,-4.8407,-4.8259,-4.8062,-4.6865,-4.5522,-4.4004,-4.2882,0.0,0.0,0.0,0.0,0.0,0.0,0.0,0.0,0.0,0.0,0.0,0.0,0.0,0.0,0.0,0.0,0.0,0.0,0.0,0.0,-3.5323,0.0,0.0,0.0,0.0,0.0,0.0,0.0,0.0,0.0,-3.7612,-3.8249,-3.8671,-3.9531,-4.1119,0.0,0.0,0.0,0.0,-4.4503,-4.4709,-4.4732,-4.4254,-4.3102,-4.324,-4.3151,-4.237,0.0,0.0,-4.1684,-4.1573,-4.1903,-4.2557,-4.3383,-4.3723,-4.3298,-4.3405,-4.3929,-4.5086,-4.5355,-4.5612,-4.6295,-4.7154,-4.7908,-3.982,0.0,0.0,0.0,0.0,-3.849,-3.8531,-3.8667,-3.8572,-3.8723,-3.8993,-3.8653,0.0,0.0,0.0,0.0,0.0,0.0,-3.7597,-3.7762,-3.8087,-3.8262,-3.8254,-3.8602,-3.8952,-3.9203,-3.8959,-3.8971,-3.9185,-3.869,-3.8697,-3.9161,0.0,0.0,0.0,0.0,-4.3273,-4.492,-4.5937,-4.6734,-4.7216,-4.741,-4.775,-4.8229,-4.8211,-4.8112,-4.7942,-4.7308,-4.635,-4.4993,-4.3539,0.0,0.0,0.0,0.0,0.0,0.0,0.0,0.0,0.0,0.0,0.0,0.0,0.0,0.0,0.0,0.0,0.0,0.0,0.0,-3.6708,-3.6138,-3.5879,0.0,0.0,0.0,0.0,0.0,0.0,0.0,0.0,0.0,-4.0725,-4.0136,-3.9936,0.0,0.0,-4.2232,-4.2901,-4.3301,-4.3498,-4.3584,-4.3397,0.0,-4.3105,-4.2922,-4.274,-4.254,-4.2657,-4.2751,-4.2689,-4.3555,-4.4481,-4.5004,-4.5976,-4.6646,-4.6917,-4.6275,-4.6166,-4.69,-4.7371,-4.7834,-4.8496,-4.9213,-4.969,-3.9991,-3.9738,-3.9158,-3.8928,-3.8901,-3.864,-3.8602,-3.8678,-3.846,-3.8617,-3.9066,-3.8803,-3.8916,-3.9293,-3.8788,0.0,0.0,0.0,-3.8209,-3.8188,-3.8533,-3.8813,-3.9032,-3.9369,-3.9751,-4.0054,-3.9983,-3.9991,-4.0134,-4.0027,-4.0233,-4.0777,0.0,-4.0733,-4.1931,-4.2685,-4.3664,-4.4919,-4.5586,-4.6117,-4.6585,-4.6717,-4.7029,-4.7414,-4.7568,-4.7707,-4.7815,-4.7319,-4.6718,-4.5909,-4.4276,-4.2911,0.0,0.0,0.0,0.0,0.0,0.0,0.0,0.0,0.0,0.0,0.0,-3.4369,-3.4816,0.0,0.0,0.0,-3.6508,-3.718,-3.8166,-3.7093,0.0,0.0,0.0,0.0,0.0,0.0,0.0,-3.8918,-4.0105,-4.1168,-4.2008,-4.1682,-4.1373,-4.1617,-4.176,-4.2025,-4.2406,0.0,-4.263,-4.2489,-4.2419,-4.237,-4.2462,-4.2511,-4.2721,-4.3001,-4.3665,-4.4124,-4.4333,-4.5392,-4.638,-4.698,-4.7648,-4.8315,-4.8899,-4.8503,-4.8282,-4.8706,-4.9101,-4.9587,-5.0203,-5.0695,-5.1096,-4.0235,-3.9772,-4.0237,-4.033,-4.0165,-3.9841,-3.9719,-3.9712,-3.9357,-3.9546,-3.9978,-3.9465,-3.9474,-3.9986,-3.9176,0.0,-3.8976,-3.9311,-3.9332,-3.922,-3.9515,-3.9698,-3.9726,-3.9726,-4.0031,-4.0492,-4.0772,-4.0873,-4.0924,-4.1101,-4.1487,-4.1981,-4.101,-4.1082,-4.2236,-4.2813,-4.3728,-4.4989,-4.5069,-4.5259,-4.5582,-4.5875,-4.6112,-4.6376,-4.6665,-4.7081,-4.7545,-4.6989,-4.6656,-4.6453,-4.4996,-4.3718,-4.2682,0.0,0.0,0.0,0.0,0.0,0.0,0.0,0.0,0.0,0.0,0.0,0.0,0.0,0.0,-3.6977,-3.7097,0.0,-3.9336,-3.8078,0.0,0.0,0.0,-3.7122,-3.7933,-3.8934,-3.9789,-4.0411,0.0,0.0,-4.2668,-4.3233,-4.3511,-4.3216,-4.2485,-4.2107,-4.2446,-4.2208,-4.1806,-4.1615,-4.1827,-4.1877,-4.1898,-4.2484,-4.3228,-4.3808,-4.493,-4.578,-4.6173,-4.6982,-4.7842,-4.8513,-4.8768,-4.9022,-4.9733,-5.0259,-5.0616,-5.0468,-5.0684,-5.0996,-5.1456,-5.19,-5.2251,-4.1074,-4.0643,-4.1363,-4.0692,-3.9165,-3.9058,-3.9055,-3.9029,-3.8947,-3.909,-3.9311,-3.9181,-3.9207,-3.9337,-3.9133,-3.8921,-3.8862,-3.8894,-3.9287,-3.9829,-3.9931,-4.0311,-4.0885,-4.091,-4.1066,-4.1379,-4.1432,-4.1615,-4.1772,-4.1825,-4.1929,-4.2057,-4.2268,-4.2475,-4.2754,-4.3281,-4.3782,-4.4098,-4.4838,-4.5289,-4.5582,-4.5662,-4.5822,-4.6112,-4.6165,-4.6376,-4.669,-4.6553,-4.625,-4.5801,-4.5123,-4.4346,-4.3333,-4.2206,0.0,0.0,0.0,0.0,0.0,0.0,0.0,0.0,0.0,-3.5214,-3.584,0.0,-3.7365,0.0,-3.7581,-3.8394,-3.9291,-3.8807,0.0,0.0,-3.8813,-3.8859,-3.9611,-4.0088,-4.0924,-4.2456,-4.323,-4.4112,-4.5143,-4.4957,-4.4727,-4.4755,-4.336,-4.2241,-4.1898,-4.1686,-4.1615,-4.1544,-4.1615,-4.1898,-4.2694,-4.3959,-4.4928,-4.5089,-4.6195,-4.7075,-4.7144,-4.8146,-4.9059,-4.9501,-5.0162,-5.0753,-5.1195,-5.1939,-5.2421,-5.2461,-5.2278,-5.2241,-5.2961,-5.3231,-5.3432,-4.1594,-4.1115,-4.1577,-4.1047,-3.988,-3.9649,-3.944,-3.9184,-3.8879,-3.9002,-3.9355,-3.9612,-3.9741,-3.9741,-3.9949,-3.9977,-3.9752,-4.0007,-4.0312,-4.0635,-4.066,-4.1009,-4.1706,-4.1706,-4.1886,-4.2276,-4.2276,-4.233,-4.2493,-4.2493,-4.2493,-4.2518,-4.2852,-4.3016,-4.2979,-4.3558,-4.3875,-4.3875,-4.4375,-4.4694,-4.4856,-4.4856,-4.4964,-4.5207,-4.5287,-4.5368,-4.5635,-4.5635,-4.5528,-4.5313,-4.4638,-4.4037,-4.3611,-4.2617,-4.1346,0.0,0.0,0.0,0.0,0.0,0.0,0.0,0.0,0.0,0.0,0.0,-3.7709,-3.7881,-3.8351,-3.8883,-3.9417,-3.9222,-3.9228,-3.9588,-3.953,-3.9787,-4.0558,-4.1368,-4.2295,-4.3561,-4.4547,-4.5398,-4.6085,-4.6064,-4.5766,-4.5346,-4.4434,-4.3397,-4.2441,-4.1969,-4.1735,-4.1756,-4.1969,-4.2667,-4.3963,-4.5136,-4.5965,-4.6403,-4.747,-4.831,-4.8333,-4.9319,-5.0215,-5.0473,-5.1211,-5.1929,-5.24,-5.3031,-5.3591,-5.3707,-5.3578,-5.3573,-5.4009,-5.4084,-5.421,-4.1932,-4.1401,-4.153,-4.148,-4.1254,-4.0897,-4.0389,-3.9777,-3.9317,-3.9368,-3.9828,-4.0389,-4.0619,-4.0645,-4.1079,-4.1179,-4.0995,-4.1398,-4.1569,-4.143,-4.1376,-4.1731,-4.2313,-4.2389,-4.2665,-4.3087,-4.3162,-4.3187,-4.3187,-4.3187,-4.3187,-4.3187,-4.3112,-4.3087,-4.3143,-4.3538,-4.3789,-4.3819,-4.3844,-4.3819,-4.3899,-4.3899,-4.401,-4.4258,-4.4258,-4.4393,-4.4689,-4.4689,-4.4824,-4.5122,-4.4203,-4.3677,-4.3727,-4.2799,-4.1825,0.0,-4.047,0.0,0.0,0.0,0.0,0.0,0.0,0.0,0.0,-3.7625,-3.8131,-3.9001,-3.917,-3.9354,-3.9484,-3.9427,-3.9467,-3.9739,-3.9909,-4.0343,-4.1216,-4.2597,-4.3718,-4.4283,-4.5763,-4.6597,-4.6454,-4.677,-4.6563,-4.5731,-4.5392,-4.4778,-4.3628,-4.2721,-4.23,-4.2229,-4.2905,-4.4102,-4.5366,-4.6196,-4.6889,-4.7679,-4.8708,-4.9484,-4.9578,-5.0475,-5.1306,-5.1474,-5.2098,-5.2795,-5.3247,-5.379,-5.4281,-5.4591,-5.4712,-5.4737,-5.4687,-5.4662,-5.4687,-4.2564,-4.2112,-4.2484,-4.2158,-4.1354,-4.1713,-4.1541,-4.0958,-4.0857,-4.0883,-4.0983,-4.1084,-4.1134,-4.1134,-4.1235,-4.1285,-4.1232,-4.1333,-4.1634,-4.2062,-4.2062,-4.2283,-4.2891,-4.3288,-4.3539,-4.3664,-4.4091,-4.4317,-4.4317,-4.4292,-4.4317,-4.4292,-4.3865,-4.3639,-4.3614,0.0,0.0,0.0,-4.3462,-4.3653,-4.3899,-4.3899,-4.3899,-4.3955,-4.401,0.0,-4.4652,-4.4678,-4.4939,-4.5407,-4.5395,0.0,0.0,0.0,0.0,0.0,0.0,0.0,0.0,0.0,0.0,0.0,-3.8407,-3.8323,-3.7847,-3.8464,-3.9068,-3.9482,-3.962,-3.9568,-3.9348,-3.9667,-3.9787,-3.9682,-4.0459,-4.1332,-4.2214,-4.3316,-4.4441,-4.5646,-4.6347,-4.6872,-4.7149,-4.7117,-4.6898,-4.663,-4.616,-4.5595,-4.5006,-4.3974,-4.3419,-4.3441,-4.4542,-4.5667,-4.6427,-4.7678,-4.8614,-4.9084,-5.0002,-5.0737,-5.0855,-5.1279,-5.1993,-5.2618,-5.2957,-5.3346,-5.4169,-5.4791,-5.5168,-5.5214,-5.5566,-5.5767,-5.534,-5.5239,-5.5365,-4.2811,-4.2585,-4.2916,-4.266,0.0,-4.2489,-4.2409,-4.2108,-4.1501,-4.1275,-4.1275,-4.1275,-4.1275,-4.13,-4.163,-4.1731,-4.1756,-4.2032,-4.2308,-4.2615,-4.2836,-4.3112,-4.3388,-4.394,-4.4217,-4.4217,-4.4493,-4.4618,-4.4618,-4.4618,-4.4618,-4.4618,-4.4342,-4.4192,-4.4192,-4.394,-4.357,-4.3184,-4.3184,-4.3295,-4.3432,-4.3432,-4.3584,-4.3838,-4.3838,0.0,0.0,0.0,0.0,0.0,0.0,0.0,0.0,-4.4668,0.0,-4.3245,-4.273,-4.2188,-4.1496,-4.1159,-4.0796,-4.0364,-4.0429,-4.0009,-3.8938,-3.9567,-3.9976,-3.9923,-4.0068,-4.007,-3.9756,-4.0008,-4.0166,-4.023,-4.0837,-4.1688,-4.2723,-4.3798,-4.4913,-4.6061,-4.6879,-4.7406,-4.7449,-4.7497,-4.7298,-4.7032,-4.6697,-4.6388,-4.6168,-4.5211,-4.4526,-4.4754,-4.5622,-4.6657,-4.7581,-4.8703,-4.9789,-5.0215,-5.0925,-5.1422,-5.1516,-5.2017,-5.2664,-5.3172,-5.3736,-5.4448,-5.4913,-5.5415,-5.5792,-5.5817,-5.6018,-5.6143,-5.5842,-5.5792,-5.5867,-4.2986,-4.2986,-4.2986,-4.2986,-4.2986,-4.2986,-4.2986,-4.2911,-4.2007,0.0,0.0,-4.163,-4.163,-4.1656,-4.2208,-4.2514,-4.2539,-4.3011,-4.3263,-4.3288,-4.374,-4.394,-4.3966,-4.4518,-4.4769,-4.4769,-4.4869,-4.492,-4.492,-4.492,-4.492,-4.492,-4.4819,-4.4719,-4.4618,-4.4618,-4.4192,-4.3313,-4.3263,-4.3263,-4.3263,-4.3263,-4.3489,-4.394,-4.394,-4.4217,-4.4744,-4.4769,-4.4819,-4.492,-4.492,-4.4869,-4.4794,-4.5001,-4.4976,-4.4644,-4.4269,-4.3977,-4.3708,-4.3176,-4.27,-4.24,-4.2171,-4.1456,-4.0245,-4.0676,-4.0877,-4.0569,-4.0626,-4.0625,-4.0329,-4.0427,-4.0604,-4.0841,-4.1318,-4.2082,-4.323,-4.4365,-4.5533,-4.6448,-4.7364,-4.796,-4.7762,-4.796,-4.7918,-4.7364,-4.7165,-4.7222,-4.7221,-4.6514,-4.5965,-4.6353,-4.707,-4.7744,-4.8675,-4.9686,-5.0516,-5.1114,-5.1656,-5.1915,-5.2133,-5.2734,-5.3267,-5.3661,-5.4599,-5.529,-5.5516,-5.5867,-5.6194,-5.6219,-5.6219,-5.6219,-5.6219,-5.6219,-5.6194,-4.2986,-4.2986,-4.2986,-4.2986,-4.2986,-4.2986,-4.2986,-4.2961,-4.2811,-4.2735,-4.276,-4.276,-4.2735,-4.276,-4.3313,-4.3564,-4.3589,-4.4141,-4.4392,-4.4392,-4.441,-4.4518,-4.4543,-4.5095,-4.5372,-4.5397,-4.5849,-4.6075,-4.6075,-4.605,-4.6075,-4.5999,-4.5598,-4.5121,-4.4669,-4.4618,-4.4543,-4.4392,-4.4392,-4.4392,-4.4392,-4.4392,-4.4443,-4.4493,-4.4518,-4.4794,-4.5347,-4.5372,-4.5598,-4.605,-4.6075,-4.5849,-4.5397,-4.5431,-4.5204,-4.4611,-4.4353,-4.406,-4.3733,-4.333,-4.3033,-4.2784,-4.2806,-4.2479,-4.1633,-4.1714,-4.1754,-4.1489,-4.1524,-4.1524,-4.1203,-4.1119,-4.1187,-4.136,-4.2214,-4.3253,-4.4128,-4.5272,-4.6448,-4.7479,-4.7887,-4.8158,-4.8379,-4.8445,-4.8379,-4.796,-4.7949,-4.8004,-4.8156,-4.7854,-4.7791,-4.823,-4.8887,-4.9568,-5.0011,-5.0913,-5.1439,-5.1632,-5.2005,-5.2456,-5.2878,-5.3333,-5.3944,-5.4892,-5.5193,-5.5566,-5.5942,-5.6143,-5.6219,-5.6219,-5.6219,-5.6219,-5.6219,-5.6219,-5.6219,-4.2986,-4.2986,-4.2986,-4.2986,-4.3011,-4.3288,-4.3413,-4.3463,-4.374,-4.3689,-4.3463,-4.374,-4.3865,-4.389,-4.4141,-4.4242,-4.4267,-4.4518,-4.4618,-4.4644,-4.4945,-4.5095,-4.5146,-4.5673,-4.5949,-4.5949,-4.6175,-4.6326,-4.6326,-4.6326,-4.6326,-4.6301,-4.605,-4.5799,-4.5573,-4.5547,-4.5547,-4.5522,-4.4945,-4.4618,-4.4618,-4.4618,-4.4769,-4.507,-4.507,-4.5347,-4.5899,-4.5924,-4.605,-4.6301,-4.6326,-4.62,-4.5949,-4.5949,-4.5824,-4.5547,-4.5251,-4.5012,-4.4833,-4.4508,-4.4268,-4.4171,-4.4208,-4.4049,-4.3442,-4.3018,-4.2662,-4.2537,-4.2454,-4.2316,-4.2125,-4.1934,-4.2025,-4.2514,-4.3088,-4.3915,-4.516,-4.6014,-4.683,-4.7863,-4.8355,-4.8616,-4.86,-4.8772,-4.8772,-4.8428,-4.8729,-4.9273,-4.9675,-4.9911,-4.9848,-4.9414,-4.9724,-5.0291,-5.0734,-5.1496,-5.2025,-5.2099,-5.2446,-5.2878,-5.3353,-5.3839,-5.4511,-5.5214,-5.5616,-5.5892,-5.6194,-5.6219,-5.6219,-5.6219,-5.6219,-5.6219,-5.6219,-5.6219,-5.6219,-4.3338,-4.3338,-4.3338,-4.3338,-4.3388,-4.3815,-4.3991,-4.4041,-4.4593,-4.4593,-4.4267,-4.4518,-4.4618,-4.4644,-4.4769,-4.4819,-4.4819,-4.4945,-4.4995,-4.5045,-4.5472,-4.5673,-4.5723,-4.6125,-4.6326,-4.6326,-4.6326,-4.6326,-4.6326,-4.6326,-4.6326,-4.6326,-4.6326,-4.6326,-4.6326,-4.6326,-4.6326,-4.625,-4.5447,-4.502,-4.4995,-4.4995,-4.5221,-4.5623,-4.5673,-4.5874,-4.6276,-4.6326,-4.6326,-4.6326,-4.6326,-4.6326,-4.6326,-4.6326,-4.6326,-4.6266,-4.6084,-4.5878,-4.5757,-4.5514,-4.527,-4.527,-4.527,-4.5208,-4.4902,-4.4199,-4.3639,-4.3451,-4.32,-4.3012,-4.2909,-4.2812,-4.302,-4.3607,-4.4015,-4.4742,-4.5972,-4.6669,-4.7278,-4.8084,-4.8682,-4.9007,-4.8902,-4.9072,-4.9147,-4.9068,-4.9749,-5.0493,-5.0936,-5.1452,-5.1264,-5.0754,-5.0636,-5.095,-5.1319,-5.1985,-5.2515,-5.264,-5.2898,-5.3387,-5.3984,-5.4511,-5.4938,-5.5491,-5.5917,-5.6143,-5.6194,-5.6219,-5.6219,-5.6219,-5.6219,-5.6219,-5.6219,-5.6219,-5.6219,-4.4443,-4.4468,-4.4418,-4.4468,-4.4443,-4.4518,-4.4543,-4.4618,-4.5171,-4.5397,-4.5271,-4.4844,-4.4644,-4.4694,-4.5196,-4.5397,-4.5447,-4.5924,-4.6125,-4.61,-4.62,-4.6225,-4.62,-4.6276,-4.6326,-4.6326,-4.6326,-4.6326,-4.6326,-4.6326,-4.6326,-4.6326,-4.6326,-4.6326,-4.6326,-4.6326,-4.6326,-4.6326,-4.62,-4.615,-4.615,-4.615,-4.6175,-4.6225,-4.6225,-4.625,-4.6301,-4.6326,-4.6326,-4.6326,-4.6326,-4.6326,-4.6326,-4.6326,-4.6326,-4.6326,-4.624,-4.612,-4.5817,-4.5514,-4.5331,-4.527,-4.5331,-4.5331,-4.527,-4.5147,-4.4693,-4.4013,-4.374,-4.3576,-4.3349,-4.3662,-4.3967,-4.4243,-4.5208,-4.6043,-4.6383,-4.7202,-4.8043,-4.851,-4.8877,-4.9202,-4.9396,-4.9511,-4.9646,-4.9867,-5.0443,-5.0999,-5.1196,-5.159,-5.2005,-5.204,-5.2184,-5.2184,-5.2253,-5.2579,-5.2992,-5.3437,-5.3632,-5.4034,-5.4737,-5.5164,-5.5465,-5.5842,-5.6118,-5.6194,-5.6219,-5.6219,-5.6219,-5.6219,-5.6219,-5.6219,-5.6219,-5.6244,-5.6269,-4.4618,-4.4618,-4.4618,-4.4618,-4.4644,-4.4995,-4.5121,-4.5196,-4.5748,-4.5974,-4.5949,-4.5723,-4.5623,-4.5648,-4.5874,-4.5974,-4.5999,-4.62,-4.6326,-4.6326,-4.6326,-4.6326,-4.6326,-4.6326,-4.6326,-4.6326,-4.6326,-4.6326,-4.6326,-4.6326,-4.6326,-4.6326,-4.6326,-4.6326,-4.6326,-4.6326,-4.6326,-4.6326,-4.6326,-4.6326,-4.6326,-4.6326,-4.6326,-4.6326,-4.6326,-4.6326,-4.6326,-4.6326,-4.6326,-4.6326,-4.6326,-4.6326,-4.6326,-4.6326,-4.6326,-4.6326,-4.6326,-4.624,-4.612,-4.5939,-4.5878,-4.5878,-4.5878,-4.5817,-4.5635,-4.5574,-4.5331,-4.4816,-4.4508,-4.4443,-4.4631,-4.4681,-4.4912,-4.5572,-4.6333,-4.6889,-4.7292,-4.8077,-4.8747,-4.8902,-4.9202,-4.9461,-4.9576,-4.9891,-5.0378,-5.0997,-5.1469,-5.17,-5.2023,-5.2297,-5.2491,-5.2654,-5.2723,-5.2723,-5.2748,-5.3067,-5.3457,-5.3708,-5.4009,-5.4561,-5.5139,-5.539,-5.5566,-5.6118,-5.6194,-5.6219,-5.6219,-5.6219,-5.6219,-5.6219,-5.6219,-5.6219,-5.6219,-5.647,-5.6646,-4.5095,-4.5095,-4.5095,-4.507,-4.5121,-4.5522,-4.5723,-4.5748,-4.615,-4.6326,-4.6326,-4.6326,-4.6326,-4.6326,-4.6326,-4.6326,-4.6326,-4.6326,-4.6326,-4.6326,-4.6326,-4.6326,-4.6326,-4.6326,-4.6326,-4.6326,-4.6326,-4.6326,-4.6326,-4.6326,-4.6326,-4.6326,-4.6326,-4.6326,-4.6326,-4.6326,-4.6326,-4.6326,-4.6326,-4.6326,-4.6326,-4.6326,-4.6326,-4.6326,-4.6326,-4.6326,-4.6326,-4.6326,-4.6326,-4.6326,-4.6326,-4.6326,-4.6326,-4.6326,-4.6326,-4.6326,-4.6326,-4.6326,-4.6326,-4.6326,-4.6326,-4.6326,-4.6326,-4.618,-4.5999,-4.5939,-4.5892,-4.5797,-4.549,-4.5502,-4.5608,-4.5823,-4.623,-4.6932,-4.7345,-4.7767,-4.8109,-4.8747,-4.9072,-4.9137,-4.9332,-4.969,-4.9891,-5.0444,-5.1247,-5.1875,-5.2226,-5.2528,-5.2955,-5.2961,-5.2911,-5.3105,-5.3155,-5.3155,-5.3155,-5.3406,-5.3733,-5.421,-5.4587,-5.4963,-5.5491,-5.5591,-5.5641,-5.6168,-5.6194,-5.6219,-5.6219,-5.6219,-5.6219,-5.6219,-5.6219,-5.6294,-5.6495,-5.6796,-5.7047,-4.625,-4.62,-4.6225,-4.6175,-4.6225,-4.6225,-4.6276,-4.6225,-4.6301,-4.6326,-4.6326,-4.6326,-4.6326,-4.6326,-4.6326,-4.6326,-4.6326,-4.6326,-4.6326,-4.6326,-4.6326,-4.6326,-4.6326,-4.6326,-4.6326,-4.6326,-4.6326,-4.6326,-4.6326,-4.6326,-4.6326,-4.6326,-4.6351,-4.6326,-4.6326,-4.6326,-4.6326,-4.6326,-4.6326,-4.6326,-4.6326,-4.6326,-4.6326,-4.6326,-4.6326,-4.6326,-4.6326,-4.6326,-4.6326,-4.6326,-4.6326,-4.6326,-4.6326,-4.6326,-4.6326,-4.6326,-4.6326,-4.6326,-4.6326,-4.6351,-4.6351,-4.6351,-4.6426,-4.6351,-4.6416,-4.6416,-4.6531,-4.6932,-4.6699,-4.6501,-4.6352,-4.6939,-4.7504,-4.7725,-4.8191,-4.8551,-4.86,-4.9026,-4.9097,-4.9252,-4.9471,-4.9941,-5.0368,-5.1348,-5.1875,-5.2201,-5.2578,-5.3005,-5.3306,-5.3181,-5.3155,-5.3432,-5.3582,-5.3658,-5.3683,-5.3909,-5.4336,-5.4762,-5.5139,-5.5491,-5.5892,-5.6168,-5.6194,-5.6194,-5.6194,-5.6219,-5.6219,-5.6219,-5.6219,-5.6219,-5.6219,-5.6319,-5.6696,-5.6922,-5.7273,-4.6326,-4.6326,-4.6326,-4.6326,-4.6326,-4.6326,-4.6326,-4.6326,-4.6326,-4.6326,-4.6326,-4.6326,-4.6326,-4.6326,-4.6326,-4.6326,-4.6326,-4.6326,-4.6326,-4.6326,-4.6326,-4.6326,-4.6326,-4.6326,-4.6326,-4.6326,-4.6326,-4.6326,-4.6351,-4.6652,-4.6652,-4.6426,-4.6677,-4.6677,-4.6376,-4.6326,-4.6326,-4.6326,-4.6326,-4.6326,-4.6326,-4.6326,-4.6326,-4.6326,-4.6326,-4.6326,-4.6326,-4.6326,-4.6326,-4.6326,-4.6326,-4.6326,-4.6326,-4.6326,-4.6326,-4.6326,-4.6326,-4.6326,-4.6351,-4.6652,-4.6767,-4.6853,-4.7154,-4.7305,-4.733,-4.733,-4.7431,-4.7631,-4.7921,-4.7908,-4.7857,-4.7838,-4.7952,-4.8346,-4.8944,-4.9397,-4.9562,-5.0024,-5.0413,-5.0022,-5.0052,-5.0469,-5.1247,-5.1875,-5.2226,-5.2578,-5.2804,-5.3005,-5.313,-5.303,-5.3055,-5.3231,-5.3507,-5.3833,-5.4235,-5.4612,-5.4988,-5.529,-5.5616,-5.5842,-5.6168,-5.6219,-5.6194,-5.6194,-5.6219,-5.6219,-5.6219,-5.6219,-5.6219,-5.6219,-5.6219,-5.6545,-5.6922,-5.7298,-5.7775,-4.6326,-4.6326,-4.6326,-4.6326,-4.6326,-4.6326,-4.6326,-4.6326,-4.6326,-4.6326,-4.6301,-4.6386,-4.6421,-4.6301,-4.6446,-4.6386,-4.6326,-4.6326,-4.6326,-4.6326,-4.6326,-4.6326,-4.6326,-4.6446,-4.6522,-4.6758,-4.7081,-4.7157,-4.7182,-4.7388,-4.7363,-4.7086,-4.714,-4.6892,-4.6602,-4.6426,-4.6326,-4.6326,-4.6326,-4.6326,-4.6326,-4.6326,-4.6326,-4.6326,-4.6326,-4.6326,-4.6326,-4.6326,-4.6326,-4.6326,-4.6326,-4.6326,-4.6326,-4.6476,-4.6577,-4.6602,-4.6753,-4.6828,-4.6853,-4.7179,-4.738,-4.738,-4.7682,-4.7908,-4.7908,-4.7908,-4.7983,-4.8209,-4.851,-4.8812,-4.8924,-4.8654,-4.862,-4.9141,-4.9759,-5.0165,-5.034,-5.0888,-5.1046,-5.082,-5.0896,-5.1348,-5.195,-5.2226,-5.2528,-5.2904,-5.2861,-5.2955,-5.313,-5.3181,-5.3281,-5.3457,-5.4009,-5.4436,-5.4813,-5.5214,-5.5491,-5.5767,-5.5817,-5.6093,-5.6219,-5.6219,-5.6219,-5.6219,-5.6219,-5.6219,-5.6219,-5.6219,-5.6219,-5.6244,-5.6495,-5.6821,-5.7298,-5.7801,-5.8278,-4.6326,-4.6301,-4.6326,-4.6326,-4.6301,-4.6301,-4.6326,-4.6326,-4.6361,-4.6421,-4.6481,-4.6661,-4.6661,-4.6506,-4.6661,-4.6601,-4.6421,-4.6421,-4.6361,-4.6386,-4.6361,-4.6361,-4.6421,-4.6686,-4.706,-4.7577,-4.8493,-4.8897,-4.8759,-4.8513,-4.839,-4.8252,-4.7489,-4.7115,-4.7054,-4.6612,-4.6301,-4.6301,-4.6326,-4.6326,-4.6326,-4.6326,-4.6326,-4.6326,-4.6326,-4.6326,-4.6326,-4.6326,-4.6326,-4.6326,-4.6326,-4.6326,-4.6376,-4.6778,-4.7043,-4.7068,-4.7556,-4.7832,-4.7832,-4.7857,-4.7933,-4.7933,-4.7958,-4.8083,-4.8159,-4.8109,-4.8284,-4.8686,-4.8837,-4.9012,-4.9439,-4.945,-4.9611,-5.0228,-5.0403,-5.0679,-5.1147,-5.1297,-5.1322,-5.1398,-5.1674,-5.2051,-5.2226,-5.2528,-5.2854,-5.2836,-5.2861,-5.3055,-5.3356,-5.3432,-5.3858,-5.4336,-5.4612,-5.4838,-5.534,-5.5817,-5.6018,-5.6168,-5.6143,-5.6219,-5.6219,-5.6219,-5.6219,-5.6219,-5.6219,-5.6219,-5.6219,-5.6219,-5.6319,-5.642,-5.6746,-5.7173,-5.7775,-5.8303,-5.873,-4.6626,-4.6626,-4.6361,-4.6326,-4.6301,-4.6566,-4.6626,-4.6661,-4.6815,-4.6934,-4.6934,-4.7053,-4.6993,-4.6993,-4.7053,-4.7053,-4.6909,-4.6934,-4.6815,-4.6721,-4.6815,-4.6934,-4.6934,-4.7053,-4.7394,-4.7982,-4.8692,-4.9035,-4.8974,-4.8887,-4.8646,-4.8202,-4.7962,-4.7475,-4.699,-4.6702,-4.6566,-4.6326,-4.6326,-4.6326,-4.6326,-4.6326,-4.6326,-4.6326,-4.6326,-4.6326,-4.6326,-4.6326,-4.6326,-4.6326,-4.6326,-4.6326,-4.6401,-4.6767,-4.7068,-4.7179,-4.7631,-4.7908,-4.7958,-4.8284,-4.851,-4.856,-4.8812,-4.9038,-4.9063,-4.9038,-4.9113,-4.9314,-4.9339,-4.9439,-4.9565,-4.959,-4.9841,-5.0368,-5.077,-5.1197,-5.1724,-5.185,-5.2051,-5.2302,-5.2226,-5.2277,-5.2578,-5.281,-5.2836,-5.2861,-5.2861,-5.303,-5.3155,-5.3331,-5.3381,-5.3909,-5.4436,-5.5164,-5.5541,-5.5892,-5.6093,-5.6219,-5.6219,-5.6219,-5.6219,-5.6219,-5.6219,-5.6219,-5.6219,-5.6219,-5.6219,-5.6319,-5.6445,-5.6671,-5.6997,-5.7575,-5.8252,-5.873,-5.9081,-4.7078,-4.6959,-4.6695,-4.6636,-4.6636,-4.69,-4.6959,-4.6959,-4.7087,-4.7205,-4.7205,-4.7324,-4.7324,-4.7265,-4.7324,-4.7324,-4.7205,-4.7324,-4.729,-4.7138,-4.7146,-4.7205,-4.7316,-4.7581,-4.7991,-4.8489,-4.9057,-4.9316,-4.9316,-4.9168,-4.8926,-4.8618,-4.824,-4.7863,-4.7265,-4.7061,-4.678,-4.6566,-4.6481,-4.6446,-4.6326,-4.6326,-4.6326,-4.6326,-4.6326,-4.6326,-4.6326,-4.6326,-4.6326,-4.6326,-4.6326,-4.6401,-4.6627,-4.7129,-4.7506,-4.7807,-4.8209,-4.856,-4.856,-4.8887,-4.9063,-4.9138,-4.9389,-4.959,-4.959,-4.959,-4.959,-4.959,-4.959,-4.959,-4.959,-4.959,-4.9941,-5.067,-5.1046,-5.1599,-5.2201,-5.2402,-5.2528,-5.2729,-5.2628,-5.2628,-5.2804,-5.2861,-5.2861,-5.2861,-5.2861,-5.3055,-5.3181,-5.3457,-5.3758,-5.4235,-5.4988,-5.5491,-5.5691,-5.5942,-5.6168,-5.6219,-5.6219,-5.6219,-5.6219,-5.6219,-5.6219,-5.6219,-5.6219,-5.6219,-5.6219,-5.652,-5.6696,-5.6997,-5.7298,-5.8001,-5.8654,-5.893,-5.9257,-4.756,-4.7265,-4.7205,-4.7146,-4.7146,-4.7205,-4.7205,-4.7265,-4.7265,-4.7324,-4.7383,-4.7619,-4.756,-4.7383,-4.7645,-4.756,-4.7383,-4.756,-4.7703,-4.7645,-4.7501,-4.7383,-4.7434,-4.8162,-4.8685,-4.902,-4.9576,-4.9811,-4.9776,-4.9456,-4.9386,-4.9205,-4.8446,-4.8086,-4.7855,-4.7436,-4.7112,-4.684,-4.6806,-4.6601,-4.6386,-4.6301,-4.6326,-4.6326,-4.6326,-4.6326,-4.6326,-4.6326,-4.6326,-4.6326,-4.6326,-4.6552,-4.7018,-4.7606,-4.8083,-4.8586,-4.9238,-4.9439,-4.954,-4.9464,-4.9515,-4.9515,-4.954,-4.959,-4.959,-4.959,-4.959,-4.959,-4.959,-4.959,-4.959,-4.959,-5.0117,-5.1046,-5.1448,-5.1975,-5.2729,-5.2879,-5.281,-5.2836,-5.2861,-5.2861,-5.2929,-5.2861,-5.2861,-5.2861,-5.2861,-5.313,-5.3532,-5.3909,-5.4637,-5.5114,-5.5465,-5.5717,-5.5867,-5.6294,-5.652,-5.657,-5.6545,-5.652,-5.6294,-5.6219,-5.6219,-5.6219,-5.6219,-5.6219,-5.6319,-5.6595,-5.6947,-5.7248,-5.775,-5.8453,-5.8905,-5.9182,-5.9307,-4.7997,-4.788,-4.7383,-4.7205,-4.7265,-4.7442,-4.756,-4.7619,-4.7821,-4.788,-4.7938,-4.8055,-4.7997,-4.7938,-4.7997,-4.7997,-4.7938,-4.7997,-4.8081,-4.8055,-4.7997,-4.7938,-4.8042,-4.8596,-4.9001,-4.9139,-4.9505,-4.9871,-4.9845,-4.9359,-4.9117,-4.915,-4.851,-4.808,-4.7825,-4.7663,-4.7409,-4.7112,-4.69,-4.6806,-4.6626,-4.6421,-4.6301,-4.6326,-4.6326,-4.6351,-4.6326,-4.6326,-4.6326,-4.6326,-4.6326,-4.6577,-4.7129,-4.7657,-4.8209,-4.8786,-4.9289,-4.959,-4.959,-4.959,-4.959,-4.959,-4.959,-4.959,-4.959,-4.959,-4.959,-4.959,-4.959,-4.959,-4.959,-4.9615,-5.0167,-5.1147,-5.1875,-5.2503,-5.2829,-5.2861,-5.2861,-5.2861,-5.2861,-5.2861,-5.2861,-5.2861,-5.2861,-5.2861,-5.2911,-5.3155,-5.3683,-5.3959,-5.4461,-5.5089,-5.5491,-5.5792,-5.6118,-5.657,-5.6846,-5.6972,-5.6997,-5.7022,-5.6646,-5.6244,-5.6219,-5.6219,-5.6219,-5.6219,-5.6394,-5.662,-5.7022,-5.7524,-5.8177,-5.8805,-5.9156,-5.9433,-5.9433,-4.8548,-4.8373,-4.7821,-4.7645,-4.7619,-4.7821,-4.7938,-4.7938,-4.8114,-4.8172,-4.8172,-4.8172,-4.8172,-4.8172,-4.8172,-4.8172,-4.8172,-4.8172,-4.8172,-4.8172,-4.8172,-4.8172,-4.8277,-4.859,-4.8721,-4.8721,-4.9035,-4.9139,-4.9087,-4.8852,-4.8721,-4.8669,-4.8355,-4.8055,-4.799,-4.7938,-4.7762,-4.7442,-4.7231,-4.7078,-4.6806,-4.6601,-4.6597,-4.6577,-4.6677,-4.6728,-4.6928,-4.6979,-4.6803,-4.6502,-4.6527,-4.6903,-4.7431,-4.7958,-4.8535,-4.9088,-4.9439,-4.959,-4.959,-4.959,-4.959,-4.959,-4.959,-4.959,-4.959,-4.959,-4.959,-4.959,-4.959,-4.959,-4.964,-4.9791,-5.0343,-5.1172,-5.2076,-5.2678,-5.2879,-5.2861,-5.2861,-5.2861,-5.2861,-5.2861,-5.2861,-5.2861,-5.2861,-5.2861,-5.2861,-5.3381,-5.3909,-5.4009,-5.4386,-5.5189,-5.5666,-5.5942,-5.6269,-5.6671,-5.7072,-5.7223,-5.7223,-5.7298,-5.6897,-5.6369,-5.6219,-5.6219,-5.6219,-5.6244,-5.6394,-5.6746,-5.7399,-5.7951,-5.8579,-5.9031,-5.9332,-5.9508,-5.9508,-4.901,-4.8721,-4.8373,-4.8172,-4.8172,-4.8172,-4.8172,-4.8172,-4.8172,-4.8172,-4.8172,-4.8172,-4.8172,-4.8172,-4.8172,-4.8172,-4.8172,-4.8172,-4.8172,-4.8172,-4.8172,-4.8172,-4.8198,-4.825,-4.8277,-4.8277,-4.8198,-4.8277,-4.8355,-4.8277,-4.8224,-4.825,-4.8198,-4.8172,-4.8114,-4.8172,-4.8055,-4.7795,-4.7619,-4.7409,-4.713,-4.7027,-4.7101,-4.7101,-4.7179,-4.738,-4.7657,-4.7782,-4.7456,-4.6527,-4.6954,-4.7456,-4.7983,-4.851,-4.8987,-4.9414,-4.9565,-4.959,-4.959,-4.959,-4.959,-4.959,-4.959,-4.959,-4.959,-4.959,-4.959,-4.959,-4.959,-4.959,-4.964,-5.0017,-5.0544,-5.1147,-5.1774,-5.2251,-5.2754,-5.2861,-5.2861,-5.2861,-5.2861,-5.2861,-5.2861,-5.2861,-5.2861,-5.2861,-5.3005,-5.3432,-5.3984,-5.431,-5.4913,-5.5817,-5.6093,-5.6143,-5.6445,-5.6746,-5.7173,-5.7449,-5.7399,-5.7323,-5.6997,-5.6595,-5.6319,-5.6219,-5.6219,-5.6219,-5.6269,-5.6821,-5.7524,-5.8077,-5.8504,-5.9031,-5.9483,-5.9483,-5.9508,-4.927,-4.8952,-4.8405,-4.8172,-4.8172,-4.8172,-4.8172,-4.8172,-4.8172,-4.8172,-4.8172,-4.8172,-4.8172,-4.8172,-4.8172,-4.8172,-4.8172,-4.8172,-4.8172,-4.8172,-4.8172,-4.8172,-4.8172,-4.8172,-4.8172,-4.8172,-4.8172,-4.8172,-4.8172,-4.8172,-4.8172,-4.8172,-4.8172,-4.8172,-4.8172,-4.8172,-4.8172,-4.8055,-4.7821,-4.7645,-4.7571,-4.7667,-4.7707,-4.7658,-4.7705,-4.7782,-4.7883,-4.7908,-4.7782,-4.7657,-4.7732,-4.8058,-4.846,-4.8711,-4.9063,-4.9439,-4.959,-4.959,-4.959,-4.959,-4.959,-4.959,-4.959,-4.959,-4.959,-4.959,-4.959,-4.959,-4.959,-4.959,-4.9615,-4.969,-5.0268,-5.0996,-5.1398,-5.1875,-5.2653,-5.2861,-5.2861,-5.2861,-5.2861,-5.2861,-5.2861,-5.2861,-5.2861,-5.2861,-5.3155,-5.3482,-5.3984,-5.4511,-5.5239,-5.6043,-5.6194,-5.6244,-5.6445,-5.6846,-5.7424,-5.7675,-5.76,-5.7223,-5.6897,-5.6646,-5.6319,-5.6219,-5.6219,-5.6219,-5.6244,-5.6671,-5.7349,-5.7876,-5.8378,-5.883,-5.9207,-5.9307,-5.9483,-4.9526,-4.9068,-4.8606,-4.8373,-4.8172,-4.8172,-4.8172,-4.8172,-4.8172,-4.8172,-4.8172,-4.8172,-4.8172,-4.8172,-4.8172,-4.8172,-4.8172,-4.8172,-4.8172,-4.8172,-4.8172,-4.8172,-4.8172,-4.8172,-4.8172,-4.8172,-4.8172,-4.8172,-4.8172,-4.8172,-4.8172,-4.8172,-4.8172,-4.8172,-4.8172,-4.8172,-4.8172,-4.8172,-4.7997,-4.788,-4.7781,-4.8068,-4.8583,-4.8625,-4.8824,-4.8964,-4.8989,-4.8774,-4.8711,-4.8686,-4.8686,-4.8661,-4.8812,-4.9012,-4.9314,-4.9515,-4.959,-4.959,-4.959,-4.959,-4.959,-4.959,-4.959,-4.959,-4.959,-4.959,-4.959,-4.959,-4.959,-4.959,-4.959,-4.9615,-5.0092,-5.067,-5.1147,-5.1649,-5.2352,-5.2754,-5.2861,-5.2861,-5.2861,-5.2861,-5.2861,-5.2861,-5.2861,-5.2861,-5.2955,-5.3306,-5.411,-5.4662,-5.5214,-5.5817,-5.6093,-5.6294,-5.647,-5.6947,-5.7725,-5.7876,-5.7826,-5.7248,-5.6646,-5.6445,-5.6244,-5.6219,-5.6219,-5.6219,-5.6294,-5.6746,-5.7047,-5.7424,-5.7901,-5.8478,-5.888,-5.8981,-5.9232,-4.967,-4.9068,-4.8779,-4.8489,-4.8257,-4.8172,-4.8172,-4.8172,-4.8172,-4.8172,-4.8172,-4.8172,-4.8172,-4.8172,-4.8289,-4.8289,-4.8347,-4.8347,-4.8405,-4.8405,-4.8405,-4.8405,-4.8373,-4.8315,-4.8257,-4.8172,-4.8172,-4.8172,-4.8172,-4.8172,-4.8172,-4.8172,-4.8172,-4.8172,-4.8172,-4.8172,-4.8172,-4.8172,-4.8172,-4.8055,-4.8035,-4.8436,-4.9196,-4.9842,-4.9926,-4.999,-4.9926,-4.9824,-4.9707,-4.9783,-4.9719,-4.9467,-4.9227,-4.9264,-4.959,-4.959,-4.959,-4.959,-4.959,-4.959,-4.959,-4.959,-4.959,-4.959,-4.959,-4.959,-4.959,-4.959,-4.959,-4.959,-4.959,-4.959,-4.9916,-5.0519,-5.1046,-5.1548,-5.2151,-5.2678,-5.281,-5.2861,-5.2861,-5.2861,-5.2861,-5.2861,-5.2861,-5.2861,-5.2955,-5.3256,-5.4084,-5.4737,-5.5239,-5.5767,-5.6093,-5.6696,-5.6947,-5.7374,-5.8102,-5.7951,-5.7951,-5.7273,-5.657,-5.6344,-5.6219,-5.6219,-5.6219,-5.6219,-5.6269,-5.652,-5.6796,-5.7022,-5.7399,-5.7926,-5.8303,-5.8629,-5.893,-4.9897,-4.9068,-4.8779,-4.8489,-4.823,-4.8172,-4.823,-4.8172,-4.823,-4.8198,-4.8257,-4.8172,-4.823,-4.8315,-4.8548,-4.8721,-4.8895,-4.8895,-4.8868,-4.8895,-4.8895,-4.8837,-4.8606,-4.8606,-4.8489,-4.823,-4.8283,-4.8367,-4.8172,-4.8172,-4.8172,-4.8172,-4.8172,-4.8172,-4.8172,-4.8172,-4.8172,-4.8172,-4.8172,-4.814,-4.8401,-4.915,-5.0019,-5.0632,-5.06,-5.0525,-5.0525,-5.0461,-5.0397,-5.0423,-5.0397,-5.0219,-4.9888,-4.9733,-4.9654,-4.959,-4.959,-4.959,-4.959,-4.959,-4.959,-4.959,-4.959,-4.959,-4.959,-4.959,-4.959,-4.959,-4.959,-4.959,-4.959,-4.959,-5.0117,-5.077,-5.1222,-5.1649,-5.2452,-5.2829,-5.2861,-5.2861,-5.2861,-5.2861,-5.2861,-5.2861,-5.2861,-5.2861,-5.2861,-5.3432,-5.4285,-5.4737,-5.5089,-5.5641,-5.6168,-5.6897,-5.7524,-5.8001,-5.8478,-5.8027,-5.7801,-5.7323,-5.6721,-5.6369,-5.6219,-5.6219,-5.6219,-5.6219,-5.6294,-5.6369,-5.6545,-5.6796,-5.7097,-5.7374,-5.775,-5.8152,-5.8579,-5.0292,-4.9526,-4.9068,-4.8721,-4.8489,-4.8431,-4.8489,-4.8489,-4.8606,-4.8663,-4.8663,-4.8663,-4.8663,-4.8721,-4.8779,-4.9068,-4.9297,-4.9328,-4.9328,-4.9354,-4.9354,-4.9183,-4.8952,-4.8895,-4.8837,-4.8801,-4.8927,-4.8752,-4.8257,-4.8172,-4.8224,-4.8172,-4.8172,-4.8172,-4.8172,-4.8172,-4.8172,-4.8172,-4.8198,-4.8355,-4.8695,-4.9766,-5.0663,-5.1049,-5.1057,-5.0867,-5.0804,-5.0652,-5.0588,-5.0588,-5.0588,-5.0487,-5.0359,-5.0168,-4.9976,-4.9719,-4.959,-4.959,-4.959,-4.959,-4.959,-4.959,-4.959,-4.959,-4.959,-4.959,-4.959,-4.959,-4.959,-4.959,-4.959,-4.959,-5.0017,-5.0645,-5.1096,-5.1674,-5.2302,-5.2729,-5.281,-5.2861,-5.2861,-5.2861,-5.2861,-5.2861,-5.2861,-5.2861,-5.2861,-5.3582,-5.4507,-5.4712,-5.4963,-5.5792,-5.642,-5.7072,-5.7801,-5.8353,-5.8529,-5.8102,-5.775,-5.7273,-5.6746,-5.6319,-5.6219,-5.6219,-5.6219,-5.6118,-5.6219,-5.6269,-5.642,-5.652,-5.662,-5.6821,-5.7273,-5.77,-5.8102,-5.0572,-4.9953,-4.9412,-4.901,-4.8779,-4.8779,-4.8779,-4.8837,-4.9068,-4.9156,-4.924,-4.9297,-4.9297,-4.9297,-4.9412,-4.9583,-4.9897,-4.9953,-5.001,-5.001,-5.001,-4.9783,-4.9469,-4.9546,-4.9626,-4.9645,-4.9956,-4.9669,-4.8916,-4.8793,-4.8682,-4.8734,-4.8571,-4.8355,-4.8407,-4.8277,-4.8224,-4.8172,-4.8198,-4.8512,-4.9322,-5.0237,-5.1047,-5.1518,-5.1346,-5.1183,-5.1183,-5.0968,-5.0905,-5.0842,-5.0842,-5.0778,-5.0715,-5.0715,-5.0397,-4.9912,-4.9719,-4.9654,-4.959,-4.959,-4.959,-4.959,-4.959,-4.959,-4.959,-4.959,-4.959,-4.959,-4.959,-4.959,-4.959,-4.959,-4.9967,-5.0569,-5.1096,-5.1574,-5.2226,-5.2678,-5.281,-5.2861,-5.2861,-5.2861,-5.2861,-5.2861,-5.2861,-5.2861,-5.2861,-5.3532,-5.4285,-5.4511,-5.4938,-5.5968,-5.6721,-5.7298,-5.7951,-5.8554,-5.8504,-5.8052,-5.7775,-5.7424,-5.6821,-5.6219,-5.6219,-5.6194,-5.5942,-5.5867,-5.6018,-5.6043,-5.6018,-5.6018,-5.6043,-5.6269,-5.6721,-5.7148,-5.745,-5.0795,-5.001,-4.967,-4.9354,-4.9125,-4.9125,-4.9068,-4.9125,-4.9442,-4.9556,-4.967,-4.9783,-4.9953,-5.001,-5.0235,-5.0628,-5.0989,-5.1017,-5.11,-5.1211,-5.1155,-5.0933,-5.0541,-5.0921,-5.0971,-5.0963,-5.1161,-5.0671,-5.0137,-5.0141,-5.0029,-4.9923,-4.9317,-4.8982,-4.9049,-4.8643,-4.8198,-4.8224,-4.825,-4.8773,-4.9714,-5.0472,-5.1073,-5.1465,-5.1534,-5.1497,-5.1471,-5.1408,-5.1346,-5.1408,-5.1408,-5.1283,-5.112,-5.1057,-5.0867,-5.055,-5.0232,-4.9937,-4.9719,-4.959,-4.959,-4.959,-4.959,-4.959,-4.959,-4.959,-4.959,-4.959,-4.959,-4.959,-4.9615,-4.964,-5.0167,-5.0745,-5.1272,-5.19,-5.2528,-5.2703,-5.2836,-5.2861,-5.2861,-5.2861,-5.2861,-5.2861,-5.2861,-5.2861,-5.308,-5.3658,-5.426,-5.4637,-5.4988,-5.5993,-5.6796,-5.7399,-5.7801,-5.8478,-5.8428,-5.7951,-5.7675,-5.7424,-5.6771,-5.6219,-5.6219,-5.6118,-5.5842,-5.5541,-5.5491,-5.5491,-5.5491,-5.5591,-5.5691,-5.5917,-5.6194,-5.6595,-5.6948,-5.1649,-5.0962,-5.0348,-5.001,-4.9897,-4.9897,-4.9897,-5.001,-5.0348,-5.0572,-5.0628,-5.0878,-5.1017,-5.1017,-5.1183,-5.1654,-5.2152,-5.2038,-5.2291,-5.2629,-5.2573,-5.2323,-5.2379,-5.2574,-5.2599,-5.2567,-5.2724,-5.2883,-5.2139,-5.1186,-5.0705,-5.0645,-5.0168,-4.9857,-4.9771,-4.9415,-4.9251,-4.927,-4.9505,-4.9897,-5.042,-5.0917,-5.1335,-5.157,-5.1596,-5.1596,-5.1596,-5.1596,-5.1596,-5.1596,-5.1596,-5.1534,-5.1408,-5.1372,-5.122,-5.0931,-5.0741,-5.0423,-5.0001,-4.9719,-4.959,-4.959,-4.959,-4.959,-4.959,-4.959,-4.959,-4.959,-4.959,-4.9615,-4.9715,-4.9891,-5.0469,-5.1046,-5.1523,-5.2101,-5.2653,-5.2804,-5.2861,-5.2861,-5.2861,-5.2861,-5.2861,-5.2861,-5.2886,-5.298,-5.3231,-5.3833,-5.4561,-5.5239,-5.5616,-5.6068,-5.6771,-5.7399,-5.7725,-5.8177,-5.8202,-5.7851,-5.7424,-5.7123,-5.657,-5.6219,-5.6219,-5.6043,-5.5742,-5.544,-5.5089,-5.4938,-5.4963,-5.5164,-5.539,-5.5666,-5.5942,-5.6219,-5.6671,-5.2491,-5.2059,-5.1183,-5.085,-5.0823,-5.0795,-5.085,-5.0906,-5.1293,-5.1513,-5.1623,-5.1869,-5.2089,-5.223,-5.2315,-5.279,-5.3575,-5.312,-5.349,-5.3859,-5.3945,-5.3777,-5.3781,-5.3951,-5.4121,-5.4149,-5.4369,-5.442,-5.3988,-5.3092,-5.2074,-5.1522,-5.0963,-5.0677,-5.0503,-5.0078,-4.974,-4.9766,-5.0315,-5.0629,-5.0838,-5.1282,-5.1518,-5.1596,-5.1596,-5.1596,-5.1596,-5.1596,-5.1596,-5.1596,-5.1596,-5.1596,-5.1534,-5.1534,-5.1471,-5.122,-5.112,-5.0867,-5.0359,-5.004,-4.9719,-4.959,-4.959,-4.959,-4.959,-4.959,-4.959,-4.959,-4.959,-4.9665,-4.9841,-5.0193,-5.0745,-5.1322,-5.185,-5.2352,-5.2779,-5.281,-5.2861,-5.2861,-5.2861,-5.2861,-5.2861,-5.2861,-5.2955,-5.3005,-5.3406,-5.3984,-5.4787,-5.5641,-5.5917,-5.6219,-5.6696,-5.7298,-5.7725,-5.7926,-5.7901,-5.77,-5.7298,-5.6872,-5.6394,-5.6219,-5.6219,-5.5968,-5.5666,-5.5214,-5.4787,-5.4612,-5.4461,-5.4587,-5.4813,-5.534,-5.5717,-5.5993,-5.6394,-5.3083,-5.2947,-5.2059,-5.1732,-5.1677,-5.1732,-5.1677,-5.1677,-5.2004,-5.2167,-5.2275,-5.2548,-5.3052,-5.3394,-5.362,-5.4044,-5.4866,-5.4838,-5.4979,-5.5008,-5.4924,-5.4871,-5.4991,-5.525,-5.5423,-5.5452,-5.5566,-5.5735,-5.5616,-5.4809,-5.4011,-5.3402,-5.2111,-5.1493,-5.1031,-5.0611,-5.0185,-5.0237,-5.0655,-5.0864,-5.0995,-5.1309,-5.1596,-5.1596,-5.1596,-5.1596,-5.1596,-5.1596,-5.1596,-5.1596,-5.1596,-5.1596,-5.1596,-5.1596,-5.1534,-5.1471,-5.1283,-5.1057,-5.0804,-5.0295,-4.9937,-4.9719,-4.959,-4.959,-4.959,-4.959,-4.959,-4.959,-4.959,-4.9841,-5.0117,-5.0494,-5.1021,-5.1624,-5.2101,-5.2452,-5.2779,-5.281,-5.2861,-5.2861,-5.2861,-5.2861,-5.2861,-5.2861,-5.2861,-5.298,-5.3658,-5.426,-5.5089,-5.5842,-5.6043,-5.6294,-5.6646,-5.7173,-5.77,-5.775,-5.7499,-5.7399,-5.7148,-5.6746,-5.6319,-5.6244,-5.6219,-5.5892,-5.5566,-5.5013,-5.4486,-5.416,-5.3959,-5.3959,-5.426,-5.5013,-5.5616,-5.6018,-5.6394,-5.3605,-5.3582,-5.3025,-5.2652,-5.2329,-5.2358,-5.2358,-5.2383,-5.2627,-5.2972,-5.3266,-5.3801,-5.4279,-5.4677,-5.5167,-5.5688,-5.6293,-5.5942,-5.6267,-5.6643,-5.6618,-5.6508,-5.6575,-5.6611,-5.6843,-5.6647,-5.6594,-5.6537,-5.6451,-5.5903,-5.5379,-5.4473,-5.3326,-5.2627,-5.2013,-5.1277,-5.0978,-5.0917,-5.11,-5.1282,-5.1335,-5.1439,-5.1596,-5.1596,-5.1596,-5.1596,-5.1596,-5.1596,-5.1596,-5.1596,-5.1596,-5.1596,-5.1596,-5.1596,-5.1596,-5.1596,-5.1408,-5.1309,-5.1057,-5.0487,-4.9976,-4.9654,-4.959,-4.959,-4.959,-4.959,-4.959,-4.959,-4.964,-4.9916,-5.0318,-5.0745,-5.1297,-5.1925,-5.2377,-5.2653,-5.2804,-5.2836,-5.2861,-5.2861,-5.2861,-5.2861,-5.2861,-5.2861,-5.2861,-5.2936,-5.3783,-5.4561,-5.5415,-5.5968,-5.6118,-5.6219,-5.652,-5.6846,-5.7374,-5.7273,-5.7047,-5.7022,-5.6972,-5.6595,-5.6244,-5.6244,-5.6143,-5.5817,-5.544,-5.4888,-5.431,-5.3708,-5.3507,-5.3632,-5.4185,-5.4938,-5.5465,-5.6018,-5.6319,-5.4023,-5.4023,-5.3815,-5.3448,-5.3001,-5.3054,-5.3025,-5.3078,-5.3343,-5.3803,-5.4345,-5.4838,-5.536,-5.5872,-5.6338,-5.6873,-5.7256,-5.7168,-5.7462,-5.7639,-5.7702,-5.7761,-5.7856,-5.7863,-5.7608,-5.7528,-5.7332,-5.7163,-5.7163,-5.6537,-5.6077,-5.5496,-5.4703,-5.3779,-5.2868,-5.2156,-5.1721,-5.1596,-5.1596,-5.1596,-5.1596,-5.1596,-5.1596,-5.1596,-5.1596,-5.1596,-5.1596,-5.1596,-5.1596,-5.1596,-5.1596,-5.1596,-5.1596,-5.1596,-5.1596,-5.1596,-5.1596,-5.1471,-5.1183,-5.055,-5.004,-4.9783,-4.9654,-4.959,-4.959,-4.959,-4.959,-4.9615,-4.9741,-5.0042,-5.0594,-5.1197,-5.1749,-5.2402,-5.2628,-5.2785,-5.281,-5.2861,-5.2861,-5.2861,-5.2861,-5.2861,-5.3055,-5.313,-5.3507,-5.3658,-5.4336,-5.5064,-5.5717,-5.6118,-5.6168,-5.6219,-5.6269,-5.662,-5.6922,-5.6796,-5.6721,-5.6947,-5.6821,-5.647,-5.6219,-5.6219,-5.6194,-5.5993,-5.5516,-5.4813,-5.421,-5.3658,-5.3457,-5.3381,-5.4084,-5.4863,-5.5641,-5.6143,-5.6168,-5.4304,-5.4304,-5.4252,-5.3942,-5.35,-5.3762,-5.3867,-5.3815,-5.4133,-5.4583,-5.5136,-5.5394,-5.6102,-5.6952,-5.7296,-5.771,-5.8094,-5.8099,-5.8217,-5.8272,-5.8272,-5.8221,-5.8195,-5.8195,-5.814,-5.8085,-5.7863,-5.7669,-5.7669,-5.7163,-5.6709,-5.6222,-5.5468,-5.4612,-5.3592,-5.2553,-5.1934,-5.1659,-5.1659,-5.1596,-5.1596,-5.1596,-5.1596,-5.1596,-5.1596,-5.1596,-5.1596,-5.1596,-5.1596,-5.1596,-5.1596,-5.1596,-5.1596,-5.1596,-5.1596,-5.1596,-5.1596,-5.1596,-5.1471,-5.0614,-5.0232,-5.0104,-4.9912,-4.9783,-4.9654,-4.9654,-4.959,-4.9615,-4.9992,-5.0544,-5.1147,-5.1724,-5.2201,-5.2628,-5.2854,-5.2861,-5.2861,-5.2861,-5.2861,-5.2861,-5.2861,-5.2886,-5.313,-5.3406,-5.3984,-5.4436,-5.4988,-5.5566,-5.6068,-5.6219,-5.6219,-5.6219,-5.6219,-5.6394,-5.662,-5.642,-5.6394,-5.6646,-5.6671,-5.6369,-5.6219,-5.6219,-5.6168,-5.6093,-5.5465,-5.4637,-5.4135,-5.3658,-5.3582,-5.3582,-5.4084,-5.4838,-5.5666,-5.6219,-5.6219,-5.4619,-5.4619,-5.4436,-5.42,-5.4045,-5.4097,-5.4149,-5.4289,-5.4723,-5.5204,-5.5745,-5.645,-5.7179,-5.7767,-5.8267,-5.8565,-5.8714,-5.8828,-5.8773,-5.8773,-5.8773,-5.8664,-5.8609,-5.85,-5.8445,-5.8195,-5.8085,-5.7948,-5.7781,-5.7501,-5.7163,-5.6709,-5.5903,-5.4849,-5.3652,-5.2677,-5.1996,-5.1934,-5.1747,-5.1596,-5.1596,-5.1596,-5.1596,-5.1596,-5.1596,-5.1596,-5.1596,-5.1596,-5.1596,-5.1596,-5.1596,-5.1596,-5.1596,-5.1596,-5.1596,-5.1596,-5.1596,-5.1596,-5.1471,-5.1057,-5.0677,-5.0487,-5.0295,-5.0104,-4.9976,-4.9912,-4.9783,-4.9805,-5.0233,-5.0786,-5.1222,-5.1774,-5.2277,-5.2729,-5.2861,-5.2861,-5.2861,-5.2861,-5.2861,-5.2861,-5.2861,-5.3231,-5.3432,-5.3808,-5.4336,-5.4838,-5.5365,-5.5666,-5.6118,-5.6194,-5.6219,-5.6219,-5.6219,-5.6294,-5.6319,-5.6269,-5.6219,-5.642,-5.6445,-5.6294,-5.6219,-5.6219,-5.5968,-5.5817,-5.5114,-5.4507,-5.3909,-5.3532,-5.3683,-5.3884,-5.431,-5.4963,-5.5842,-5.6219,-5.6219,-5.4955,-5.4875,-5.4692,-5.4611,-5.459,-5.4539,-5.4539,-5.4708,-5.5353,-5.5842,-5.6363,-5.7368,-5.8047,-5.8477,-5.886,-5.9099,-5.9099,-5.9099,-5.9099,-5.9099,-5.9099,-5.8936,-5.8882,-5.8828,-5.8719,-5.85,-5.839,-5.828,-5.8169,-5.7892,-5.7445,-5.6823,-5.6193,-5.5379,-5.4286,-5.341,-5.243,-5.2245,-5.1872,-5.1747,-5.1659,-5.1596,-5.1596,-5.1596,-5.1596,-5.1596,-5.1596,-5.1596,-5.1596,-5.1596,-5.1596,-5.1596,-5.1596,-5.1596,-5.1596,-5.1596,-5.1596,-5.1596,-5.1534,-5.1408,-5.112,-5.0968,-5.0778,-5.055,-5.0295,-5.0295,-5.0168,-5.0217,-5.0594,-5.1099,-5.1605,-5.2161,-5.2725,-5.3179,-5.3067,-5.3067,-5.2929,-5.2929,-5.2861,-5.2861,-5.2911,-5.3331,-5.3833,-5.4285,-5.4737,-5.5214,-5.5691,-5.5942,-5.6143,-5.6168,-5.6219,-5.6219,-5.6219,-5.6269,-5.6269,-5.6244,-5.6219,-5.6219,-5.6219,-5.6219,-5.6219,-5.6194,-5.5867,-5.5465,-5.4888,-5.4285,-5.3632,-5.3356,-5.3557,-5.3934,-5.4411,-5.5164,-5.6043,-5.6219,-5.6219,-5.5179,-5.5209,-5.5209,-5.5179,-5.5158,-5.4964,-5.5015,-5.5299,-5.5957,-5.6585,-5.7184,-5.7849,-5.8447,-5.8979,-5.9099,-5.9099,-5.9099,-5.9099,-5.9099,-5.9099,-5.9099,-5.9075,-5.9045,-5.9045,-5.8991,-5.8936,-5.8828,-5.8609,-5.8609,-5.8059,-5.7501,-5.705,-5.6595,-5.5961,-5.5144,-5.4314,-5.3288,-5.2677,-5.2121,-5.1934,-5.1783,-5.1596,-5.1596,-5.1596,-5.1596,-5.1596,-5.1596,-5.1596,-5.1596,-5.1596,-5.1596,-5.1596,-5.1596,-5.1596,-5.1596,-5.1596,-5.1596,-5.1596,-5.1596,-5.156,-5.1534,-5.1346,-5.1031,-5.0715,-5.0588,-5.0614,-5.055,-5.0819,-5.1201,-5.179,-5.2276,-5.2951,-5.3598,-5.3589,-5.3478,-5.3273,-5.3067,-5.2929,-5.2929,-5.2861,-5.2861,-5.3306,-5.4135,-5.4662,-5.4888,-5.5591,-5.5968,-5.6018,-5.6168,-5.6194,-5.6219,-5.6219,-5.6219,-5.6219,-5.6219,-5.6219,-5.6219,-5.6219,-5.6219,-5.6219,-5.6219,-5.6118,-5.5767,-5.534,-5.4787,-5.416,-5.3406,-5.3256,-5.3457,-5.3909,-5.4486,-5.5164,-5.5968,-5.6168,-5.6219,-5.5209,-5.5209,-5.5209,-5.5209,-5.5269,-5.5637,-5.5816,-5.5987,-5.6555,-5.7184,-5.7842,-5.853,-5.889,-5.9099,-5.9099,-5.9099,-5.9099,-5.9099,-5.9099,-5.9099,-5.9099,-5.9099,-5.9099,-5.9099,-5.9099,-5.9099,-5.8991,-5.8828,-5.8609,-5.8114,-5.7836,-5.7501,-5.705,-5.648,-5.5903,-5.5261,-5.4254,-5.3349,-5.2615,-5.2183,-5.1908,-5.1783,-5.1721,-5.1659,-5.1596,-5.1596,-5.1596,-5.1596,-5.1596,-5.1596,-5.1596,-5.1596,-5.1596,-5.1596,-5.1596,-5.1596,-5.1596,-5.1596,-5.1596,-5.1596,-5.1659,-5.1659,-5.1408,-5.1157,-5.1057,-5.0931,-5.0867,-5.1267,-5.1794,-5.2373,-5.2836,-5.3438,-5.391,-5.3929,-5.3725,-5.3478,-5.3204,-5.2998,-5.2929,-5.2861,-5.2861,-5.3331,-5.4185,-5.4587,-5.4888,-5.5742,-5.6219,-5.6219,-5.6219,-5.6219,-5.6219,-5.6219,-5.6219,-5.6219,-5.6219,-5.6219,-5.6219,-5.6219,-5.6219,-5.6219,-5.6219,-5.6043,-5.5666,-5.5064,-5.4336,-5.3708,-5.3105,-5.313,-5.3306,-5.4009,-5.4612,-5.5265,-5.5817,-5.6043,-5.6219,-5.5209,-5.5209,-5.5209,-5.5329,-5.5628,-5.6068,-5.6406,-5.6944,-5.7363,-5.7782,-5.8171,-5.88,-5.9099,-5.9099,-5.9099,-5.9099,-5.9099,-5.9099,-5.9099,-5.9099,-5.9099,-5.9099,-5.9099,-5.9099,-5.9099,-5.9099,-5.9099,-5.8991,-5.8719,-5.839,-5.8114,-5.7725,-5.7332,-5.6936,-5.6365,-5.5845,-5.5261,-5.4314,-5.341,-5.2738,-5.2306,-5.197,-5.1846,-5.1783,-5.1721,-5.1659,-5.1596,-5.1659,-5.1596,-5.1659,-5.1659,-5.181,-5.1872,-5.1908,-5.2032,-5.2032,-5.2032,-5.2032,-5.2032,-5.2032,-5.2032,-5.197,-5.197,-5.1783,-5.1534,-5.1408,-5.1428,-5.1638,-5.2272,-5.2918,-5.3384,-5.3757,-5.3999,-5.4241,-5.3929,-5.3657,-5.341,-5.3136,-5.2998,-5.2929,-5.3105,-5.3406,-5.3858,-5.4285,-5.4813,-5.5516,-5.6018,-5.6219,-5.6219,-5.6219,-5.6219,-5.6219,-5.6219,-5.6219,-5.6219,-5.6219,-5.6219,-5.6219,-5.6219,-5.6219,-5.6219,-5.6018,-5.5666,-5.4762,-5.3733,-5.3281,-5.2929,-5.3005,-5.3206,-5.3984,-5.4687,-5.5189,-5.5717,-5.6093,-5.6219,-5.5209,-5.5209,-5.5239,-5.5688,-5.6248,-5.6376,-5.7034,-5.8052,-5.8141,-5.8201,-5.8381,-5.883,-5.9099,-5.9099,-5.9099,-5.9099,-5.9099,-5.9099,-5.9099,-5.9099,-5.9099,-5.9099,-5.9099,-5.9099,-5.9099,-5.9099,-5.9099,-5.9099,-5.8991,-5.8719,-5.828,-5.7892,-5.7781,-5.7389,-5.688,-5.6365,-5.5845,-5.5203,-5.4314,-5.3504,-5.2773,-5.243,-5.2121,-5.2121,-5.1908,-5.1721,-5.1721,-5.1721,-5.1659,-5.1783,-5.1934,-5.2121,-5.2306,-5.243,-5.2527,-5.265,-5.265,-5.2677,-5.265,-5.265,-5.2588,-5.2588,-5.2588,-5.243,-5.2121,-5.1783,-5.1779,-5.1929,-5.2516,-5.3114,-5.3583,-5.4192,-5.4567,-5.4469,-5.42,-5.3929,-5.3682,-5.3273,-5.2929,-5.2861,-5.2911,-5.3306,-5.3758,-5.421,-5.4762,-5.5365,-5.5842,-5.6143,-5.6219,-5.6219,-5.6219,-5.6219,-5.6219,-5.6219,-5.6219,-5.6219,-5.6219,-5.6219,-5.6219,-5.6219,-5.6219,-5.5968,-5.5666,-5.4687,-5.3708,-5.3231,-5.2861,-5.2911,-5.3281,-5.4135,-5.4762,-5.5139,-5.5591,-5.6093,-5.6219,-5.5209,-5.5239,-5.5718,-5.6286,-5.6915,-5.7453,-5.7812,-5.8171,-5.868,-5.886,-5.8919,-5.9009,-5.9099,-5.9099,-5.9099,-5.9099,-5.9099,-5.9099,-5.9099,-5.9099,-5.9099,-5.9099,-5.9099,-5.9099,-5.9099,-5.9099,-5.9099,-5.9099,-5.9045,-5.8828,-5.8664,-5.839,-5.8114,-5.7669,-5.7247,-5.6766,-5.6423,-5.5903,-5.5261,-5.4373,-5.3592,-5.2895,-5.2465,-5.2465,-5.2342,-5.228,-5.228,-5.2342,-5.2342,-5.243,-5.2404,-5.2615,-5.2861,-5.2983,-5.3105,-5.3288,-5.341,-5.347,-5.347,-5.341,-5.3349,-5.3105,-5.2983,-5.2799,-5.2492,-5.2183,-5.2118,-5.2297,-5.2668,-5.3243,-5.387,-5.4576,-5.5032,-5.4738,-5.4402,-5.4132,-5.3887,-5.341,-5.2929,-5.2861,-5.2861,-5.3231,-5.3658,-5.4185,-5.4762,-5.5315,-5.5867,-5.6194,-5.6219,-5.6219,-5.6219,-5.6219,-5.6219,-5.6219,-5.6219,-5.6219,-5.6219,-5.6219,-5.6219,-5.6219,-5.6219,-5.5641,-5.5114,-5.4536,-5.3808,-5.3281,-5.2861,-5.2861,-5.3381,-5.4235,-5.4712,-5.5064,-5.5641,-5.6168,-5.6219,-5.5628,-5.5718,-5.6316,-5.6944,-5.7543,-5.7962,-5.8238,-5.859,-5.8949,-5.9099,-5.9099,-5.9099,-5.9099,-5.9099,-5.9099,-5.9099,-5.9099,-5.9099,-5.9099,-5.9099,-5.9099,-5.9099,-5.9099,-5.9099,-5.9099,-5.9099,-5.9099,-5.9099,-5.9045,-5.8991,-5.8828,-5.8664,-5.828,-5.7948,-5.7528,-5.722,-5.688,-5.6423,-5.5961,-5.532,-5.4493,-5.3806,-5.32,-5.3105,-5.2922,-5.2861,-5.2588,-5.2615,-5.2738,-5.2922,-5.3078,-5.3565,-5.3894,-5.4014,-5.4194,-5.4373,-5.4493,-5.4433,-5.4373,-5.4254,-5.4134,-5.3954,-5.38,-5.374,-5.3624,-5.3342,-5.3147,-5.3356,-5.3643,-5.4222,-5.4406,-5.4994,-5.5099,-5.4872,-5.4335,-5.3929,-5.3521,-5.3136,-5.2929,-5.2861,-5.2861,-5.3005,-5.3482,-5.411,-5.4637,-5.4963,-5.5566,-5.6168,-5.6219,-5.6219,-5.6219,-5.6219,-5.6219,-5.6219,-5.6219,-5.6219,-5.6219,-5.6219,-5.6219,-5.6219,-5.6118,-5.5214,-5.4486,-5.4235,-5.3833,-5.3181,-5.2861,-5.2911,-5.3482,-5.431,-5.4662,-5.4913,-5.5591,-5.6219,-5.6219,-5.6256,-5.6496,-5.7004,-5.7633,-5.8201,-5.8261,-5.856,-5.9039,-5.9099,-5.9099,-5.9099,-5.9099,-5.9099,-5.9099,-5.9099,-5.9099,-5.9099,-5.9099,-5.9099,-5.9099,-5.9099,-5.9099,-5.9099,-5.9099,-5.9099,-5.9099,-5.9099,-5.9099,-5.9099,-5.9045,-5.8936,-5.8773,-5.8609,-5.839,-5.7948,-5.7557,-5.7191,-5.6936,-5.6537,-5.6193,-5.5554,-5.4967,-5.4254,-5.3773,-5.347,-5.3166,-5.2983,-5.2922,-5.3044,-5.347,-5.3954,-5.4493,-5.4849,-5.4967,-5.5203,-5.5379,-5.5437,-5.5496,-5.5496,-5.5261,-5.5144,-5.5054,-5.4932,-5.4851,-5.4719,-5.4731,-5.4539,-5.45,-5.4766,-5.4747,-5.4905,-5.5046,-5.5072,-5.4965,-5.4335,-5.3793,-5.3384,-5.2998,-5.2929,-5.2929,-5.2929,-5.2929,-5.3432,-5.4059,-5.4511,-5.4813,-5.529,-5.5817,-5.6219,-5.6219,-5.6219,-5.6219,-5.6219,-5.6219,-5.6219,-5.6219,-5.6219,-5.6219,-5.6219,-5.6219,-5.5993,-5.5164,-5.4612,-5.4386,-5.3909,-5.3155,-5.3005,-5.308,-5.3708,-5.4386,-5.4813,-5.5139,-5.5717,-5.6219,-5.6219,-5.6795,-5.7752,-5.7872,-5.8291,-5.886,-5.889,-5.9009,-5.9099,-5.9099,-5.9099,-5.9099,-5.9099,-5.9099,-5.9099,-5.9099,-5.9099,-5.9099,-5.9099,-5.9099,-5.9099,-5.9099,-5.9099,-5.9099,-5.9099,-5.9099,-5.9099,-5.9099,-5.9099,-5.9099,-5.9099,-5.9099,-5.8991,-5.8803,-5.8639,-5.8529,-5.8059,-5.7669,-5.7389,-5.7107,-5.6766,-5.648,-5.5845,-5.5203,-5.4849,-5.4671,-5.4433,-5.4281,-5.4221,-5.4401,-5.4671,-5.4967,-5.5379,-5.5613,-5.5787,-5.5961,-5.6106,-5.6222,-5.6222,-5.6193,-5.6049,-5.5961,-5.5985,-5.592,-5.6076,-5.6187,-5.6581,-5.6272,-5.5763,-5.5719,-5.4981,-5.4998,-5.5101,-5.5165,-5.4872,-5.4402,-5.3929,-5.3478,-5.3136,-5.2929,-5.2929,-5.2861,-5.3105,-5.3457,-5.4059,-5.4662,-5.5064,-5.5616,-5.6093,-5.6219,-5.6219,-5.6219,-5.6219,-5.6219,-5.6219,-5.6219,-5.6219,-5.6219,-5.6219,-5.6219,-5.6219,-5.5917,-5.5189,-5.4712,-5.4486,-5.3808,-5.2961,-5.303,-5.3155,-5.3783,-5.4436,-5.4988,-5.544,-5.5968,-5.6219,-5.6219]},{"header":{"parameterUnit":"m.s-1","parameterCategory":1,"la1":31.0,"la2":29.5877,"lo1":-88.7671,"lo2":-86.6584,"dx":0.0162,"dy":0.0185,"nx":115,"ny":88,"refTime":"2023-01-02T18:00:00:Z","depth":0,"parameterNumber":3,"parameterNumberName":"V-component_of_WINDS"},"data":[0.0,0.0,0.0,0.0,0.0,0.0,0.0,0.0,0.0,0.0,0.0,0.0,0.0,0.0,0.0,0.0,0.0,0.0,0.0,0.0,0.0,0.0,0.0,0.0,0.0,0.0,0.0,0.0,0.0,0.0,0.0,0.0,0.0,0.0,0.0,0.0,0.0,0.0,0.0,0.0,0.0,0.0,0.0,0.0,0.0,0.0,0.0,0.0,0.0,0.0,0.0,0.0,0.0,0.0,0.0,0.0,0.0,0.0,0.0,0.0,0.0,0.0,0.0,0.0,0.0,0.0,0.0,0.0,0.0,0.0,0.0,0.0,0.0,0.0,0.0,0.0,0.0,0.0,0.0,0.0,0.0,0.0,0.0,0.0,0.0,0.0,0.0,0.0,0.0,0.0,0.0,0.0,0.0,0.0,0.0,0.0,0.0,0.0,0.0,0.0,0.0,0.0,0.0,0.0,0.0,0.0,0.0,0.0,0.0,0.0,0.0,0.0,0.0,0.0,0.0,0.0,0.0,0.0,0.0,0.0,0.0,0.0,0.0,0.0,0.0,0.0,0.0,0.0,0.0,0.0,0.0,0.0,0.0,0.0,0.0,0.0,0.0,0.0,0.0,0.0,0.0,0.0,0.0,0.0,0.0,0.0,0.0,0.0,0.0,0.0,0.0,0.0,0.0,0.0,0.0,0.0,0.0,0.0,0.0,0.0,0.0,0.0,0.0,0.0,0.0,0.0,0.0,0.0,0.0,0.0,0.0,0.0,0.0,0.0,0.0,0.0,0.0,0.0,0.0,0.0,0.0,0.0,0.0,0.0,0.0,0.0,0.0,0.0,0.0,0.0,0.0,0.0,0.0,0.0,0.0,0.0,0.0,0.0,0.0,0.0,0.0,0.0,0.0,0.0,0.0,0.0,0.0,0.0,0.0,0.0,0.0,0.0,0.0,0.0,0.0,0.0,0.0,0.0,0.0,0.0,0.0,0.0,0.0,0.0,0.0,0.0,0.0,0.0,0.0,0.0,0.0,0.0,0.0,0.0,0.0,0.0,0.0,0.0,0.0,0.0,0.0,0.0,0.0,0.0,0.0,0.0,0.0,0.0,0.0,0.0,0.0,0.0,0.0,0.0,0.0,0.0,0.0,0.0,0.0,0.0,0.0,0.0,0.0,0.0,0.0,0.0,0.0,0.0,0.0,0.0,0.0,0.0,0.0,0.0,0.0,0.0,0.0,0.0,0.0,0.0,0.0,0.0,0.0,0.0,0.0,0.0,0.0,0.0,0.0,0.0,0.0,0.0,0.0,0.0,0.0,0.0,0.0,0.0,0.0,0.0,0.0,0.0,0.0,0.0,0.0,0.0,0.0,0.0,0.0,0.0,0.0,0.0,0.0,0.0,0.0,0.0,0.0,0.0,0.0,0.0,0.0,0.0,0.0,0.0,0.0,0.0,0.0,0.0,0.0,0.0,0.0,0.0,0.0,0.0,0.0,0.0,0.0,0.0,0.0,0.0,0.0,0.0,0.0,0.0,0.0,0.0,0.0,0.0,0.0,0.0,0.0,0.0,0.0,0.0,0.0,0.0,0.0,0.0,0.0,0.0,0.0,0.0,0.0,0.0,0.0,0.0,0.0,0.0,0.0,0.0,0.0,0.0,0.0,0.0,0.0,0.0,0.0,0.0,0.0,0.0,0.0,0.0,0.0,0.0,0.0,0.0,0.0,0.0,0.0,0.0,0.0,0.0,0.0,0.0,0.0,0.0,0.0,0.0,0.0,0.0,0.0,0.0,0.0,0.0,0.0,0.0,0.0,0.0,0.0,0.0,0.0,0.0,0.0,0.0,0.0,0.0,0.0,0.0,0.0,0.0,0.0,0.0,0.0,0.0,0.0,0.0,0.0,0.0,0.0,0.0,0.0,0.0,0.0,0.0,0.0,0.0,0.0,0.0,0.0,0.0,0.0,0.0,0.0,0.0,0.0,0.0,0.0,0.0,0.0,0.0,0.0,0.0,0.0,0.0,0.0,0.0,0.0,0.0,0.0,0.0,0.0,0.0,0.0,0.0,0.0,0.0,0.0,0.0,0.0,0.0,0.0,0.0,0.0,0.0,0.0,0.0,0.0,0.0,0.0,0.0,0.0,0.0,0.0,0.0,0.0,0.0,0.0,0.0,0.0,0.0,0.0,0.0,0.0,0.0,0.0,0.0,0.0,0.0,0.0,0.0,0.0,0.0,0.0,0.0,0.0,0.0,0.0,0.0,0.0,0.0,0.0,0.0,0.0,0.0,0.0,0.0,0.0,0.0,0.0,0.0,0.0,0.0,0.0,0.0,0.0,0.0,0.0,0.0,0.0,0.0,0.0,0.0,0.0,0.0,0.0,0.0,0.0,0.0,0.0,0.0,0.0,0.0,0.0,0.0,0.0,0.0,0.0,0.0,0.0,0.0,0.0,0.0,0.0,0.0,0.0,0.0,0.0,0.0,0.0,0.0,0.0,0.0,0.0,0.0,0.0,0.0,0.0,0.0,0.0,0.0,0.0,0.0,0.0,0.0,0.0,0.0,0.0,0.0,0.0,0.0,0.0,0.0,0.0,0.0,0.0,0.0,0.0,0.0,0.0,0.0,0.0,0.0,0.0,0.0,0.0,0.0,0.0,0.0,0.0,0.0,0.0,0.0,0.0,0.0,0.0,0.0,0.0,0.0,0.0,0.0,0.0,0.0,0.0,0.0,0.0,0.0,0.0,0.0,0.0,0.0,0.0,0.0,0.0,0.0,0.0,0.0,0.0,0.0,0.0,0.0,0.0,0.0,0.0,0.0,0.0,0.0,0.0,0.0,0.0,0.0,0.0,0.0,0.0,0.0,0.0,0.0,0.0,0.0,0.0,0.0,0.0,0.0,0.0,0.0,0.0,0.0,0.0,0.0,0.0,0.0,0.0,0.0,0.0,0.0,0.0,0.0,0.0,0.0,0.0,0.0,0.0,0.0,0.0,0.0,0.0,0.0,0.0,0.0,0.0,0.0,0.0,0.0,0.0,0.0,0.0,0.0,0.0,0.0,0.0,0.0,0.0,0.0,0.0,0.0,0.0,0.0,0.0,0.0,0.0,0.0,0.0,0.0,0.0,0.0,0.0,0.0,0.0,0.0,0.0,0.0,0.0,0.0,0.0,0.0,0.0,0.0,0.0,0.0,0.0,0.0,0.0,0.0,0.0,0.0,0.0,0.0,0.0,0.0,0.0,0.0,0.0,0.0,0.0,0.0,0.0,0.0,0.0,0.0,0.0,0.0,0.0,0.0,0.0,0.0,0.0,0.0,0.0,0.0,0.0,0.0,0.0,0.0,0.0,0.0,0.0,0.0,0.0,0.0,0.0,0.0,0.0,0.0,0.0,0.0,0.0,0.0,0.0,0.0,0.0,0.0,0.0,0.0,0.0,0.0,0.0,0.0,0.0,0.0,0.0,0.0,0.0,0.0,0.0,0.0,0.0,0.0,0.0,0.0,0.0,0.0,0.0,0.0,0.0,0.0,0.0,0.0,0.0,0.0,0.0,0.0,0.0,0.0,0.0,0.0,0.0,0.0,0.0,0.0,0.0,0.0,0.0,0.0,0.0,0.0,0.0,0.0,0.0,0.0,0.0,0.0,0.0,0.0,0.0,0.0,0.0,0.0,0.0,0.0,0.0,0.0,0.0,0.0,0.0,0.0,0.0,0.0,0.0,0.0,0.0,0.0,0.0,0.0,0.0,0.0,0.0,0.0,0.0,0.0,0.0,0.0,0.0,0.0,0.0,0.0,0.0,0.0,0.0,0.0,0.0,0.0,0.0,0.0,0.0,0.0,0.0,0.0,0.0,0.0,0.0,0.0,0.0,0.0,0.0,0.0,0.0,0.0,0.0,0.0,0.0,0.0,0.0,0.0,0.0,0.0,0.0,0.0,0.0,0.0,0.0,0.0,0.0,0.0,0.0,0.0,0.0,0.0,0.0,0.0,0.0,0.0,0.0,0.0,0.0,0.0,0.0,0.0,0.0,0.0,0.0,0.0,0.0,0.0,0.0,0.0,0.0,0.0,0.0,0.0,0.0,0.0,0.0,0.0,0.0,0.0,0.0,0.0,0.0,0.0,0.0,0.0,0.0,0.0,0.0,0.0,0.0,0.0,0.0,0.0,0.0,0.0,0.0,0.0,0.0,0.0,0.0,0.0,0.0,0.0,0.0,0.0,0.0,0.0,0.0,0.0,0.0,0.0,0.0,0.0,0.0,0.0,0.0,0.0,1.0694,0.0,0.0,0.0,1.1628,0.0,0.0,0.0,0.0,0.0,0.0,0.0,0.0,0.0,0.0,0.0,0.0,0.0,0.0,0.0,0.0,0.0,0.0,0.0,0.0,0.0,0.0,0.0,0.0,0.0,0.0,0.0,0.0,0.0,0.0,0.0,0.0,0.0,0.0,0.0,0.0,0.0,0.0,0.0,0.0,0.0,0.0,0.0,0.0,0.0,0.0,0.0,0.0,0.0,0.0,0.0,0.0,0.0,0.0,0.0,0.0,0.0,0.0,0.0,0.0,0.0,0.0,0.0,0.0,0.0,0.0,0.0,0.0,0.0,0.0,0.0,0.0,0.0,0.0,0.0,0.0,0.0,0.0,0.0,0.0,0.0,0.0,0.0,0.0,0.0,0.0,0.0,0.0,0.0,0.0,0.0,0.0,0.0,0.0,0.0,0.0,0.0,0.0,0.0,0.0,0.0,0.0,0.0,0.0,0.0,0.0,0.0,0.0,0.0,0.0,1.0644,1.1109,1.0834,1.1079,1.1854,0.0,0.0,0.0,0.0,0.0,0.0,0.0,0.0,0.0,0.0,0.0,0.0,0.0,0.0,0.0,0.0,0.0,0.0,0.0,0.0,0.0,0.0,0.0,0.0,0.0,0.0,0.0,0.0,0.0,0.0,0.0,0.0,0.0,0.0,0.0,0.0,0.0,0.0,0.0,0.0,0.0,0.0,0.0,0.0,0.0,0.0,0.0,0.0,0.0,0.0,0.0,0.0,0.0,0.0,0.0,0.0,0.0,0.0,0.0,0.0,0.0,0.0,0.0,0.0,0.0,0.0,0.0,0.0,0.0,0.0,0.0,0.0,0.0,0.0,0.0,0.0,0.0,0.0,0.0,0.0,0.0,0.0,0.0,0.0,0.0,0.0,0.0,0.0,0.0,0.0,0.0,0.0,0.0,0.0,0.0,0.0,0.0,0.0,0.0,0.0,0.0,0.0,0.0,0.0,0.0,0.0,0.0,0.0,0.0,0.0,0.0,0.0,1.1062,1.1337,1.229,0.0,0.0,0.0,0.0,0.0,0.0,0.0,0.0,0.0,0.0,0.0,0.0,0.0,0.0,0.0,0.0,0.0,0.0,0.0,0.0,0.0,0.0,0.0,0.0,0.0,0.0,0.0,0.0,0.0,0.0,0.0,0.0,0.0,0.0,0.0,0.0,0.0,0.0,0.0,0.0,0.0,0.0,0.0,0.0,0.0,0.0,0.0,0.0,0.0,0.0,0.0,0.0,0.0,0.0,0.0,0.0,0.0,0.0,0.0,0.0,0.0,0.0,0.0,0.0,0.0,0.0,0.0,0.0,0.0,0.0,0.0,0.0,0.0,0.0,0.0,0.0,0.0,0.0,0.0,0.0,0.0,0.0,0.0,0.0,0.0,0.0,0.0,0.0,0.0,0.0,0.0,0.0,0.0,0.0,0.0,0.0,0.0,0.0,0.0,0.0,0.0,0.0,0.0,0.0,0.0,0.0,0.0,0.0,0.0,0.0,1.091,1.1614,1.1441,0.0,1.3248,0.0,0.0,0.0,0.0,0.0,0.0,0.0,0.0,0.0,0.0,0.0,0.0,0.0,0.0,0.0,0.0,0.0,0.0,0.0,0.0,0.0,0.0,0.0,0.0,0.0,0.0,0.0,0.0,0.0,0.0,0.0,0.0,0.0,0.0,0.0,0.0,0.0,0.0,0.0,0.0,0.0,0.0,0.0,0.0,0.0,0.0,0.0,0.0,0.0,0.0,0.0,0.0,0.0,0.0,0.0,0.0,0.0,0.0,0.0,0.0,0.0,0.0,0.0,0.0,0.0,0.0,0.0,0.0,0.0,0.0,0.0,0.0,0.0,0.0,0.0,0.0,0.0,0.0,0.0,0.0,0.0,0.0,0.0,0.0,0.0,0.0,0.0,0.0,0.0,0.0,0.0,0.0,0.0,0.0,0.0,0.0,0.0,0.0,0.0,0.0,0.0,0.0,0.0,0.0,0.0,0.0,0.0,0.0,0.0,0.0,1.1136,1.1671,1.2002,1.258,0.0,0.0,0.0,0.0,0.0,0.0,0.0,0.0,0.0,0.0,0.0,0.0,0.0,0.0,0.0,0.0,0.0,0.0,0.0,0.0,0.0,0.0,0.0,0.0,0.0,0.0,0.0,0.0,0.0,0.0,0.0,0.0,0.0,0.0,0.0,0.0,0.0,0.0,0.0,0.0,0.0,0.0,0.0,0.0,0.0,0.0,0.0,0.0,0.0,0.0,0.0,0.0,0.0,0.0,0.0,0.0,0.0,0.0,0.0,0.0,0.0,0.0,0.0,0.0,0.0,0.0,0.0,0.0,0.0,0.0,0.0,0.0,0.0,0.0,0.0,0.0,0.0,0.0,0.0,0.0,0.0,0.0,0.0,0.0,0.0,0.0,0.0,0.0,0.0,0.0,0.0,0.0,0.0,0.0,0.0,0.0,0.0,0.0,0.0,0.0,0.0,0.0,0.0,0.0,0.0,0.0,0.0,0.0,0.0,0.0,1.1468,1.1407,1.1879,1.2507,1.3061,1.3592,0.0,0.0,0.0,0.0,0.0,0.0,0.0,0.0,0.0,0.0,0.0,0.0,0.0,0.0,0.0,0.0,0.0,0.0,0.0,0.0,0.0,0.0,0.0,0.0,0.0,0.0,0.0,0.0,0.0,0.0,0.0,0.0,0.0,0.0,0.0,0.0,0.0,0.0,0.0,0.0,0.0,0.0,0.0,0.0,0.0,0.0,0.0,0.0,0.0,0.0,0.0,0.0,0.0,0.0,0.0,0.0,0.0,0.0,0.0,0.0,0.0,0.0,0.0,0.0,0.0,0.0,0.0,0.0,0.0,0.0,0.0,0.0,0.0,0.0,0.0,0.0,0.0,0.0,0.0,0.0,0.0,0.0,0.0,0.0,0.0,0.0,0.0,0.0,0.0,0.0,0.0,0.0,0.0,0.0,0.0,0.0,0.0,0.0,0.0,0.0,0.0,0.0,0.0,0.0,0.0,0.0,0.0,0.0,1.2632,1.2036,1.1901,1.238,1.2905,1.3375,0.0,0.0,0.0,0.0,0.0,0.0,0.0,0.0,0.0,0.0,0.0,0.0,0.0,0.0,0.0,0.0,0.0,0.0,0.0,0.0,0.0,0.0,0.0,0.0,0.0,0.0,0.0,0.0,0.0,0.0,0.0,0.0,0.0,0.0,0.0,0.0,0.0,0.0,0.0,0.0,0.0,0.0,0.0,0.0,0.0,0.0,0.0,0.0,0.0,0.0,0.0,0.0,0.0,0.0,0.0,0.0,0.0,0.0,0.0,0.0,0.0,0.0,0.0,0.0,0.0,0.0,0.0,0.0,0.0,0.0,0.0,0.0,0.0,0.0,0.0,0.0,0.0,0.0,0.0,0.0,0.0,0.0,0.0,0.0,0.0,0.0,0.0,0.0,0.0,0.0,0.0,0.0,0.0,0.0,0.0,0.0,0.0,0.0,0.0,0.0,0.0,0.0,0.0,0.0,0.0,0.0,0.0,0.0,0.0,1.293,1.2768,1.2995,1.3609,1.36,1.3775,0.0,0.0,0.0,0.0,0.0,0.0,0.0,0.0,0.0,0.0,0.0,0.0,0.0,0.0,0.0,0.0,0.0,0.0,0.0,0.0,0.0,0.0,0.0,0.0,0.0,0.0,0.0,0.0,0.0,0.0,0.0,0.0,0.0,0.0,0.0,0.0,0.0,0.0,0.0,0.0,0.0,0.0,0.0,0.0,0.0,0.0,0.0,0.0,0.0,0.0,0.0,0.0,0.0,0.0,0.0,0.0,0.0,0.0,0.0,0.0,0.0,0.0,0.0,0.0,0.0,0.0,0.0,0.0,0.0,0.0,0.0,0.0,0.0,0.0,0.0,0.0,0.0,0.0,0.0,0.0,0.0,0.0,0.0,0.0,0.0,0.0,0.0,0.0,0.0,0.0,0.0,0.0,0.0,0.0,0.0,0.0,0.0,0.0,0.0,0.0,0.0,0.0,0.0,0.0,0.0,0.0,0.0,0.0,0.0,1.3495,1.3649,1.3908,1.4289,1.4247,1.4282,0.0,0.0,0.0,0.0,0.0,0.0,0.0,0.0,0.0,0.0,0.0,0.0,0.0,0.0,0.0,0.0,0.0,0.0,0.0,0.0,0.0,0.0,0.0,0.0,0.0,0.0,0.0,0.0,0.0,0.0,0.0,0.0,0.0,0.0,0.0,0.0,0.0,0.0,0.0,0.0,0.0,0.0,0.0,0.0,0.0,0.0,0.0,0.0,0.0,0.0,0.0,0.0,0.0,0.0,0.0,0.0,0.0,0.0,0.0,0.0,0.0,0.0,0.0,0.0,0.0,0.0,0.0,0.0,0.0,0.0,0.0,0.0,0.0,0.0,0.0,0.0,0.0,0.0,0.0,0.0,0.0,0.0,0.0,0.0,0.0,0.0,0.0,0.0,0.0,0.0,0.0,0.0,0.0,0.0,0.0,0.0,0.0,0.0,0.0,0.0,0.0,0.0,0.0,0.0,0.0,0.0,0.0,0.0,1.4289,1.4364,1.4643,1.468,1.4364,1.4816,1.4851,0.0,0.0,0.0,0.0,0.0,0.0,0.0,0.0,0.0,0.0,0.0,0.0,0.0,0.0,0.0,0.0,0.0,0.0,0.0,0.0,0.0,0.0,0.0,0.0,0.0,0.0,0.0,0.0,0.0,0.0,0.0,0.0,0.0,0.0,0.0,0.0,0.0,0.0,0.0,0.0,0.0,0.0,0.0,0.0,0.0,0.0,0.0,0.0,0.0,0.0,0.0,0.0,0.0,0.0,0.0,0.0,0.0,0.0,0.0,0.0,0.0,0.0,0.0,0.0,0.0,0.0,0.0,0.0,0.0,0.0,0.0,0.0,0.0,0.0,0.0,0.0,0.0,0.0,0.0,0.0,0.0,0.0,0.0,0.0,0.0,0.0,0.0,0.0,0.0,0.0,0.0,0.0,0.0,0.0,0.0,0.0,0.0,0.0,0.0,0.0,0.0,0.0,0.0,0.0,0.0,0.0,0.0,0.0,0.0,1.5884,1.6075,1.6234,1.6312,1.5997,1.5836,0.0,0.0,0.0,0.0,0.0,0.0,0.0,0.0,0.0,0.0,0.0,0.0,0.0,0.0,0.0,0.0,0.0,0.0,0.0,0.0,0.0,0.0,0.0,0.0,0.0,0.0,0.0,0.0,0.0,0.0,0.0,0.0,0.0,0.0,0.0,0.0,0.0,0.0,0.0,0.0,0.0,0.0,0.0,0.0,0.0,0.0,0.0,0.0,0.0,0.0,0.0,0.0,0.0,0.0,0.0,0.0,0.0,0.0,0.0,0.0,0.0,0.0,0.0,0.0,0.0,0.0,0.0,0.0,0.0,0.0,0.0,0.0,0.0,0.0,0.0,0.0,0.0,0.0,0.0,0.0,0.0,0.0,0.0,0.0,0.0,0.0,0.0,0.0,0.0,0.0,0.0,0.0,0.0,0.0,0.0,0.0,0.0,0.0,0.0,0.0,0.0,0.0,0.0,0.0,0.0,0.0,0.0,0.0,0.0,1.7932,1.7821,1.7773,1.7893,1.7301,1.7008,1.7115,0.0,0.0,0.0,0.0,0.0,0.0,0.0,0.0,0.0,0.0,0.0,0.0,0.0,0.0,0.0,0.0,0.0,0.0,0.0,0.0,0.0,0.0,0.0,0.0,0.0,0.0,0.0,0.0,0.0,0.0,0.0,0.0,0.0,0.0,0.0,0.0,0.0,0.0,0.0,0.0,0.0,0.0,0.0,0.0,0.0,0.0,0.0,0.0,0.0,0.0,0.0,0.0,0.0,0.0,0.0,0.0,0.0,0.0,0.0,0.0,0.0,0.0,0.0,0.0,0.0,0.0,0.0,0.0,0.0,0.0,0.0,0.0,0.0,0.0,0.0,0.0,0.0,0.0,0.0,0.0,0.0,0.0,0.0,0.0,0.0,0.0,0.0,0.0,0.0,0.0,0.0,0.0,0.0,0.0,0.0,0.0,0.0,0.0,0.0,0.0,0.0,0.0,0.0,0.0,0.0,0.0,0.0,0.0,2.0162,1.9783,1.9453,1.9099,1.8658,1.84,0.0,0.0,0.0,0.0,0.0,0.0,0.0,0.0,0.0,0.0,0.0,0.0,0.0,0.0,0.0,0.0,0.0,0.0,0.0,0.0,0.0,0.0,0.0,0.0,0.0,0.0,0.0,0.0,0.0,0.0,0.0,0.0,0.0,0.0,0.0,0.0,0.0,0.0,0.0,0.0,0.0,0.0,0.0,0.0,0.0,0.0,0.0,0.0,0.0,0.0,0.0,0.0,0.0,0.0,0.0,0.0,0.0,0.0,0.0,0.0,0.0,0.0,0.0,0.0,0.0,0.0,0.0,0.0,0.0,0.0,0.0,0.0,0.0,0.0,0.0,0.0,0.0,0.0,0.0,0.0,0.0,0.0,0.0,0.0,0.0,0.0,0.0,0.0,0.0,0.0,0.0,0.0,0.0,0.0,0.0,0.0,0.0,0.0,0.0,0.0,0.0,0.0,0.0,0.0,0.0,0.0,0.0,0.0,0.0,2.12,2.1572,2.14,2.0593,2.0257,1.9811,0.0,0.0,0.0,0.0,0.0,0.0,0.0,0.0,0.0,0.0,0.0,0.0,0.0,0.0,0.0,0.0,0.0,0.0,0.0,0.0,0.0,0.0,0.0,0.0,0.0,0.0,0.0,0.0,0.0,0.0,0.0,0.0,0.0,0.0,0.0,0.0,0.0,0.0,0.0,0.0,0.0,0.0,0.0,0.0,0.0,0.0,0.0,0.0,0.0,0.0,0.0,0.0,0.0,0.0,0.0,0.0,0.0,0.0,0.0,0.0,0.0,0.0,0.0,0.0,0.0,0.0,0.0,0.0,0.0,0.0,0.0,0.0,0.0,0.0,0.0,0.0,0.0,0.0,0.0,0.0,0.0,0.0,0.0,0.0,0.0,0.0,0.0,0.0,0.0,0.0,0.0,0.0,0.0,0.0,0.0,0.0,0.0,0.0,0.0,0.0,0.0,0.0,0.0,0.0,0.0,0.0,0.0,0.0,2.1573,2.2426,2.3054,2.3207,2.2735,2.1881,2.107,0.0,0.0,0.0,0.0,0.0,0.0,0.0,0.0,0.0,0.0,0.0,0.0,0.0,0.0,0.0,0.0,0.0,0.0,0.0,0.0,0.0,0.0,0.0,0.0,0.0,0.0,0.0,0.0,0.0,0.0,0.0,0.0,0.0,0.0,0.0,0.0,0.0,0.0,0.0,0.0,0.0,0.0,0.0,0.0,0.0,0.0,0.0,0.0,0.0,0.0,0.0,0.0,0.0,0.0,0.0,0.0,0.0,0.0,0.0,0.0,0.0,0.0,0.0,0.0,0.0,0.0,0.0,0.0,0.0,0.0,0.0,0.0,0.0,0.0,0.0,0.0,0.0,0.0,0.0,0.0,0.0,0.0,0.0,0.0,0.0,0.0,0.0,0.0,0.0,0.0,0.0,0.0,0.0,0.0,0.0,0.0,0.0,0.0,0.0,0.0,0.0,0.0,0.0,0.0,0.0,0.0,0.0,0.0,2.2699,2.3739,2.439,2.4842,2.5036,2.3508,2.2388,0.0,0.0,0.0,0.0,0.0,0.0,0.0,0.0,0.0,0.0,0.0,0.0,0.0,0.0,0.0,0.0,0.0,0.0,0.0,0.0,0.0,0.0,0.0,0.0,0.0,0.0,0.0,0.0,0.0,0.0,0.0,0.0,0.0,0.0,0.0,0.0,0.0,0.0,0.0,0.0,0.0,0.0,0.0,0.0,0.0,0.0,0.0,0.0,0.0,0.0,0.0,0.0,0.0,0.0,0.0,0.0,0.0,0.0,0.0,0.0,0.0,0.0,0.0,0.0,0.0,0.0,0.0,0.0,0.0,0.0,0.0,0.0,0.0,0.0,0.0,0.0,0.0,0.0,0.0,0.0,0.0,0.0,0.0,0.0,0.0,0.0,0.0,0.0,0.0,0.0,0.0,0.0,0.0,0.0,0.0,0.0,0.0,0.0,0.0,0.0,0.0,0.0,0.0,0.0,0.0,0.0,0.0,0.0,2.4144,2.5422,2.5812,2.6151,2.6439,2.5105,2.3859,0.0,0.0,0.0,0.0,0.0,0.0,0.0,0.0,0.0,0.0,0.0,0.0,0.0,0.0,0.0,0.0,0.0,0.0,0.0,0.0,0.0,0.0,0.0,0.0,0.0,0.0,0.0,0.0,0.0,0.0,0.0,0.0,0.0,0.0,0.0,0.0,0.0,0.0,0.0,0.0,0.0,0.0,0.0,0.0,0.0,0.0,0.0,0.0,3.0309,0.0,0.0,0.0,0.0,0.0,0.0,0.0,0.0,0.0,0.0,0.0,0.0,0.0,0.0,0.0,0.0,0.0,0.0,0.0,0.0,0.0,0.0,0.0,0.0,0.0,0.0,0.0,0.0,0.0,0.0,0.0,0.0,0.0,0.0,0.0,0.0,0.0,0.0,0.0,0.0,0.0,0.0,0.0,0.0,0.0,0.0,0.0,0.0,0.0,0.0,0.0,0.0,0.0,0.0,0.0,0.0,0.0,0.0,0.0,2.5357,2.6411,2.7186,2.7701,2.777,2.7075,2.5836,0.0,0.0,0.0,0.0,0.0,0.0,0.0,0.0,0.0,0.0,0.0,0.0,0.0,0.0,0.0,0.0,0.0,0.0,0.0,0.0,0.0,0.0,0.0,0.0,0.0,0.0,0.0,0.0,0.0,0.0,0.0,0.0,0.0,0.0,0.0,0.0,0.0,0.0,0.0,0.0,0.0,0.0,0.0,0.0,0.0,0.0,0.0,0.0,0.0,0.0,0.0,0.0,0.0,0.0,0.0,0.0,0.0,0.0,0.0,0.0,0.0,0.0,0.0,0.0,0.0,0.0,0.0,0.0,0.0,0.0,0.0,0.0,0.0,0.0,0.0,0.0,0.0,0.0,0.0,0.0,0.0,0.0,0.0,0.0,0.0,0.0,0.0,0.0,0.0,0.0,0.0,0.0,0.0,0.0,0.0,0.0,0.0,0.0,0.0,0.0,0.0,0.0,0.0,0.0,0.0,0.0,0.0,2.5023,2.6475,2.7283,2.8513,2.9087,2.9044,2.8971,2.7771,2.534,0.0,0.0,0.0,0.0,0.0,0.0,0.0,0.0,0.0,0.0,0.0,0.0,0.0,0.0,0.0,0.0,0.0,0.0,0.0,0.0,0.0,0.0,0.0,0.0,0.0,0.0,0.0,0.0,0.0,0.0,0.0,0.0,0.0,0.0,0.0,0.0,0.0,0.0,3.1125,3.2659,0.0,0.0,0.0,0.0,0.0,0.0,0.0,0.0,3.4786,0.0,0.0,0.0,0.0,0.0,0.0,0.0,0.0,0.0,0.0,0.0,0.0,0.0,0.0,0.0,0.0,0.0,0.0,0.0,0.0,0.0,0.0,0.0,0.0,0.0,0.0,0.0,0.0,0.0,0.0,0.0,0.0,0.0,0.0,0.0,0.0,0.0,0.0,0.0,0.0,0.0,0.0,0.0,0.0,0.0,0.0,0.0,0.0,0.0,0.0,0.0,0.0,0.0,0.0,0.0,0.0,2.4748,2.6511,2.7903,2.8896,2.9442,2.9884,3.0082,2.9641,2.8691,2.724,0.0,0.0,0.0,0.0,0.0,0.0,0.0,0.0,0.0,0.0,0.0,0.0,0.0,0.0,0.0,0.0,0.0,0.0,0.0,0.0,0.0,0.0,0.0,0.0,0.0,0.0,0.0,0.0,0.0,0.0,0.0,0.0,0.0,0.0,0.0,0.0,0.0,0.0,0.0,3.4719,3.5765,0.0,0.0,0.0,0.0,0.0,0.0,0.0,0.0,3.5791,0.0,0.0,0.0,0.0,0.0,0.0,0.0,0.0,0.0,0.0,0.0,0.0,0.0,0.0,0.0,0.0,0.0,0.0,0.0,0.0,0.0,0.0,0.0,0.0,0.0,0.0,0.0,0.0,0.0,0.0,0.0,0.0,0.0,0.0,0.0,0.0,0.0,0.0,0.0,0.0,0.0,0.0,0.0,0.0,0.0,0.0,0.0,0.0,0.0,0.0,0.0,0.0,0.0,0.0,0.0,2.6212,2.8164,2.9495,3.0252,3.1073,3.1426,3.1305,3.067,2.9683,0.0,0.0,0.0,0.0,0.0,0.0,0.0,0.0,0.0,0.0,0.0,0.0,0.0,0.0,0.0,0.0,0.0,0.0,0.0,0.0,0.0,0.0,0.0,0.0,0.0,0.0,0.0,0.0,0.0,0.0,0.0,0.0,0.0,0.0,0.0,0.0,0.0,0.0,0.0,0.0,3.7078,3.8372,3.9024,0.0,0.0,0.0,0.0,0.0,0.0,3.8613,3.8211,0.0,0.0,0.0,0.0,0.0,0.0,0.0,0.0,0.0,0.0,0.0,0.0,0.0,0.0,0.0,0.0,0.0,0.0,0.0,0.0,0.0,0.0,0.0,0.0,0.0,0.0,0.0,0.0,0.0,0.0,0.0,0.0,0.0,0.0,0.0,0.0,0.0,0.0,0.0,0.0,0.0,0.0,0.0,0.0,0.0,0.0,0.0,0.0,0.0,0.0,0.0,0.0,0.0,0.0,0.0,2.764,2.9682,3.1029,3.1554,3.2465,3.2769,3.2399,3.1686,3.0535,0.0,0.0,0.0,0.0,0.0,0.0,0.0,0.0,0.0,0.0,0.0,0.0,0.0,0.0,0.0,0.0,0.0,0.0,0.0,0.0,0.0,0.0,0.0,0.0,0.0,0.0,0.0,0.0,0.0,0.0,0.0,0.0,0.0,0.0,0.0,0.0,0.0,0.0,0.0,0.0,0.0,4.0586,4.1617,4.1602,0.0,0.0,0.0,0.0,4.181,4.1206,0.0,0.0,0.0,0.0,0.0,0.0,0.0,0.0,0.0,0.0,0.0,0.0,0.0,0.0,0.0,0.0,0.0,0.0,0.0,0.0,0.0,0.0,0.0,0.0,0.0,0.0,0.0,0.0,0.0,0.0,0.0,0.0,0.0,0.0,0.0,0.0,0.0,0.0,0.0,0.0,0.0,0.0,0.0,0.0,0.0,0.0,0.0,0.0,0.0,0.0,0.0,0.0,0.0,0.0,0.0,0.0,2.9492,3.0914,3.1965,3.2704,3.2931,3.3069,3.3006,3.2286,3.1141,0.0,0.0,0.0,0.0,0.0,0.0,0.0,0.0,0.0,0.0,0.0,0.0,0.0,0.0,0.0,0.0,0.0,0.0,0.0,0.0,0.0,0.0,0.0,0.0,0.0,0.0,0.0,0.0,0.0,0.0,0.0,0.0,0.0,0.0,0.0,0.0,0.0,0.0,0.0,0.0,0.0,4.153,4.2592,4.2931,4.3234,0.0,0.0,4.3109,4.4252,4.3279,0.0,0.0,0.0,0.0,0.0,0.0,0.0,0.0,0.0,0.0,0.0,0.0,0.0,0.0,0.0,0.0,0.0,0.0,0.0,0.0,0.0,0.0,0.0,0.0,0.0,0.0,0.0,0.0,0.0,0.0,0.0,0.0,0.0,0.0,0.0,0.0,0.0,0.0,0.0,0.0,0.0,0.0,0.0,0.0,0.0,0.0,0.0,0.0,0.0,0.0,0.0,0.0,0.0,0.0,0.0,2.8731,3.1026,3.2354,3.3638,3.4958,3.4887,3.4828,3.4862,3.3979,3.2636,0.0,0.0,0.0,0.0,0.0,0.0,0.0,0.0,0.0,0.0,0.0,0.0,0.0,0.0,0.0,0.0,0.0,0.0,0.0,0.0,0.0,0.0,0.0,0.0,0.0,0.0,0.0,0.0,0.0,0.0,0.0,0.0,0.0,0.0,0.0,0.0,0.0,0.0,0.0,0.0,0.0,0.0,4.4908,4.6032,0.0,0.0,0.0,4.6622,4.7077,0.0,0.0,0.0,0.0,0.0,0.0,0.0,0.0,0.0,0.0,0.0,0.0,0.0,0.0,0.0,0.0,0.0,0.0,0.0,0.0,0.0,0.0,0.0,0.0,0.0,0.0,0.0,0.0,0.0,0.0,0.0,0.0,0.0,0.0,0.0,0.0,0.0,0.0,0.0,0.0,0.0,0.0,0.0,0.0,0.0,0.0,0.0,0.0,0.0,0.0,0.0,0.0,0.0,0.0,0.0,0.0,0.0,3.2549,3.3718,3.526,3.7031,3.6789,3.6566,3.6599,3.5647,0.0,0.0,0.0,0.0,0.0,0.0,0.0,0.0,0.0,0.0,0.0,0.0,0.0,0.0,0.0,0.0,0.0,0.0,0.0,0.0,0.0,0.0,0.0,0.0,0.0,0.0,0.0,2.6037,0.0,0.0,0.0,0.0,0.0,0.0,0.0,0.0,0.0,0.0,0.0,0.0,0.0,0.0,4.5409,4.7194,4.86,4.9427,0.0,0.0,4.9757,4.989,4.8688,4.7574,0.0,0.0,0.0,0.0,0.0,0.0,0.0,0.0,0.0,0.0,0.0,0.0,0.0,0.0,0.0,0.0,0.0,0.0,0.0,0.0,0.0,0.0,0.0,0.0,0.0,0.0,0.0,0.0,0.0,0.0,0.0,0.0,0.0,0.0,0.0,0.0,0.0,0.0,0.0,0.0,0.0,0.0,0.0,0.0,0.0,0.0,0.0,0.0,0.0,0.0,0.0,0.0,0.0,0.0,3.0944,3.3871,3.4949,3.6502,3.8533,3.806,3.7809,3.7864,3.6989,3.5427,0.0,0.0,0.0,0.0,0.0,0.0,0.0,0.0,0.0,0.0,0.0,0.0,0.0,0.0,0.0,0.0,0.0,0.0,0.0,0.0,0.0,0.0,0.0,0.0,0.0,0.0,0.0,0.0,0.0,0.0,0.0,0.0,0.0,0.0,0.0,0.0,0.0,0.0,0.0,0.0,0.0,4.6929,4.9039,4.9626,5.027,0.0,5.1369,5.1588,5.2688,5.1272,5.0062,5.0002,0.0,0.0,0.0,0.0,0.0,0.0,0.0,0.0,0.0,0.0,0.0,0.0,0.0,0.0,0.0,0.0,0.0,0.0,0.0,0.0,0.0,0.0,0.0,0.0,0.0,0.0,0.0,0.0,0.0,0.0,0.0,0.0,0.0,0.0,0.0,0.0,0.0,0.0,0.0,0.0,0.0,0.0,0.0,0.0,0.0,0.0,0.0,0.0,0.0,0.0,0.0,0.0,0.0,3.1763,3.4727,3.6321,3.8028,3.977,3.9971,3.992,3.9777,3.8721,3.7356,0.0,0.0,0.0,0.0,0.0,0.0,0.0,0.0,0.0,0.0,0.0,0.0,0.0,0.0,0.0,0.0,0.0,0.0,0.0,0.0,0.0,0.0,0.0,0.0,0.0,0.0,0.0,0.0,3.2593,3.3788,3.515,0.0,0.0,0.0,0.0,0.0,0.0,0.0,0.0,0.0,0.0,4.9045,5.0785,5.2171,0.0,0.0,5.3688,5.3766,5.4231,5.3343,5.2436,5.206,5.0713,0.0,0.0,0.0,0.0,0.0,0.0,0.0,0.0,0.0,0.0,0.0,0.0,0.0,0.0,0.0,0.0,0.0,0.0,0.0,0.0,0.0,0.0,0.0,0.0,0.0,0.0,0.0,0.0,0.0,0.0,0.0,0.0,0.0,0.0,0.0,0.0,0.0,0.0,0.0,0.0,0.0,0.0,0.0,0.0,0.0,0.0,0.0,0.0,0.0,0.0,0.0,0.0,3.2877,3.5793,3.7741,3.9459,4.0981,4.1474,4.1582,4.1361,4.0384,3.9224,0.0,0.0,0.0,0.0,0.0,0.0,0.0,0.0,0.0,0.0,0.0,0.0,0.0,0.0,0.0,0.0,0.0,0.0,0.0,0.0,0.0,0.0,0.0,0.0,0.0,0.0,0.0,0.0,3.4668,3.5909,3.657,0.0,0.0,0.0,0.0,0.0,0.0,0.0,0.0,0.0,0.0,5.1077,5.2913,5.4418,5.5432,5.5827,5.5986,5.5993,5.5859,5.5346,5.4721,5.4159,0.0,0.0,0.0,0.0,0.0,0.0,0.0,0.0,0.0,0.0,0.0,0.0,0.0,0.0,0.0,0.0,0.0,0.0,0.0,0.0,0.0,0.0,0.0,0.0,0.0,0.0,0.0,2.6644,0.0,0.0,2.62,0.0,0.0,0.0,0.0,0.0,0.0,0.0,0.0,0.0,0.0,0.0,0.0,0.0,0.0,0.0,0.0,0.0,0.0,0.0,0.0,0.0,0.0,3.4357,3.7235,3.912,4.0771,4.2104,4.2452,4.2569,4.2569,4.1968,4.076,3.889,0.0,0.0,0.0,0.0,0.0,0.0,0.0,0.0,0.0,0.0,0.0,0.0,0.0,0.0,0.0,0.0,0.0,0.0,0.0,0.0,0.0,0.0,0.0,0.0,0.0,0.0,3.5495,3.7168,3.7994,0.0,0.0,0.0,0.0,0.0,0.0,0.0,0.0,0.0,4.9526,5.1106,5.2929,5.5512,5.5967,5.6534,5.7699,5.8166,5.8154,5.7808,5.7373,5.6931,0.0,0.0,0.0,0.0,0.0,0.0,0.0,0.0,0.0,0.0,0.0,0.0,0.0,0.0,0.0,0.0,0.0,0.0,0.0,0.0,0.0,0.0,0.0,0.0,0.0,0.0,0.0,2.9154,2.8982,0.0,0.0,0.0,0.0,0.0,0.0,0.0,0.0,0.0,0.0,0.0,3.3887,3.442,0.0,0.0,0.0,0.0,0.0,0.0,0.0,0.0,0.0,0.0,0.0,0.0,3.5826,3.8589,4.0685,4.2267,4.3281,4.3986,4.4219,4.4002,4.3099,4.1622,3.949,0.0,0.0,0.0,0.0,0.0,0.0,0.0,0.0,0.0,0.0,0.0,0.0,0.0,0.0,0.0,0.0,0.0,0.0,0.0,0.0,0.0,0.0,0.0,0.0,0.0,3.5629,0.0,0.0,0.0,0.0,0.0,0.0,0.0,0.0,0.0,0.0,4.6944,4.9365,5.1327,5.3703,5.5705,5.6834,5.7793,5.8535,0.0,0.0,0.0,0.0,0.0,0.0,0.0,0.0,0.0,0.0,0.0,0.0,0.0,0.0,5.0138,4.9074,4.8638,4.8389,4.8213,0.0,0.0,0.0,0.0,0.0,0.0,0.0,0.0,0.0,0.0,0.0,0.0,0.0,0.0,3.2152,3.195,3.1232,0.0,0.0,0.0,0.0,0.0,0.0,0.0,0.0,3.5885,3.629,3.6325,3.6751,3.6877,3.6647,3.6062,3.4861,0.0,0.0,0.0,0.0,0.0,0.0,0.0,0.0,3.7272,4.0241,4.2216,4.3615,4.4467,4.5236,4.5502,4.5154,4.4093,4.2653,4.077,3.9525,3.7937,0.0,0.0,0.0,0.0,0.0,0.0,0.0,0.0,0.0,0.0,0.0,0.0,0.0,0.0,0.0,0.0,0.0,0.0,0.0,0.0,0.0,0.0,0.0,3.835,0.0,0.0,0.0,0.0,0.0,0.0,0.0,0.0,0.0,4.7243,4.9439,5.1809,5.3871,5.5983,5.7759,5.8734,0.0,0.0,0.0,0.0,0.0,0.0,0.0,6.1011,6.0991,6.0793,6.0294,5.942,5.7936,5.6905,5.7137,0.0,0.0,5.3175,5.251,5.2168,5.194,5.2211,5.2373,5.1995,5.2995,5.3892,0.0,0.0,0.0,0.0,3.6192,0.0,0.0,0.0,3.5649,3.5535,0.0,3.4401,0.0,0.0,0.0,0.0,3.5331,3.6375,0.0,0.0,3.9131,3.9368,3.904,3.9272,3.9231,3.904,3.8753,3.8477,3.809,3.4512,3.2429,0.0,0.0,0.0,0.0,0.0,3.8754,4.2159,4.3667,4.4786,4.5611,4.6182,4.627,4.6007,4.4944,4.3835,4.2709,4.1645,4.0098,3.7916,3.6463,0.0,0.0,0.0,0.0,0.0,0.0,0.0,0.0,0.0,0.0,0.0,0.0,0.0,0.0,0.0,0.0,0.0,0.0,0.0,0.0,3.9576,0.0,0.0,0.0,0.0,0.0,0.0,0.0,0.0,0.0,5.0599,5.0414,5.1904,5.4037,5.6987,0.0,0.0,0.0,0.0,6.1819,6.268,6.2856,6.2764,6.2567,6.2329,6.2058,6.1648,0.0,0.0,6.065,6.0489,6.0262,5.9801,5.9302,5.8419,5.6683,5.6059,5.5848,5.5925,5.6009,5.5951,5.554,5.6196,5.7094,4.0609,0.0,0.0,0.0,0.0,3.7741,3.7699,3.7504,3.7657,3.7558,3.7165,3.6841,0.0,0.0,0.0,0.0,0.0,0.0,3.8848,3.988,4.0754,4.1392,4.193,4.2405,4.2509,4.2224,4.1596,4.1156,4.0844,3.92,3.7697,3.6359,0.0,0.0,0.0,0.0,4.1788,4.3568,4.5043,4.6127,4.6806,4.6998,4.6821,4.627,4.5951,4.5259,4.4124,4.3255,4.2102,4.069,3.886,0.0,0.0,0.0,0.0,0.0,0.0,0.0,0.0,0.0,0.0,0.0,0.0,0.0,0.0,0.0,0.0,0.0,0.0,0.0,4.1949,4.2594,4.3524,0.0,0.0,0.0,0.0,0.0,0.0,0.0,0.0,0.0,5.4661,5.601,5.73,0.0,0.0,6.2026,6.2421,6.2857,6.329,6.3563,6.3738,0.0,6.3606,6.3635,6.3664,6.3515,6.339,6.3232,6.2991,6.2348,6.1931,6.2228,6.1709,6.1204,6.1144,5.9765,5.8561,5.8176,5.8498,5.8676,5.8181,5.865,5.9219,4.3834,4.2151,4.0816,4.0224,4.0196,4.0013,3.9887,3.9704,3.948,3.9382,3.9323,3.9143,3.9086,3.9207,3.9213,0.0,0.0,0.0,4.1334,4.2042,4.2889,4.3582,4.4118,4.4498,4.4734,4.4778,4.4211,4.3834,4.3703,4.3111,4.249,4.1586,0.0,4.0028,4.1206,4.2499,4.395,4.5511,4.6389,4.7237,4.7925,4.7852,4.7545,4.7105,4.695,4.6474,4.5573,4.4904,4.3948,4.2811,4.0839,3.9149,0.0,0.0,0.0,0.0,0.0,0.0,0.0,0.0,0.0,0.0,0.0,3.3407,3.5121,0.0,0.0,0.0,4.1084,4.3245,4.5788,4.6011,0.0,0.0,0.0,0.0,0.0,0.0,0.0,5.118,5.3221,5.5256,5.7161,5.8842,6.0058,6.0554,6.2204,6.3342,6.3464,0.0,6.4254,6.4347,6.4393,6.4472,6.4458,6.4379,6.424,6.4053,6.3981,6.3902,6.3758,6.3345,6.311,6.3201,6.2945,6.2681,6.2871,6.1941,6.0971,6.0282,6.0365,6.0421,5.9962,6.0416,6.0894,4.6388,4.5652,4.4297,4.3629,4.3356,4.2537,4.2223,4.2122,4.1383,4.131,4.1762,4.1225,4.1325,4.1862,4.1554,0.0,4.2909,4.366,4.4165,4.4526,4.5357,4.5768,4.6002,4.6002,4.6254,4.6786,4.6594,4.6505,4.646,4.6252,4.6483,4.6932,4.369,4.2542,4.3546,4.4238,4.558,4.7616,4.7701,4.8112,4.8881,4.866,4.838,4.8128,4.7903,4.7494,4.7029,4.648,4.5649,4.4567,4.2699,4.1036,3.9628,0.0,0.0,0.0,0.0,0.0,0.0,0.0,0.0,0.0,0.0,0.0,0.0,0.0,0.0,4.3008,4.5102,0.0,4.9121,4.9512,0.0,0.0,0.0,5.0281,5.0798,5.1903,5.2922,5.3627,0.0,0.0,5.8325,6.0471,6.214,6.2441,6.2987,6.3616,6.4281,6.4531,6.4839,6.5008,6.4872,6.4793,6.4826,6.4491,6.4088,6.3741,6.3721,6.3739,6.3552,6.3783,6.3777,6.3366,6.3269,6.3171,6.2663,6.3043,6.3207,6.2323,6.1896,6.1589,6.1459,6.1852,6.2271,4.7985,4.7377,4.7374,4.6196,4.4366,4.4147,4.4046,4.4017,4.3828,4.3701,4.366,4.3515,4.3544,4.3689,4.3557,4.3799,4.4216,4.4448,4.5194,4.6326,4.6547,4.7302,4.8402,4.8432,4.8402,4.8342,4.8296,4.819,4.8054,4.8008,4.8021,4.8168,4.7775,4.7277,4.676,4.7337,4.7884,4.8442,4.8718,4.8886,4.8881,4.8859,4.871,4.838,4.833,4.8128,4.7824,4.7684,4.727,4.6506,4.5419,4.4153,4.2677,4.1205,0.0,0.0,0.0,0.0,0.0,0.0,0.0,0.0,0.0,3.8938,4.1048,0.0,4.4728,0.0,4.7671,4.9811,5.1437,5.1851,0.0,0.0,5.3545,5.3608,5.4896,5.4549,5.4804,5.6341,5.698,5.788,5.9501,6.0617,6.1561,6.2312,6.3385,6.4276,6.4826,6.4963,6.5008,6.5054,6.5008,6.4826,6.4351,6.4111,6.3866,6.38,6.3874,6.3909,6.3857,6.4037,6.4079,6.3788,6.3916,6.3948,6.3645,6.3997,6.4159,6.3924,6.3418,6.3093,6.3256,6.3438,6.3677,4.9133,4.8567,4.8788,4.806,4.6694,4.5914,4.5371,4.5076,4.4824,4.4768,4.4875,4.5169,4.5316,4.5316,4.5653,4.5887,4.6134,4.643,4.7095,4.8,4.803,4.8656,4.9703,4.9703,4.9807,4.9938,4.9938,4.9892,4.9753,4.9753,4.9753,4.9783,5.0063,4.9922,4.9333,4.945,4.9483,4.9483,4.9718,4.9746,4.96,4.96,4.9502,4.9227,4.9207,4.9079,4.8831,4.8831,4.861,4.8169,4.7141,4.6203,4.5259,4.3938,4.2722,0.0,0.0,0.0,0.0,0.0,0.0,0.0,0.0,0.0,0.0,0.0,4.762,4.8924,5.0778,5.2428,5.3636,5.4358,5.5123,5.6016,5.5675,5.578,5.6861,5.6419,5.6511,5.7807,5.8186,5.8764,6.0059,6.0714,6.1427,6.227,6.3019,6.3738,6.4426,6.4781,6.4885,6.4918,6.4781,6.4463,6.3966,6.3719,6.3703,6.3868,6.4005,6.4109,6.414,6.4274,6.4272,6.4169,6.4382,6.4558,6.4277,6.4619,6.4866,6.4719,6.442,6.4272,6.4366,6.4455,6.4605,4.9972,4.9449,4.9494,4.9434,4.9164,4.7674,4.6668,4.6061,4.5529,4.5588,4.6121,4.6668,4.6934,4.6963,4.7569,4.7896,4.8105,4.8685,4.9103,4.9374,4.9419,4.9733,5.0315,5.0405,5.0734,5.1349,5.1439,5.1468,5.1468,5.1468,5.1468,5.1468,5.1379,5.1349,5.1302,5.0864,5.0596,5.0519,5.0548,5.0519,5.0501,5.0501,5.0405,5.0135,5.0135,5.0067,4.996,4.996,4.9892,4.9675,4.8663,4.7874,4.7511,4.6401,4.5545,0.0,4.5244,0.0,0.0,0.0,0.0,0.0,0.0,0.0,0.0,4.8924,5.0601,5.2827,5.3913,5.4792,5.5611,5.6702,5.7292,5.7151,5.7128,5.7349,5.7783,5.7698,5.7884,5.8633,5.9371,5.991,6.0268,6.0814,6.1512,6.2085,6.2333,6.2776,6.3628,6.424,6.4518,6.4564,6.4211,6.387,6.3748,6.3584,6.3657,6.3996,6.42,6.4344,6.4321,6.4316,6.4356,6.4422,6.4623,6.4762,6.4593,6.5107,6.5411,6.5203,6.5203,6.5233,6.5173,6.5144,6.5173,5.0614,5.0076,5.0631,5.0242,4.9284,4.9492,4.9178,4.8596,4.8477,4.8507,4.8626,4.8746,4.8805,4.8805,4.8925,4.8985,4.903,4.9149,4.9508,5.0016,5.0016,5.0391,5.1003,5.1588,5.1887,5.2037,5.2546,5.2815,5.2815,5.2785,5.2815,5.2785,5.2276,5.2007,5.1977,0.0,0.0,0.0,5.0775,5.0662,5.0501,5.0501,5.0501,5.0453,5.0405,0.0,5.114,5.117,5.1356,5.1777,5.1423,0.0,0.0,0.0,0.0,0.0,0.0,0.0,0.0,0.0,0.0,0.0,4.9603,4.9718,4.9885,5.1863,5.3649,5.4845,5.5802,5.6509,5.6852,5.7581,5.8162,5.8281,5.8458,5.8754,5.9182,5.8672,5.8709,5.9756,5.9858,5.9993,6.062,6.099,6.1257,6.1461,6.1815,6.2184,6.2661,6.3389,6.377,6.3802,6.3612,6.3436,6.3173,6.3704,6.4075,6.4257,6.4289,6.4359,6.4365,6.4178,6.4205,6.4401,6.4528,6.4714,6.4843,6.5443,6.5892,6.5802,6.6221,6.646,6.5951,6.5832,6.5981,5.102,5.075,5.1033,5.084,0.0,5.0524,5.0541,5.0182,4.9569,4.9299,4.9299,4.9299,4.9299,4.9329,4.9613,4.9733,4.9763,5.0092,5.0421,5.0674,5.105,5.1379,5.1708,5.2366,5.2695,5.2695,5.3025,5.3174,5.3174,5.3174,5.3174,5.3174,5.2845,5.2665,5.2665,5.2366,5.181,5.1011,5.1011,5.0917,5.0852,5.0852,5.103,5.1327,5.1327,0.0,0.0,0.0,0.0,0.0,0.0,0.0,0.0,5.1385,0.0,5.0189,5.0475,5.0725,5.0789,5.1513,5.21,5.2485,5.2927,5.2854,5.2144,5.3962,5.5403,5.597,5.6826,5.7492,5.771,5.8484,5.8991,5.8947,5.9004,5.9124,5.9346,5.919,5.9332,6.0028,6.0137,6.0269,6.0732,6.0794,6.0949,6.1155,6.141,6.1839,6.2393,6.2802,6.3002,6.2888,6.3083,6.3198,6.3142,6.3614,6.4158,6.4272,6.4309,6.4214,6.4188,6.4236,6.4314,6.4503,6.4898,6.5322,6.5443,6.6041,6.649,6.652,6.6759,6.6909,6.655,6.649,6.658,5.1229,5.1229,5.1229,5.1229,5.1229,5.1229,5.1229,5.1139,5.0062,0.0,0.0,4.9613,4.9613,4.9643,5.0301,5.0554,5.0584,5.1259,5.1558,5.1588,5.2127,5.2366,5.2396,5.3054,5.3354,5.3354,5.3473,5.3533,5.3533,5.3533,5.3533,5.3533,5.3414,5.3294,5.3174,5.3174,5.2665,5.1618,5.1558,5.1558,5.1558,5.1558,5.1828,5.2366,5.2366,5.2695,5.3324,5.3354,5.3414,5.3533,5.3533,5.3473,5.3384,5.3158,5.3128,5.3204,5.3465,5.3706,5.3975,5.4402,5.4776,5.5008,5.5332,5.5138,5.4141,5.5474,5.6391,5.6613,5.7484,5.8153,5.8406,5.9097,5.9496,5.9286,5.9146,5.9133,5.9365,5.9548,5.9744,6.0124,6.0352,6.0429,6.0586,6.0429,6.0512,6.0897,6.1052,6.1402,6.2239,6.2574,6.2688,6.2499,6.2891,6.3215,6.3291,6.3595,6.3936,6.4259,6.4075,6.3967,6.4092,6.4256,6.4475,6.4808,6.5502,6.5892,6.6161,6.658,6.6969,6.6999,6.6999,6.6999,6.6999,6.6999,6.6969,5.1229,5.1229,5.1229,5.1229,5.1229,5.1229,5.1229,5.1199,5.102,5.093,5.096,5.096,5.093,5.096,5.1618,5.1917,5.1947,5.2606,5.2905,5.2905,5.3043,5.3054,5.3084,5.3743,5.4072,5.4102,5.464,5.491,5.491,5.488,5.491,5.482,5.4341,5.3773,5.3234,5.3174,5.3084,5.2905,5.2905,5.2905,5.2905,5.2905,5.2965,5.3025,5.3054,5.3384,5.4042,5.4072,5.4341,5.488,5.491,5.464,5.4102,5.4022,5.3753,5.3283,5.3447,5.3688,5.4005,5.4229,5.4465,5.476,5.5534,5.5736,5.5249,5.6116,5.6815,5.7105,5.7947,5.8619,5.8844,5.8998,5.9094,5.9068,5.9182,5.9397,5.9772,5.9942,6.0124,6.0362,6.0337,6.0272,6.0144,6.0092,6.0144,6.0429,6.0687,6.0893,6.1915,6.2788,6.3277,6.314,6.3424,6.3587,6.3439,6.372,6.3949,6.4045,6.3793,6.3776,6.4289,6.4268,6.4573,6.5563,6.5922,6.6221,6.667,6.6909,6.6999,6.6999,6.6999,6.6999,6.6999,6.6999,6.6999,5.1229,5.1229,5.1229,5.1229,5.1259,5.1588,5.1738,5.1798,5.2127,5.2067,5.1798,5.2127,5.2276,5.2306,5.2606,5.2725,5.2755,5.3054,5.3174,5.3204,5.3563,5.3743,5.3803,5.4431,5.476,5.476,5.5029,5.5209,5.5209,5.5209,5.5209,5.5179,5.488,5.4581,5.4311,5.4281,5.4281,5.4251,5.3563,5.3174,5.3174,5.3174,5.3354,5.3713,5.3713,5.4042,5.47,5.473,5.488,5.5179,5.5209,5.5059,5.476,5.476,5.461,5.4281,5.4529,5.4726,5.4873,5.5086,5.528,5.5407,5.5827,5.6002,5.598,5.67,5.7261,5.7354,5.79,5.8243,5.8381,5.8518,5.8645,5.8919,5.9034,5.9347,5.9929,5.9966,6.0075,6.0307,6.0114,5.9902,6.0016,5.9827,5.9827,6.0205,6.0715,6.153,6.231,6.317,6.3517,6.2964,6.3217,6.3367,6.3213,6.3451,6.3676,6.3766,6.3481,6.3579,6.415,6.4305,6.4964,6.5802,6.6281,6.661,6.6969,6.6999,6.6999,6.6999,6.6999,6.6999,6.6999,6.6999,6.6999,5.1648,5.1648,5.1648,5.1648,5.1708,5.2217,5.2426,5.2486,5.3144,5.3144,5.2755,5.3054,5.3174,5.3204,5.3354,5.3414,5.3414,5.3563,5.3623,5.3683,5.4192,5.4431,5.4491,5.497,5.5209,5.5209,5.5209,5.5209,5.5209,5.5209,5.5209,5.5209,5.5209,5.5209,5.5209,5.5209,5.5209,5.5119,5.4162,5.3653,5.3623,5.3623,5.3892,5.4371,5.4431,5.467,5.5149,5.5209,5.5209,5.5209,5.5209,5.5209,5.5209,5.5209,5.5209,5.5259,5.5411,5.5531,5.5631,5.583,5.6028,5.6028,5.6028,5.6077,5.6323,5.6827,5.7258,5.7401,5.759,5.7731,5.7856,5.8122,5.8405,5.8797,5.9078,5.951,6.0047,6.0003,5.9972,6.018,5.9849,5.9583,5.972,5.9529,5.962,6.019,6.1298,6.2354,6.29,6.3538,6.3589,6.3097,6.3091,6.334,6.3092,6.3203,6.3424,6.3574,6.3462,6.3765,6.4336,6.4964,6.5473,6.6131,6.664,6.6909,6.6969,6.6999,6.6999,6.6999,6.6999,6.6999,6.6999,6.6999,6.6999,5.2965,5.2995,5.2935,5.2995,5.2965,5.3054,5.3084,5.3174,5.3832,5.4102,5.3952,5.3443,5.3204,5.3264,5.3862,5.4102,5.4162,5.473,5.497,5.494,5.5059,5.5089,5.5059,5.5149,5.5209,5.5209,5.5209,5.5209,5.5209,5.5209,5.5209,5.5209,5.5209,5.5209,5.5209,5.5209,5.5209,5.5209,5.5059,5.4999,5.4999,5.4999,5.5029,5.5089,5.5089,5.5119,5.5179,5.5209,5.5209,5.5209,5.5209,5.5209,5.5209,5.5209,5.5209,5.5209,5.5229,5.533,5.5581,5.583,5.5979,5.6028,5.5979,5.5979,5.6028,5.6127,5.6439,5.6971,5.7132,5.7306,5.7527,5.8073,5.8479,5.8712,5.9451,6.014,6.0175,6.028,6.0263,6.0039,5.969,5.9422,5.9261,5.9267,5.9561,6.0494,6.174,6.2698,6.294,6.3425,6.3793,6.3411,6.3445,6.3445,6.3388,6.3219,6.3434,6.3825,6.3917,6.4395,6.5233,6.5742,6.6101,6.655,6.6879,6.6969,6.6999,6.6999,6.6999,6.6999,6.6999,6.6999,6.6999,6.7029,6.7059,5.3174,5.3174,5.3174,5.3174,5.3204,5.3623,5.3773,5.3862,5.4521,5.479,5.476,5.4491,5.4371,5.4401,5.467,5.479,5.482,5.5059,5.5209,5.5209,5.5209,5.5209,5.5209,5.5209,5.5209,5.5209,5.5209,5.5209,5.5209,5.5209,5.5209,5.5209,5.5209,5.5209,5.5209,5.5209,5.5209,5.5209,5.5209,5.5209,5.5209,5.5209,5.5209,5.5209,5.5209,5.5209,5.5209,5.5209,5.5209,5.5209,5.5209,5.5209,5.5209,5.5209,5.5209,5.5209,5.5209,5.5229,5.533,5.5481,5.5531,5.5531,5.5531,5.5581,5.5731,5.578,5.5979,5.6342,5.6585,5.6884,5.7382,5.7837,5.8399,5.9123,5.9571,5.9881,6.026,6.0036,5.9796,5.972,5.9422,5.9207,5.9213,5.9458,6.0171,6.1181,6.216,6.2578,6.2969,6.33,6.3394,6.3309,6.3252,6.3252,6.3282,6.3524,6.3707,6.4006,6.4366,6.5024,6.5712,6.6011,6.6221,6.6879,6.6969,6.6999,6.6999,6.6999,6.6999,6.6999,6.6999,6.6999,6.6999,6.7298,6.7508,5.3743,5.3743,5.3743,5.3713,5.3773,5.4251,5.4491,5.4521,5.4999,5.5209,5.5209,5.5209,5.5209,5.5209,5.5209,5.5209,5.5209,5.5209,5.5209,5.5209,5.5209,5.5209,5.5209,5.5209,5.5209,5.5209,5.5209,5.5209,5.5209,5.5209,5.5209,5.5209,5.5209,5.5209,5.5209,5.5209,5.5209,5.5209,5.5209,5.5209,5.5209,5.5209,5.5209,5.5209,5.5209,5.5209,5.5209,5.5209,5.5209,5.5209,5.5209,5.5209,5.5209,5.5209,5.5209,5.5209,5.5209,5.5209,5.5209,5.5209,5.5209,5.5209,5.5209,5.528,5.5431,5.5481,5.5671,5.6053,5.6302,5.6694,5.7209,5.7737,5.8511,5.94,5.9521,5.9784,6.0211,5.9796,5.9529,5.9476,5.9315,5.9219,5.9458,6.0116,6.1074,6.1822,6.2241,6.26,6.3109,6.3256,6.3196,6.3288,6.3348,6.3348,6.3348,6.3647,6.4036,6.4605,6.5054,6.5503,6.6131,6.6251,6.6311,6.6939,6.6969,6.6999,6.6999,6.6999,6.6999,6.6999,6.6999,6.7089,6.7328,6.7687,6.7986,5.5119,5.5059,5.5089,5.5029,5.5089,5.5089,5.5149,5.5089,5.5179,5.5209,5.5209,5.5209,5.5209,5.5209,5.5209,5.5209,5.5209,5.5209,5.5209,5.5209,5.5209,5.5209,5.5209,5.5209,5.5209,5.5209,5.5209,5.5209,5.5209,5.5209,5.5209,5.5209,5.5239,5.5209,5.5209,5.5209,5.5209,5.5209,5.5209,5.5209,5.5209,5.5209,5.5209,5.5209,5.5209,5.5209,5.5209,5.5209,5.5209,5.5209,5.5209,5.5209,5.5209,5.5209,5.5209,5.5209,5.5209,5.5209,5.5209,5.5239,5.5239,5.5239,5.5329,5.5239,5.5439,5.5439,5.57,5.6179,5.6525,5.6788,5.7112,5.8094,5.8793,5.9066,5.9644,5.9955,6.0016,5.9871,5.956,5.9482,5.9351,5.9518,6.0027,6.1194,6.1822,6.2211,6.266,6.3169,6.3528,6.3378,6.3348,6.3677,6.3857,6.3947,6.3977,6.4246,6.4755,6.5263,6.5712,6.6131,6.661,6.6939,6.6969,6.6969,6.6969,6.6999,6.6999,6.6999,6.6999,6.6999,6.6999,6.7119,6.7567,6.7837,6.8256,5.5209,5.5209,5.5209,5.5209,5.5209,5.5209,5.5209,5.5209,5.5209,5.5209,5.5209,5.5209,5.5209,5.5209,5.5209,5.5209,5.5209,5.5209,5.5209,5.5209,5.5209,5.5209,5.5209,5.5209,5.5209,5.5209,5.5209,5.5209,5.5239,5.5598,5.5598,5.5329,5.5628,5.5628,5.5269,5.5209,5.5209,5.5209,5.5209,5.5209,5.5209,5.5209,5.5209,5.5209,5.5209,5.5209,5.5209,5.5209,5.5209,5.5209,5.5209,5.5209,5.5209,5.5209,5.5209,5.5209,5.5209,5.5209,5.5239,5.5598,5.5858,5.5837,5.6196,5.6376,5.6406,5.6406,5.6526,5.6765,5.7236,5.7603,5.7798,5.842,5.9084,5.9569,6.0038,6.0324,6.0391,6.0415,6.0346,6.0011,5.9782,6.0146,6.1074,6.1822,6.2241,6.266,6.2929,6.3169,6.3318,6.3199,6.3228,6.3438,6.3767,6.4156,6.4635,6.5084,6.5533,6.5892,6.6281,6.655,6.6939,6.6999,6.6969,6.6969,6.6999,6.6999,6.6999,6.6999,6.6999,6.6999,6.6999,6.7388,6.7837,6.8286,6.8854,5.5209,5.5209,5.5209,5.5209,5.5209,5.5209,5.5209,5.5209,5.5209,5.5209,5.5179,5.5158,5.5078,5.5179,5.5108,5.5158,5.5209,5.5209,5.5209,5.5209,5.5209,5.5209,5.5209,5.5108,5.5197,5.5355,5.5492,5.5581,5.5611,5.6101,5.6072,5.5743,5.6055,5.6008,5.5538,5.5329,5.5209,5.5209,5.5209,5.5209,5.5209,5.5209,5.5209,5.5209,5.5209,5.5209,5.5209,5.5209,5.5209,5.5209,5.5209,5.5209,5.5209,5.5388,5.5508,5.5538,5.5718,5.5807,5.5837,5.6226,5.6466,5.6466,5.6825,5.7094,5.7094,5.7094,5.7184,5.7453,5.7812,5.8171,5.8434,5.876,5.9244,5.9878,6.0229,6.0451,6.0661,6.0916,6.0835,6.0565,6.0655,6.1194,6.1912,6.2241,6.26,6.3049,6.3137,6.3109,6.3318,6.3378,6.3498,6.3707,6.4366,6.4874,6.5323,6.5802,6.6131,6.646,6.652,6.6849,6.6999,6.6999,6.6999,6.6999,6.6999,6.6999,6.6999,6.6999,6.6999,6.7029,6.7328,6.7717,6.8286,6.8884,6.9453,5.5209,5.5179,5.5209,5.5209,5.5179,5.5179,5.5209,5.5209,5.5128,5.5078,5.5027,5.4875,5.4875,5.5057,5.4875,5.4926,5.5078,5.5078,5.5128,5.5158,5.5128,5.5128,5.5078,5.4905,5.51,5.5582,5.6031,5.6249,5.6214,5.6426,5.6532,5.6496,5.6221,5.6025,5.6077,5.5427,5.5179,5.5179,5.5209,5.5209,5.5209,5.5209,5.5209,5.5209,5.5209,5.5209,5.5209,5.5209,5.5209,5.5209,5.5209,5.5209,5.5269,5.5748,5.6188,5.6218,5.6675,5.7004,5.7004,5.7034,5.7124,5.7124,5.7154,5.7304,5.7393,5.7334,5.7543,5.8022,5.8201,5.8411,5.8919,5.9063,5.9387,5.9992,6.0201,6.0531,6.0954,6.1134,6.1164,6.1253,6.1583,6.2032,6.2241,6.26,6.2989,6.3107,6.3137,6.3228,6.3588,6.3677,6.4186,6.4755,6.5084,6.5353,6.5951,6.652,6.6759,6.6939,6.6909,6.6999,6.6999,6.6999,6.6999,6.6999,6.6999,6.6999,6.6999,6.6999,6.7119,6.7238,6.7627,6.8136,6.8854,6.9482,6.9991,5.4955,5.4955,5.5128,5.5209,5.5179,5.5006,5.4955,5.4875,5.4692,5.459,5.459,5.4487,5.4539,5.4539,5.4487,5.4487,5.456,5.459,5.4692,5.4824,5.4692,5.459,5.459,5.4487,5.4761,5.544,5.6013,5.6284,5.6338,5.6362,5.6208,5.5818,5.5663,5.5464,5.5262,5.5045,5.5006,5.5209,5.5209,5.5209,5.5209,5.5209,5.5209,5.5209,5.5209,5.5209,5.5209,5.5209,5.5209,5.5209,5.5209,5.5209,5.5299,5.5858,5.6218,5.6226,5.6765,5.7094,5.7154,5.7543,5.7812,5.7872,5.8171,5.8441,5.8471,5.8441,5.853,5.877,5.88,5.8919,5.9069,5.9099,5.9398,6.0027,6.0505,6.1014,6.1642,6.1792,6.2032,6.2331,6.2241,6.2301,6.266,6.3077,6.3107,6.3137,6.3137,6.3199,6.3348,6.3558,6.3617,6.4246,6.4874,6.5742,6.6191,6.661,6.6849,6.6999,6.6999,6.6999,6.6999,6.6999,6.6999,6.6999,6.6999,6.6999,6.6999,6.7119,6.7268,6.7537,6.7926,6.8615,6.9423,6.9991,7.041,5.4517,5.4619,5.4794,5.4845,5.4845,5.4671,5.4619,5.4619,5.4406,5.4304,5.4304,5.42,5.42,5.4252,5.42,5.42,5.4304,5.42,5.4282,5.4466,5.4355,5.4304,5.4311,5.4495,5.4603,5.5049,5.5694,5.5987,5.5987,5.6065,5.5913,5.556,5.5371,5.5181,5.4975,5.4738,5.4773,5.5006,5.5027,5.5108,5.5209,5.5209,5.5209,5.5209,5.5209,5.5209,5.5209,5.5209,5.5209,5.5209,5.5209,5.5299,5.5568,5.6166,5.6615,5.6974,5.7453,5.7872,5.7872,5.8261,5.8471,5.856,5.886,5.9099,5.9099,5.9099,5.9099,5.9099,5.9099,5.9099,5.9099,5.9099,5.9518,6.0386,6.0835,6.1493,6.2211,6.245,6.26,6.2839,6.272,6.272,6.2929,6.3137,6.3137,6.3137,6.3137,6.3228,6.3378,6.3707,6.4066,6.4635,6.5533,6.6131,6.637,6.667,6.6939,6.6999,6.6999,6.6999,6.6999,6.6999,6.6999,6.6999,6.6999,6.6999,6.6999,6.7358,6.7567,6.7926,6.8286,6.9123,6.9901,7.0231,7.062,5.3993,5.4252,5.4304,5.4355,5.4355,5.4304,5.4304,5.4252,5.4252,5.42,5.4149,5.3942,5.3993,5.4149,5.3971,5.3993,5.4149,5.3993,5.3919,5.3971,5.4045,5.4149,5.4208,5.4557,5.4667,5.4682,5.518,5.5442,5.5525,5.5654,5.582,5.5616,5.5242,5.5195,5.4929,5.4569,5.4436,5.4722,5.4803,5.4926,5.5158,5.5179,5.5209,5.5209,5.5209,5.5209,5.5209,5.5209,5.5209,5.5209,5.5209,5.5478,5.6158,5.6735,5.7304,5.7902,5.868,5.8919,5.9039,5.8949,5.9009,5.9009,5.9039,5.9099,5.9099,5.9099,5.9099,5.9099,5.9099,5.9099,5.9099,5.9099,5.9727,6.0835,6.1313,6.1942,6.2839,6.3019,6.3077,6.3107,6.3137,6.3137,6.3079,6.3137,6.3137,6.3137,6.3137,6.3318,6.3797,6.4246,6.5114,6.5682,6.6101,6.64,6.658,6.7089,6.7358,6.7418,6.7388,6.7358,6.7089,6.6999,6.6999,6.6999,6.6999,6.6999,6.7119,6.7448,6.7867,6.8226,6.8824,6.9662,7.0201,7.053,7.0679,5.3658,5.3762,5.4149,5.4304,5.4252,5.4097,5.3993,5.3942,5.3815,5.3762,5.371,5.3605,5.3658,5.371,5.3658,5.3658,5.371,5.3658,5.3635,5.3605,5.3658,5.371,5.3827,5.4327,5.4541,5.4575,5.4981,5.5387,5.5358,5.506,5.491,5.4827,5.4351,5.4107,5.4176,5.4111,5.4178,5.4436,5.4671,5.4803,5.4955,5.5078,5.5179,5.5209,5.5209,5.5239,5.5209,5.5209,5.5209,5.5209,5.5209,5.5508,5.6166,5.6795,5.7453,5.8141,5.874,5.9099,5.9099,5.9099,5.9099,5.9099,5.9099,5.9099,5.9099,5.9099,5.9099,5.9099,5.9099,5.9099,5.9099,5.9129,5.9787,6.0954,6.1822,6.257,6.2959,6.3137,6.3137,6.3137,6.3137,6.3137,6.3137,6.3137,6.3137,6.3137,6.3196,6.3348,6.3977,6.4306,6.4904,6.5652,6.6131,6.649,6.6879,6.7418,6.7747,6.7897,6.7926,6.7956,6.7508,6.7029,6.6999,6.6999,6.6999,6.6999,6.7208,6.7478,6.7956,6.8555,6.9333,7.0081,7.05,7.0829,7.0829,5.3213,5.3372,5.3815,5.3971,5.3942,5.3815,5.371,5.371,5.3553,5.35,5.35,5.35,5.35,5.35,5.35,5.35,5.35,5.35,5.35,5.35,5.35,5.35,5.3617,5.3965,5.411,5.411,5.4458,5.4575,5.4517,5.4255,5.411,5.4052,5.3704,5.3605,5.3768,5.371,5.3867,5.4097,5.4333,5.4517,5.4803,5.4926,5.5287,5.5508,5.5628,5.5688,5.5927,5.5987,5.5777,5.5418,5.5448,5.5897,5.6526,5.7154,5.7842,5.8501,5.8919,5.9099,5.9099,5.9099,5.9099,5.9099,5.9099,5.9099,5.9099,5.9099,5.9099,5.9099,5.9099,5.9099,5.9159,5.9338,5.9997,6.0984,6.2061,6.278,6.3019,6.3137,6.3137,6.3137,6.3137,6.3137,6.3137,6.3137,6.3137,6.3137,6.3137,6.3617,6.4246,6.4366,6.4814,6.5772,6.634,6.667,6.7059,6.7537,6.8016,6.8196,6.8196,6.8286,6.7807,6.7178,6.6999,6.6999,6.6999,6.7029,6.7208,6.7627,6.8405,6.9064,6.9812,7.035,7.0709,7.0919,7.0919,5.2787,5.3054,5.3372,5.35,5.35,5.35,5.35,5.35,5.35,5.35,5.35,5.35,5.35,5.35,5.35,5.35,5.35,5.35,5.35,5.35,5.35,5.35,5.353,5.3588,5.3617,5.3617,5.353,5.3617,5.3704,5.3617,5.3559,5.3588,5.353,5.35,5.3553,5.35,5.3605,5.3785,5.3942,5.4178,5.4576,5.4819,5.527,5.5884,5.6226,5.6466,5.6795,5.6944,5.6555,5.5448,5.5957,5.6555,5.7184,5.7812,5.8381,5.889,5.9069,5.9099,5.9099,5.9099,5.9099,5.9099,5.9099,5.9099,5.9099,5.9099,5.9099,5.9099,5.9099,5.9099,5.9159,5.9608,6.0236,6.0954,6.1702,6.2271,6.2869,6.3137,6.3137,6.3137,6.3137,6.3137,6.3137,6.3137,6.3137,6.3137,6.3169,6.3677,6.4336,6.4725,6.5443,6.652,6.6849,6.6909,6.7268,6.7627,6.8136,6.8465,6.8405,6.8315,6.7926,6.7448,6.7119,6.6999,6.6999,6.6999,6.7059,6.7717,6.8555,6.9213,6.9722,7.035,7.0889,7.0889,7.0919,5.2491,5.2841,5.329,5.35,5.35,5.35,5.35,5.35,5.35,5.35,5.35,5.35,5.35,5.35,5.35,5.35,5.35,5.35,5.35,5.35,5.35,5.35,5.35,5.35,5.35,5.35,5.35,5.35,5.35,5.35,5.35,5.35,5.35,5.35,5.35,5.35,5.35,5.3605,5.3815,5.3971,5.4244,5.4834,5.5367,5.5924,5.6601,5.6944,5.7064,5.7094,5.6944,5.6795,5.6885,5.7274,5.7752,5.8052,5.8471,5.8919,5.9099,5.9099,5.9099,5.9099,5.9099,5.9099,5.9099,5.9099,5.9099,5.9099,5.9099,5.9099,5.9099,5.9099,5.9129,5.9219,5.9907,6.0775,6.1253,6.1822,6.275,6.3137,6.3137,6.3137,6.3137,6.3137,6.3137,6.3137,6.3137,6.3137,6.3348,6.3737,6.4336,6.4964,6.5832,6.6789,6.6969,6.7029,6.7268,6.7747,6.8435,6.8734,6.8645,6.8196,6.7807,6.7508,6.7119,6.6999,6.6999,6.6999,6.7029,6.7537,6.8345,6.8974,6.9572,7.0111,7.056,7.0679,7.0889,5.2304,5.2734,5.316,5.3372,5.35,5.35,5.35,5.35,5.35,5.35,5.35,5.35,5.35,5.35,5.35,5.35,5.35,5.35,5.35,5.35,5.35,5.35,5.35,5.35,5.35,5.35,5.35,5.35,5.35,5.35,5.35,5.35,5.35,5.35,5.35,5.35,5.35,5.35,5.3658,5.3762,5.4007,5.4691,5.5642,5.6433,5.7292,5.7839,5.7868,5.7999,5.8052,5.8022,5.8022,5.7992,5.8171,5.8411,5.877,5.9009,5.9099,5.9099,5.9099,5.9099,5.9099,5.9099,5.9099,5.9099,5.9099,5.9099,5.9099,5.9099,5.9099,5.9099,5.9099,5.9129,5.9697,6.0386,6.0954,6.1553,6.2391,6.2869,6.3137,6.3137,6.3137,6.3137,6.3137,6.3137,6.3137,6.3137,6.3109,6.3528,6.4485,6.5144,6.5802,6.652,6.6849,6.7089,6.7298,6.7867,6.8794,6.8974,6.8914,6.8226,6.7508,6.7268,6.7029,6.6999,6.6999,6.6999,6.7089,6.7627,6.7986,6.8435,6.9004,6.9692,7.0171,7.029,7.059,5.2113,5.2734,5.3001,5.3266,5.3477,5.35,5.35,5.35,5.35,5.35,5.35,5.35,5.35,5.35,5.3395,5.3395,5.3343,5.3343,5.329,5.329,5.329,5.329,5.3372,5.3424,5.3477,5.35,5.35,5.35,5.35,5.35,5.35,5.35,5.35,5.35,5.35,5.35,5.35,5.35,5.35,5.3605,5.3937,5.4627,5.5728,5.7084,5.7942,5.8402,5.8456,5.8595,5.8847,5.8936,5.8991,5.8692,5.8537,5.871,5.9099,5.9099,5.9099,5.9099,5.9099,5.9099,5.9099,5.9099,5.9099,5.9099,5.9099,5.9099,5.9099,5.9099,5.9099,5.9099,5.9099,5.9099,5.9488,6.0206,6.0835,6.1433,6.2151,6.278,6.3077,6.3137,6.3137,6.3137,6.3137,6.3137,6.3137,6.3137,6.3109,6.3468,6.4455,6.5233,6.5832,6.646,6.6849,6.7567,6.7867,6.8375,6.9243,6.9064,6.9064,6.8256,6.7418,6.7148,6.6999,6.6999,6.6999,6.6999,6.7059,6.7358,6.7687,6.7956,6.8405,6.9034,6.9482,6.9871,7.0231,5.1896,5.2734,5.3001,5.3266,5.3448,5.35,5.3448,5.35,5.3448,5.353,5.3477,5.35,5.3448,5.3424,5.3213,5.3054,5.2894,5.2894,5.2865,5.2894,5.2894,5.2947,5.316,5.316,5.3266,5.3448,5.3506,5.3482,5.35,5.35,5.35,5.35,5.35,5.35,5.35,5.35,5.35,5.35,5.35,5.3582,5.3873,5.4827,5.6042,5.7482,5.8081,5.825,5.825,5.8305,5.836,5.839,5.836,5.8411,5.854,5.8877,5.9045,5.9099,5.9099,5.9099,5.9099,5.9099,5.9099,5.9099,5.9099,5.9099,5.9099,5.9099,5.9099,5.9099,5.9099,5.9099,5.9099,5.9099,5.9727,6.0505,6.1044,6.1553,6.251,6.2959,6.3137,6.3137,6.3137,6.3137,6.3137,6.3137,6.3137,6.3137,6.3137,6.3677,6.4695,6.5233,6.5652,6.6311,6.6939,6.7807,6.8555,6.9123,6.9692,6.9153,6.8884,6.8315,6.7597,6.7178,6.6999,6.6999,6.6999,6.6999,6.7089,6.7178,6.7388,6.7687,6.8046,6.8375,6.8824,6.9303,6.9812,5.1513,5.2304,5.2734,5.3054,5.3266,5.3319,5.3266,5.3266,5.316,5.3107,5.3107,5.3107,5.3107,5.3054,5.3001,5.2734,5.2519,5.2437,5.2437,5.2465,5.2465,5.2627,5.2841,5.2894,5.2947,5.314,5.3395,5.3555,5.3477,5.35,5.3559,5.35,5.35,5.35,5.35,5.35,5.35,5.35,5.353,5.3704,5.4081,5.5271,5.6514,5.7321,5.7836,5.8003,5.8059,5.814,5.8195,5.8195,5.8195,5.8335,5.8445,5.8609,5.8773,5.8991,5.9099,5.9099,5.9099,5.9099,5.9099,5.9099,5.9099,5.9099,5.9099,5.9099,5.9099,5.9099,5.9099,5.9099,5.9099,5.9099,5.9608,6.0356,6.0894,6.1583,6.2331,6.2839,6.3077,6.3137,6.3137,6.3137,6.3137,6.3137,6.3137,6.3137,6.3137,6.3857,6.4815,6.5203,6.5503,6.649,6.7238,6.8016,6.8884,6.9542,6.9752,6.9243,6.8824,6.8256,6.7627,6.7119,6.6999,6.6999,6.6999,6.6879,6.6999,6.7059,6.7238,6.7358,6.7478,6.7717,6.8256,6.8764,6.9243,5.1238,5.1841,5.2411,5.2787,5.3001,5.3001,5.3001,5.2947,5.2734,5.2598,5.2573,5.2519,5.2519,5.2519,5.2411,5.225,5.1896,5.1841,5.1787,5.1787,5.1787,5.2004,5.2358,5.2554,5.2639,5.2889,5.3454,5.3614,5.3617,5.3835,5.383,5.3888,5.3825,5.3704,5.3762,5.3617,5.3559,5.35,5.353,5.3878,5.4778,5.5794,5.6694,5.7216,5.7528,5.7725,5.7725,5.7863,5.7918,5.7974,5.7974,5.8029,5.8085,5.8085,5.836,5.8828,5.8991,5.9045,5.9099,5.9099,5.9099,5.9099,5.9099,5.9099,5.9099,5.9099,5.9099,5.9099,5.9099,5.9099,5.9099,5.9099,5.9548,6.0266,6.0894,6.1463,6.2241,6.278,6.3077,6.3137,6.3137,6.3137,6.3137,6.3137,6.3137,6.3137,6.3137,6.3797,6.4695,6.4964,6.5473,6.67,6.7597,6.8286,6.9064,6.9782,6.9722,6.9183,6.8854,6.8435,6.7717,6.6999,6.6999,6.6969,6.667,6.658,6.6759,6.6789,6.6759,6.6759,6.6789,6.7059,6.7597,6.8106,6.8618,5.1017,5.1787,5.2113,5.2465,5.268,5.268,5.2734,5.268,5.2329,5.2221,5.2113,5.2004,5.1841,5.1787,5.1568,5.1183,5.0878,5.0795,5.0878,5.0988,5.0933,5.1155,5.1543,5.2045,5.2323,5.2658,5.3444,5.3747,5.3766,5.4242,5.4717,5.4601,5.4413,5.44,5.4235,5.4023,5.353,5.3559,5.3588,5.4168,5.5213,5.6055,5.6723,5.7158,5.736,5.7445,5.7416,5.7472,5.7528,5.7472,5.7472,5.7584,5.7781,5.7836,5.8003,5.828,5.8555,5.8857,5.8991,5.9099,5.9099,5.9099,5.9099,5.9099,5.9099,5.9099,5.9099,5.9099,5.9099,5.9099,5.9129,5.9159,5.9787,6.0475,6.1104,6.1852,6.26,6.281,6.3107,6.3137,6.3137,6.3137,6.3137,6.3137,6.3137,6.3137,6.3258,6.3947,6.4665,6.5114,6.5533,6.6729,6.7687,6.8405,6.8884,6.9692,6.9632,6.9064,6.8734,6.8435,6.7657,6.6999,6.6999,6.6879,6.655,6.6191,6.6131,6.6131,6.6131,6.6251,6.637,6.664,6.6969,6.7448,6.8019,5.0096,5.085,5.1458,5.1787,5.1896,5.1896,5.1896,5.1787,5.1458,5.1238,5.1183,5.0878,5.0795,5.0795,5.0628,5.0539,5.0363,5.0143,5.0387,5.0712,5.0658,5.086,5.1473,5.1777,5.2029,5.2338,5.2955,5.3347,5.364,5.4175,5.4732,5.4787,5.4748,5.4768,5.4793,5.4641,5.4579,5.472,5.4981,5.5416,5.5997,5.6549,5.7013,5.7274,5.7303,5.7303,5.7303,5.7303,5.7303,5.7303,5.7303,5.736,5.7472,5.7557,5.764,5.7948,5.8114,5.839,5.8803,5.8991,5.9099,5.9099,5.9099,5.9099,5.9099,5.9099,5.9099,5.9099,5.9099,5.9129,5.9249,5.9458,6.0146,6.0835,6.1403,6.2091,6.275,6.2929,6.3137,6.3137,6.3137,6.3137,6.3137,6.3137,6.3166,6.3139,6.3438,6.4156,6.5024,6.5832,6.6281,6.6819,6.7657,6.8405,6.8794,6.9333,6.9363,6.8944,6.8435,6.8076,6.7418,6.6999,6.6999,6.6789,6.643,6.6071,6.5652,6.5473,6.5503,6.5742,6.6011,6.634,6.667,6.6999,6.7537,4.927,4.9727,5.0628,5.0962,5.0934,5.1017,5.0962,5.0906,5.0516,5.0292,5.0179,4.998,4.9864,5.0,5.0081,5.0205,5.0398,4.997,5.0318,5.0666,5.0746,5.081,5.126,5.1534,5.1696,5.1723,5.2734,5.313,5.3402,5.3909,5.4516,5.477,5.5131,5.5183,5.5236,5.5253,5.5242,5.5271,5.5881,5.6229,5.6461,5.6955,5.7216,5.7303,5.7303,5.7303,5.7303,5.7303,5.7303,5.7303,5.7303,5.7303,5.736,5.736,5.7416,5.764,5.7781,5.8003,5.8445,5.8719,5.8991,5.9099,5.9099,5.9099,5.9099,5.9099,5.9099,5.9099,5.9099,5.9189,5.9398,5.9817,6.0475,6.1164,6.1792,6.2391,6.2899,6.3077,6.3137,6.3137,6.3137,6.3137,6.3137,6.3137,6.3109,6.3169,6.3647,6.4336,6.5293,6.6311,6.664,6.6999,6.7567,6.8286,6.8794,6.9034,6.9004,6.8764,6.8286,6.7777,6.7208,6.6999,6.6999,6.67,6.634,6.5802,6.5293,6.5084,6.4904,6.5054,6.5323,6.5951,6.64,6.6729,6.7208,4.8748,4.8837,4.9727,5.0066,5.0123,5.0066,5.0123,5.0123,4.9783,4.9613,4.9499,4.9324,4.9471,4.9791,4.9892,5.0067,5.0386,5.036,5.0379,5.0405,5.0439,5.0611,5.1057,5.1409,5.1683,5.1823,5.25,5.289,5.3241,5.3626,5.4484,5.5299,5.5396,5.5705,5.5812,5.5719,5.5736,5.5794,5.6258,5.649,5.6636,5.6984,5.7303,5.7303,5.7303,5.7303,5.7303,5.7303,5.7303,5.7303,5.7303,5.7303,5.7303,5.7303,5.736,5.7416,5.7584,5.7836,5.8059,5.85,5.8857,5.8991,5.9099,5.9099,5.9099,5.9099,5.9099,5.9099,5.9099,5.9398,5.9727,6.0176,6.0805,6.1523,6.2091,6.251,6.2899,6.3077,6.3137,6.3137,6.3137,6.3137,6.3137,6.3137,6.3137,6.3139,6.3947,6.4665,6.5652,6.655,6.6789,6.7089,6.7508,6.8136,6.8764,6.8824,6.8525,6.8405,6.8106,6.7627,6.7119,6.7029,6.6999,6.661,6.6221,6.5562,6.4934,6.4545,6.4306,6.4306,6.4665,6.5562,6.6281,6.6759,6.7208,4.8055,4.814,4.8695,4.9098,4.9442,4.9469,4.9469,4.9385,4.9183,4.8753,4.8489,4.8655,4.8766,4.8908,4.9239,4.9594,4.9913,4.9602,5.0,5.0224,5.0312,5.0435,5.0829,5.1197,5.1407,5.168,5.2201,5.2492,5.2527,5.3166,5.3713,5.4355,5.51,5.5822,5.6022,5.6328,5.6493,5.6549,5.6752,5.6955,5.7013,5.7129,5.7303,5.7303,5.7303,5.7303,5.7303,5.7303,5.7303,5.7303,5.7303,5.7303,5.7303,5.7303,5.7303,5.7303,5.7472,5.7613,5.7836,5.8335,5.8773,5.9045,5.9099,5.9099,5.9099,5.9099,5.9099,5.9099,5.9159,5.9488,5.9967,6.0475,6.1134,6.1882,6.2421,6.275,6.2929,6.3107,6.3137,6.3137,6.3137,6.3137,6.3137,6.3137,6.3137,6.3226,6.4096,6.5024,6.6041,6.67,6.6879,6.6999,6.7358,6.7747,6.8375,6.8256,6.7986,6.7956,6.7897,6.7448,6.7029,6.7029,6.6909,6.652,6.6071,6.5413,6.4725,6.4006,6.3767,6.3917,6.4575,6.5473,6.6101,6.6759,6.7119,4.7586,4.7586,4.7821,4.823,4.8779,4.8721,4.8695,4.8637,4.8347,4.8127,4.787,4.8197,4.8549,4.8676,4.8974,4.9548,4.9882,4.9805,5.0061,5.0215,5.0381,5.0432,5.0739,5.0968,5.1079,5.1346,5.1622,5.181,5.181,5.2492,5.2983,5.3592,5.4346,5.5205,5.6078,5.6794,5.7191,5.7303,5.7303,5.7303,5.7303,5.7303,5.7303,5.7303,5.7303,5.7303,5.7303,5.7303,5.7303,5.7303,5.7303,5.7303,5.7303,5.7303,5.7303,5.7303,5.7303,5.7416,5.7725,5.828,5.8719,5.8936,5.9045,5.9099,5.9099,5.9099,5.9099,5.9129,5.9279,5.9638,6.0296,6.1014,6.1672,6.245,6.272,6.3047,6.3077,6.3137,6.3137,6.3137,6.3137,6.3137,6.3228,6.3318,6.3767,6.3947,6.4755,6.5622,6.64,6.6879,6.6939,6.6999,6.7059,6.7478,6.7837,6.7687,6.7597,6.7867,6.7717,6.7298,6.6999,6.6999,6.6969,6.6729,6.6161,6.5323,6.4605,6.3947,6.3707,6.3617,6.4455,6.5383,6.6311,6.6909,6.6939,4.7205,4.7205,4.7265,4.7619,4.8172,4.788,4.7762,4.7821,4.7578,4.7658,4.8034,4.8154,4.8769,4.9398,4.9478,4.9836,5.0168,5.0282,5.0384,5.0321,5.0321,5.0499,5.0588,5.0588,5.0652,5.0715,5.0968,5.1246,5.1246,5.181,5.2306,5.2773,5.3565,5.4493,5.5496,5.648,5.705,5.7247,5.7247,5.7303,5.7303,5.7303,5.7303,5.7303,5.7303,5.7303,5.7303,5.7303,5.7303,5.7303,5.7303,5.7303,5.7303,5.7303,5.7303,5.7303,5.7303,5.7303,5.7416,5.8225,5.8555,5.8664,5.8828,5.8936,5.9045,5.9045,5.9099,5.9129,5.9578,6.0236,6.0954,6.1642,6.2211,6.272,6.2989,6.3137,6.3137,6.3137,6.3137,6.3137,6.3137,6.3166,6.3318,6.3647,6.4336,6.4874,6.5533,6.6221,6.6819,6.6999,6.6999,6.6999,6.6999,6.7208,6.7478,6.7238,6.7208,6.7508,6.7537,6.7178,6.6999,6.6999,6.6939,6.6849,6.6101,6.5114,6.4515,6.3947,6.3857,6.3857,6.4455,6.5353,6.634,6.6999,6.6999,4.6959,4.6959,4.7112,4.7324,4.7501,4.7442,4.7383,4.7401,4.7675,4.7777,4.7927,4.8426,4.8835,4.9229,4.9546,4.9799,4.9925,4.9912,4.9976,4.9976,4.9976,5.0104,5.0168,5.0295,5.0359,5.0588,5.0715,5.0931,5.112,5.1434,5.181,5.2306,5.3166,5.4254,5.5437,5.6365,5.6993,5.705,5.722,5.7303,5.7303,5.7303,5.7303,5.7303,5.7303,5.7303,5.7303,5.7303,5.7303,5.7303,5.7303,5.7303,5.7303,5.7303,5.7303,5.7303,5.7303,5.7303,5.7416,5.7836,5.8169,5.8335,5.85,5.8664,5.8773,5.8828,5.8936,5.9224,5.9732,6.039,6.1044,6.1702,6.2301,6.2839,6.3137,6.3137,6.3137,6.3137,6.3137,6.3137,6.3137,6.3438,6.3677,6.4126,6.4755,6.5353,6.5981,6.634,6.6879,6.6969,6.6999,6.6999,6.6999,6.7089,6.7119,6.7059,6.6999,6.7238,6.7268,6.7089,6.6999,6.6999,6.67,6.652,6.5682,6.4815,6.4246,6.3797,6.3977,6.4216,6.4725,6.5503,6.655,6.6999,6.6999,4.6626,4.6661,4.6815,4.6849,4.6934,4.6993,4.6993,4.7036,4.7485,4.7694,4.7926,4.8673,4.9141,4.9177,4.9389,4.959,4.959,4.959,4.959,4.959,4.959,4.9783,4.9847,4.9912,5.004,5.0295,5.0423,5.055,5.0677,5.0994,5.1497,5.2183,5.2861,5.3713,5.4762,5.5671,5.6595,5.6766,5.7107,5.722,5.7247,5.7303,5.7303,5.7303,5.7303,5.7303,5.7303,5.7303,5.7303,5.7303,5.7303,5.7303,5.7303,5.7303,5.7303,5.7303,5.7303,5.7303,5.736,5.7472,5.7781,5.7863,5.8029,5.828,5.85,5.85,5.8609,5.8927,5.9632,6.0228,6.0823,6.1479,6.2281,6.2817,6.2963,6.2963,6.3079,6.3079,6.3137,6.3137,6.3196,6.3558,6.4156,6.4695,6.5233,6.5802,6.637,6.667,6.6909,6.6939,6.6999,6.6999,6.6999,6.7059,6.7059,6.7029,6.6999,6.6999,6.6999,6.6999,6.6999,6.6969,6.658,6.6101,6.5413,6.4695,6.3917,6.3588,6.3827,6.4276,6.4844,6.5742,6.6789,6.6999,6.6999,4.6301,4.6326,4.6326,4.6301,4.6386,4.6737,4.6677,4.6401,4.6954,4.7481,4.7983,4.8649,4.9152,4.949,4.959,4.959,4.959,4.959,4.959,4.959,4.959,4.968,4.9654,4.9654,4.9719,4.9783,4.9912,5.0168,5.0168,5.0804,5.1434,5.1934,5.243,5.3105,5.3954,5.479,5.5787,5.6365,5.688,5.705,5.7134,5.7303,5.7303,5.7303,5.7303,5.7303,5.7303,5.7303,5.7303,5.7303,5.7303,5.7303,5.7303,5.7303,5.7303,5.7303,5.7303,5.7303,5.7303,5.7389,5.736,5.7528,5.7807,5.8085,5.8195,5.8225,5.828,5.8719,5.9421,5.9841,6.0402,6.1317,6.2203,6.2468,6.2615,6.2789,6.2963,6.3079,6.3079,6.3137,6.3137,6.3528,6.4515,6.5144,6.5413,6.6251,6.67,6.6759,6.6939,6.6969,6.6999,6.6999,6.6999,6.6999,6.6999,6.6999,6.6999,6.6999,6.6999,6.6999,6.6999,6.6879,6.646,6.5951,6.5293,6.4545,6.3647,6.3468,6.3707,6.4246,6.4934,6.5742,6.67,6.6939,6.6999,4.6326,4.6326,4.6326,4.6326,4.6376,4.6788,4.6939,4.6979,4.7456,4.7983,4.8535,4.9113,4.9414,4.959,4.959,4.959,4.959,4.959,4.959,4.959,4.959,4.959,4.959,4.959,4.959,4.959,4.9719,4.9912,5.0168,5.0741,5.1057,5.1434,5.1934,5.2553,5.3166,5.3833,5.4849,5.5729,5.6423,5.6823,5.7021,5.7134,5.7191,5.7247,5.7303,5.7303,5.7303,5.7303,5.7303,5.7303,5.7303,5.7303,5.7303,5.7303,5.7303,5.7303,5.7303,5.7303,5.7303,5.7303,5.7247,5.7247,5.7472,5.7696,5.7836,5.7948,5.8003,5.8588,5.932,5.9852,6.0381,6.1204,6.188,6.2175,6.2351,6.2615,6.2847,6.3021,6.3079,6.3137,6.3137,6.3558,6.4575,6.5054,6.5413,6.643,6.6999,6.6999,6.6999,6.6999,6.6999,6.6999,6.6999,6.6999,6.6999,6.6999,6.6999,6.6999,6.6999,6.6999,6.6999,6.6789,6.634,6.5622,6.4755,6.4006,6.3288,6.3318,6.3528,6.4366,6.5084,6.5862,6.652,6.6789,6.6999,4.6326,4.6326,4.6326,4.6426,4.6677,4.6943,4.733,4.7782,4.8134,4.8485,4.8812,4.9339,4.959,4.959,4.959,4.959,4.959,4.959,4.959,4.959,4.959,4.959,4.959,4.959,4.959,4.959,4.959,4.9719,5.004,5.0423,5.0741,5.1183,5.1622,5.2059,5.2677,5.3227,5.3833,5.479,5.5671,5.6308,5.6709,5.6964,5.7078,5.7134,5.7191,5.7247,5.7303,5.7247,5.7303,5.7247,5.7247,5.7163,5.7107,5.7021,5.6908,5.6908,5.6908,5.6908,5.6908,5.6908,5.6908,5.6964,5.6964,5.7134,5.736,5.7472,5.7873,5.8366,5.9213,5.9945,6.0472,6.1028,6.1439,6.185,6.2175,6.241,6.2673,6.2905,6.3021,6.3079,6.3288,6.3647,6.4186,6.4695,6.5323,6.6161,6.6759,6.6999,6.6999,6.6999,6.6999,6.6999,6.6999,6.6999,6.6999,6.6999,6.6999,6.6999,6.6999,6.6999,6.6999,6.6759,6.634,6.5263,6.4036,6.3498,6.3079,6.3169,6.3408,6.4336,6.5173,6.5772,6.64,6.6849,6.6999,4.6326,4.6326,4.6351,4.6728,4.7093,4.7305,4.7857,4.8711,4.8786,4.8837,4.8987,4.9364,4.959,4.959,4.959,4.959,4.959,4.959,4.959,4.959,4.959,4.959,4.959,4.959,4.959,4.959,4.959,4.959,4.9719,5.004,5.055,5.0994,5.112,5.156,5.2121,5.2677,5.3227,5.3894,5.479,5.5526,5.6222,5.6595,5.688,5.688,5.7021,5.7191,5.7191,5.7191,5.7247,5.7134,5.705,5.688,5.6709,5.6595,5.6451,5.6337,5.6337,5.6365,5.6337,5.6337,5.6394,5.6394,5.6394,5.6595,5.688,5.7134,5.7507,5.8054,5.8839,5.951,6.0034,6.0851,6.1407,6.1702,6.1939,6.2175,6.2439,6.2789,6.3079,6.3137,6.3196,6.3528,6.4066,6.4605,6.5263,6.5981,6.655,6.6909,6.6999,6.6999,6.6999,6.6999,6.6999,6.6999,6.6999,6.6999,6.6999,6.6999,6.6999,6.6999,6.6999,6.67,6.634,6.5173,6.4006,6.3438,6.3137,6.3196,6.3498,6.4515,6.5263,6.5712,6.6251,6.6849,6.6999,4.6326,4.6351,4.6753,4.723,4.7757,4.8209,4.851,4.8812,4.9238,4.9389,4.9439,4.9515,4.959,4.959,4.959,4.959,4.959,4.959,4.959,4.959,4.959,4.959,4.959,4.959,4.959,4.959,4.959,4.959,4.9654,4.9912,5.0104,5.0423,5.0741,5.1246,5.1659,5.2245,5.2615,5.3166,5.3833,5.473,5.5496,5.6106,5.6509,5.6509,5.6623,5.668,5.668,5.6623,5.6623,5.6595,5.6566,5.6423,5.6193,5.6077,5.5961,5.5787,5.5671,5.5613,5.5613,5.5671,5.5729,5.5961,5.6077,5.625,5.6537,5.6823,5.7252,5.7828,5.8493,5.9132,5.9829,6.0613,6.1253,6.1464,6.1761,6.1998,6.2263,6.2673,6.3079,6.3137,6.3137,6.3438,6.3947,6.4575,6.5263,6.5922,6.658,6.6969,6.6999,6.6999,6.6999,6.6999,6.6999,6.6999,6.6999,6.6999,6.6999,6.6999,6.6999,6.6999,6.6999,6.6311,6.5682,6.4994,6.4126,6.3498,6.3137,6.3137,6.3617,6.4635,6.5203,6.5622,6.6311,6.6939,6.6999,4.6677,4.6753,4.7255,4.7782,4.8284,4.8636,4.8976,4.9163,4.9464,4.959,4.959,4.959,4.959,4.959,4.959,4.959,4.959,4.959,4.959,4.959,4.959,4.959,4.959,4.959,4.959,4.959,4.959,4.959,4.9654,4.9719,4.9912,5.0104,5.055,5.0931,5.1346,5.1747,5.2121,5.2615,5.3105,5.3773,5.4612,5.5233,5.5817,5.5961,5.6135,5.6193,5.6394,5.6423,5.6308,5.6135,5.5933,5.5468,5.5203,5.5085,5.4908,5.473,5.4612,5.4671,5.473,5.4849,5.4967,5.5144,5.5348,5.5407,5.6385,5.6705,5.7368,5.7973,5.8928,5.9563,6.0292,6.1077,6.1193,6.1344,6.1821,6.2175,6.2526,6.2905,6.3079,6.3137,6.3137,6.3169,6.3737,6.4485,6.5114,6.5503,6.6221,6.6939,6.6999,6.6999,6.6999,6.6999,6.6999,6.6999,6.6999,6.6999,6.6999,6.6999,6.6999,6.6999,6.6879,6.5802,6.4934,6.4635,6.4156,6.3378,6.3137,6.3196,6.3737,6.4725,6.5144,6.5443,6.6251,6.6999,6.6999,4.7205,4.7405,4.7832,4.836,4.8837,4.8887,4.9138,4.954,4.959,4.959,4.959,4.959,4.959,4.959,4.959,4.959,4.959,4.959,4.959,4.959,4.959,4.959,4.959,4.959,4.959,4.959,4.959,4.959,4.959,4.9654,4.9783,4.9976,5.0168,5.0423,5.0931,5.1372,5.1721,5.2059,5.2492,5.2861,5.3531,5.4134,5.4849,5.532,5.5613,5.5903,5.6077,5.6135,5.6019,5.5613,5.5144,5.4612,5.4254,5.4134,5.3894,5.3713,5.3652,5.3592,5.3592,5.3833,5.3954,5.4101,5.4336,5.4971,5.5926,5.6676,5.7347,5.8189,5.9116,5.9877,6.0578,6.1135,6.1164,6.1313,6.1821,6.2292,6.2643,6.3021,6.3079,6.3079,6.3079,6.3079,6.3677,6.4425,6.4964,6.5323,6.5892,6.652,6.6999,6.6999,6.6999,6.6999,6.6999,6.6999,6.6999,6.6999,6.6999,6.6999,6.6999,6.6999,6.6729,6.5742,6.5084,6.4814,6.4246,6.3348,6.3169,6.3258,6.4006,6.4814,6.5323,6.5712,6.64,6.6999,6.6999,4.7657,4.846,4.856,4.8912,4.9389,4.9414,4.9515,4.959,4.959,4.959,4.959,4.959,4.959,4.959,4.959,4.959,4.959,4.959,4.959,4.959,4.959,4.959,4.959,4.959,4.959,4.959,4.959,4.959,4.959,4.959,4.959,4.9719,5.0001,5.0193,5.0321,5.0804,5.1246,5.156,5.1872,5.2245,5.2553,5.3227,5.3894,5.4254,5.4433,5.4671,5.4877,5.4936,5.4758,5.4433,5.4134,5.3713,5.347,5.3288,5.3105,5.2895,5.2773,5.2773,5.2861,5.2956,5.3105,5.3477,5.3883,5.4508,5.5456,5.6335,5.7138,5.8123,5.8973,5.9609,6.0283,6.0928,6.1133,6.1344,6.1761,6.2175,6.2615,6.2905,6.3079,6.3079,6.3137,6.3288,6.3707,6.4425,6.5144,6.5622,6.6281,6.6849,6.6999,6.6999,6.6999,6.6999,6.6999,6.6999,6.6999,6.6999,6.6999,6.6999,6.6999,6.6999,6.664,6.5772,6.5203,6.4934,6.4126,6.3256,6.3199,6.3348,6.4096,6.4874,6.5533,6.6071,6.67,6.6999,6.6999]}]]